[[[{"header":{"parameterUnit":"kt","parameterCategory":2,"dx":1,"dy":1,"la1":29.764190673828125,"la2":30.86408042907715,"lo1":-88.46762084960938,"lo2":-86.9344482421875,"nx":47,"ny":34,"refTime":"2022-10-12T00:00:00:Z","depth":"0","parameterNumber":2,"parameterNumberName":"U-component_of_CURRENTS"},"data":[-0.0571,-0.0561,-0.0331,0.008,0.0555,0.0892,0.1041,0.103,0.079,0.0336,-0.0075,-0.0278,-0.0422,-0.0491,-0.031,0.0011,0.0262,0.0454,0.0619,0.0635,0.0448,0.0278,0.0187,-0.0027,-0.0411,-0.0753,-0.0838,-0.0464,0.0128,0.0171,-0.0251,-0.0347,-0.0203,-0.0128,-0.016,-0.0358,-0.0678,-0.0966,-0.1132,-0.1271,-0.1436,-0.1575,-0.1634,-0.1623,-0.1548,-0.141,-0.1265,-0.0603,-0.0833,-0.0828,-0.0539,-0.016,0.024,0.0443,0.0379,0.0091,-0.023,-0.0374,-0.0448,-0.0507,-0.031,0.0053,0.0342,0.0518,0.0593,0.0593,0.055,0.0497,0.0438,0.031,0.008,-0.023,-0.0571,-0.0886,-0.102,-0.0673,0.0075,0.0336,-0.0005,-0.0085,-0.0011,0.0005,0.0032,-0.0139,-0.0358,-0.0481,-0.0593,-0.0742,-0.0886,-0.0972,-0.1009,-0.1041,-0.1073,-0.1132,-0.0539,-0.0715,-0.0977,-0.1041,-0.0822,-0.0566,-0.0411,-0.039,-0.0454,-0.0481,-0.0448,-0.0384,-0.0192,0.0133,0.0422,0.0582,0.0689,0.0758,0.0785,0.078,0.0785,0.0758,0.0571,0.024,-0.0107,-0.0299,-0.0395,-0.0603,-0.0753,-0.0614,-0.0043,0.0342,0.0128,0.0,0.0069,0.0176,0.0171,0.0075,0.0016,-0.0091,-0.0246,-0.04,-0.0518,-0.0577,-0.0667,-0.079,-0.0902,-0.0475,-0.0539,-0.0705,-0.0924,-0.1036,-0.0982,-0.0876,-0.0774,-0.0635,-0.0459,-0.0251,0.0027,0.0342,0.0545,0.0651,0.0715,0.0774,0.0838,0.0913,0.0972,0.1009,0.1041,0.103,0.094,0.0731,0.0566,0.0502,0.0358,0.016,-0.0117,-0.0342,-0.0155,0.0139,0.023,-0.0016,-0.0027,0.0128,0.0069,0.0075,0.0011,-0.0048,-0.0139,-0.024,-0.0331,-0.0432,-0.0513,-0.0555,-0.0411,-0.0422,-0.0459,-0.0539,-0.0641,-0.0689,-0.0635,-0.0486,-0.0267,-0.0011,0.024,0.0464,0.0625,0.0699,0.0737,0.0774,0.0812,0.0865,0.0945,0.1025,0.1078,0.1132,0.1239,0.1367,0.1415,0.1303,0.1121,0.0977,0.0822,0.0625,0.032,0.0005,-0.0182,0.0032,0.0117,0.0198,0.0,-0.0294,-0.016,-0.0182,-0.0133,-0.0112,-0.0123,-0.0144,-0.0176,-0.0214,-0.0224,-0.0336,-0.0304,-0.0283,-0.0256,-0.0224,-0.0171,-0.0085,0.0037,0.0171,0.031,0.0427,0.0523,0.0598,0.0662,0.0715,0.0758,0.0801,0.086,0.094,0.1014,0.1073,0.1127,0.1223,0.1377,0.1516,0.1532,0.1415,0.1244,0.11,0.0993,0.0822,0.0625,0.0416,0.0043,0.0048,0.0139,0.0011,0.0101,-0.0117,-0.0347,-0.0246,-0.0133,-0.0011,0.0064,0.0107,0.0075,0.0043,-0.0278,-0.0192,-0.0133,-0.008,-0.0021,0.0048,0.0117,0.0182,0.024,0.0299,0.0358,0.0422,0.0497,0.0577,0.0651,0.0705,0.0753,0.0817,0.0892,0.0977,0.1068,0.1153,0.1249,0.1367,0.1479,0.1522,0.149,0.1447,0.1442,0.1367,0.1185,0.0977,0.0806,0.0614,0.0251,0.0107,0.0112,-0.0096,-0.0027,0.0166,-0.0016,-0.0155,-0.0016,0.0149,0.0219,0.0182,0.0096,-0.0272,-0.0149,-0.0064,-0.0005,0.0043,0.0085,0.0123,0.016,0.0203,0.0251,0.0304,0.0368,0.0438,0.0507,0.0571,0.0625,0.0689,0.0758,0.0854,0.0972,0.1105,0.1228,0.1329,0.141,0.1463,0.1484,0.1495,0.1516,0.1564,0.1596,0.1495,0.126,0.1041,0.086,0.0619,0.0256,0.0059,0.0053,-0.0053,-0.0246,-0.0155,0.0091,0.0091,0.0043,0.0037,0.0,-0.0069,-0.0395,-0.0203,-0.0069,0.0016,0.0064,0.0107,0.0139,0.0171,0.0208,0.0262,0.032,0.0374,0.0427,0.047,0.0513,0.0571,0.0651,0.0747,0.087,0.1014,0.1159,0.1276,0.1367,0.1426,0.1463,0.1495,0.1532,0.1575,0.1602,0.1612,0.1559,0.141,0.1207,0.1014,0.0838,0.0598,0.024,-0.0171,-0.031,-0.0155,-0.0166,-0.0438,-0.0454,-0.024,-0.016,-0.0149,-0.0203,-0.079,-0.0545,-0.0246,-0.0021,0.0091,0.0155,0.0203,0.023,0.0256,0.0294,0.0352,0.0416,0.0464,0.0491,0.0513,0.0566,0.0673,0.0806,0.095,0.1078,0.1175,0.1239,0.1303,0.1377,0.1452,0.1527,0.1596,0.1634,0.1623,0.1591,0.1559,0.1484,0.1329,0.1137,0.0988,0.0886,0.0747,0.0497,0.0144,-0.0326,-0.0667,-0.0523,-0.0395,-0.0854,-0.0892,-0.047,-0.0384,-0.1271,-0.1089,-0.0678,-0.0299,-0.0032,0.0144,0.0198,0.0192,0.0214,0.0256,0.0342,0.0443,0.0497,0.0475,0.0486,0.0577,0.0726,0.0881,0.1009,0.1089,0.1132,0.118,0.1249,0.134,0.1426,0.1495,0.1538,0.1543,0.1522,0.15,0.1495,0.1479,0.1426,0.1313,0.1185,0.1084,0.1004,0.0897,0.0763,0.0619,0.0384,-0.0198,-0.0539,-0.0582,-0.0587,-0.0721,-0.0956,-0.1511,-0.1388,-0.1116,-0.0833,-0.0742,-0.0972,-0.1228,-0.086,-0.0379,-0.0224,-0.0149,-0.0251,-0.0256,0.0043,0.0336,0.0555,0.0747,0.0897,0.1004,0.1062,0.1095,0.1132,0.1191,0.1239,0.1271,0.1276,0.1265,0.1255,0.1265,0.1308,0.1372,0.142,0.1436,0.141,0.134,0.1244,0.1121,0.0966,0.0806,0.0678,0.0571,0.0406,-0.0053,-0.0657,-0.0561,-0.0438,-0.0641,-0.1426,-0.1111,-0.0763,-0.0897,-0.1591,-0.2365,-0.2216,-0.1372,-0.0667,-0.0411,-0.0587,-0.086,-0.0432,0.0288,0.0507,0.0587,0.0689,0.0817,0.0934,0.1004,0.1046,0.1084,0.11,0.1089,0.1073,0.1062,0.1036,0.1014,0.102,0.1062,0.1116,0.1153,0.1159,0.1159,0.1143,0.1095,0.1025,0.0913,0.0769,0.063,0.0507,0.0438,0.0363,0.0101,-0.0438,-0.1121,-0.126,0,0,-0.0699,-0.1938,-0.3166,-0.3438,-0.2152,-0.0459,0.047,0.0448,0.0395,0.0475,0,-0.0048,0.0085,0.0384,0.0593,0.0758,0.0902,0.0993,0.1052,0.1159,0.11,0.0934,0.0908,0.0924,0.0924,0.0892,0.0822,0.0737,0.0694,0.0662,0.0619,0.0667,0.0758,0.0844,0.0881,0.0822,0.0737,0.0603,0.0454,0.0342,0.0342,0.0336,0.0187,-0.0117,-0.0454,-0.1276,-0.1863,-0.1826,-0.1228,-0.1014,0,0,-0.0459,-0.1575,-0.1607,0.0411,0.3337,0.4132,0.338,0,0,0,0,0,0,0,0,0.0219,0.0566,0.0769,0.0876,0.0961,0.1111,0.1062,0.0892,0.0838,0.0796,0.0737,0.0774,0.0796,0.0662,0.0561,0.055,0.0603,0.0625,0.0577,0.0481,0.0416,0.0427,0.0432,0.0352,0.0176,-0.1607,-0.1725,-0.1639,-0.1575,-0.1858,-0.15,-0.0427,0.0545,0.0977,0,0,0,0.1687,0.094,-0.2157,-0.2221,-0.118,-0.0326,0.0358,0.0459,0.0283,0,0,0,0,0,0,0,0.0117,0.0448,0.0753,0.0929,0.1233,0.1185,0.0774,0.055,0.0283,0.0133,0.0352,0.0587,0.063,0.0587,0.0507,0.0454,0.0459,0.0486,0.0486,-0.1671,-0.1297,-0.0881,-0.0561,-0.0304,-0.0037,0.0176,0.0812,0.2573,0.3604,0.331,0.2734,0.2808,0.1057,-0.1522,-0.1249,-0.0304,0.0101,0.0005,-0.0182,-0.024,0,0,0,0,0,0,0,0,0,0,0,0,0.0166,0.0561,0.0625,0.0513,0.0699,0.0603,0.0416,0.0459,0.047,0.0438,0.04,0.039,0.0432,0.0497,0,-0.0128,-0.0016,0.0262,0.024,0.0182,0,0,0,0,0,0.0796,0.1287,-0.0347,-0.1249,-0.0192,0.0721,0.1121,0.0881,0.0523,0,0,0,0,0,0,0,0,0,0,0,0,0,0,0,0,0.0064,0.0427,0,0,0.0069,0.0085,0.0112,0.0171,0.0288,0.0502,0.0625,0,0,0,0.0069,0.0176,0.0203,0,0,0,0,0,0.0481,-0.0112,-0.1484,-0.1052,0.0326,0.1046,0.0694,0.0032,0,0,0,0,0,0,0,0,0,0,0,0,0,0,0,0,0,0,-0.0961,-0.1596,0,0,0,0,0,0,0,0.0123,0,0,0,0,0,0,0,0,0,0,0,-0.0069,-0.1169,-0.1917,-0.0763,0.0347,0.0545,0.0502,0,0,0,0,0,0,0,0,0,0,0,0,0,0,0,0,0,0,0,0,-0.0294,-0.0091,0.0315,0.0235,0,0,0,0,0,0,0,0,0,0,0,0,0,0,0,0,-0.0224,-0.1143,-0.1532,-0.0534,0.0048,-0.0069,0,0,0,0,0,0,0,0,0,0,0,0,0,0,0,0,0,0,0,0,0,0,-0.0844,-0.1906,-0.2232,-0.1137,-0.0342,-0.0753,0,0,0,0,0,0,0,0,0,0,0,0,0,0,-0.0747,-0.0812,-0.0609,-0.0502,-0.0806,0,0,0,0,0,0,0,0,0,0,0,0,0,0,0,0,0,0,0,0,0,0,0,0,0,0,0.0011,0.0016,0,0,0,0,0,0,0,0,0,0,0,0,0,0,0.0096,-0.0443,-0.1137,-0.1281,-0.1361,0,0,0,0,0,0,0,0,0,0,0,0,0,0,0,0,0,0,0,0,0,0,0,0,0,0,0,0,0,0,0,0,0,0,0,0,0,0,0,0,0,0,-0.016,-0.1377,-0.2365,-0.1991,-0.1682,0,0,0,0,0,0,0,0,0,0,0,0,0,0,0,0,0,0,0,0,0,0,0,0,0,0,0,0,0,0,0,0,0,0,0,0,0,0,0,0,0,0,-0.095,-0.2531,-0.2851,-0.1927,-0.1319,0,0,0,0,0,0,0,0,0,0,0,0,0,0,0,0,0,0,0,0,0,0,0,0,0,0,0,0,0,0,0,0,0,0,0,0,0,0,0,0,0,0,0,-0.1383,-0.1746,-0.0464,-0.0203,0,0,0,0,0,0,0,0,0,0,0,0,0,0,0,0,0,0,0,0,0,0,0,0,0,0,0,0,0,0,0,0,0,0,0,0,0,0,0,0,0,0,0,0.047,0.1532,0.1842,0.1559,0,0,0,0,0,0,0,0,0,0,0,0,0,0,0,0,0,0,0,0,0,0,0,0,0,0,0,0,0,0,0,0,0,0,0,0,0,0,0,0,0,0,0,0,0.0945,0.1885,0,0,0,0,0,0,0,0,0,0,0,0,0,0,0,0,0,0,0,0,0,0,0,0,0,0,0,0,0,0,0,0,0,0,0,0,0,0,0,0,0,0,0,0,0,0,0,0,0,0,0,0,0,0,0,0,0,0,0,0,0,0,0,0,0,0,0,0,0,0,0,0,0,0,0,0,0,0,0,0,0,0,0,0,0,0,0,0,0,0,0,0,0,0,0,0,0,0,0,0,0,0,0,0,0,0,0,0,0,0,0,0,0,0,0,0,0,0,0,0,0,0,0,0,0,0,0,0,0,0,0,0,0,0,0,0,0,0,0,0,0,0,0,0,0,0,0,0,0,0,0,0,0,0,0,0,0,0,0,0,0,0,0,0,0,0,0,0,0,0,0,0,0,0,0,0,0,0,0,0,0,0,0,0,0,0,0,0,0,0,0,0,0,0,0,0,0,0,0,0,0,0,0,0,0,0,0,0,0,0,0,0,0,0,0,0,0,0,0,0,0,0,0,0,0,0,0,0,0,0,0,0,0,0,0,0,0,0,0,0,0,0,0,0,0,0,0,0,0,0,0,0,0,0,0,0,0,0,0,0,0,0,0,0,0,0,0,0,0,0,0,0,0,0,0,0,0,0,0,0,0,0,0,0,0,0,0,0,0,0,0,0,0,0,0,0,0,0,0,0,0,0,0,0,0,0,0,0,0,0,0,0,0]}],[{"header":{"parameterUnit":"kt","parameterCategory":2,"dx":1,"dy":1,"la1":29.764190673828125,"la2":30.86408042907715,"lo1":-88.46762084960938,"lo2":-86.9344482421875,"nx":47,"ny":34,"refTime":"2022-10-12T00:00:00:Z","depth":"0","parameterNumber":3,"parameterNumberName":"V-component_of_CURRENTS"},"data":[0.0982,0.0977,0.1271,0.1938,0.2541,0.2525,0.2184,0.1709,0.1452,0.1703,0.197,0.1986,0.2104,0.204,0.1778,0.1655,0.1532,0.1377,0.1153,0.1095,0.1313,0.1078,0.0395,0.0432,0.0422,0.0187,-0.0112,-0.0384,-0.0486,-0.0497,-0.0299,-0.0299,-0.0571,-0.0881,-0.1148,-0.1356,-0.1426,-0.1404,-0.1345,-0.1255,-0.1207,-0.1127,-0.1052,-0.095,-0.087,-0.087,-0.0897,0.1153,0.095,0.1095,0.1543,0.2077,0.2242,0.2104,0.1922,0.1911,0.204,0.204,0.2077,0.2098,0.1725,0.142,0.1383,0.1377,0.1308,0.1164,0.1148,0.1313,0.1148,0.0694,0.0635,0.0646,0.0427,-0.0128,-0.0545,-0.0523,-0.055,-0.0518,-0.0379,-0.0336,-0.0475,-0.079,-0.1196,-0.1447,-0.1596,-0.1644,-0.1586,-0.1559,-0.1564,-0.1564,-0.1527,-0.1442,-0.1351,-0.1287,0.1329,0.1127,0.1057,0.1303,0.173,0.2002,0.2056,0.204,0.2093,0.2034,0.1965,0.1981,0.1783,0.1335,0.1196,0.1228,0.1281,0.1303,0.1217,0.1121,0.1153,0.1169,0.1084,0.0924,0.0785,0.0587,0.0123,-0.0635,-0.0908,-0.0902,-0.0566,-0.0497,-0.0481,-0.04,-0.04,-0.079,-0.0998,-0.1313,-0.1468,-0.1516,-0.1511,-0.1559,-0.1623,-0.1618,-0.1516,-0.1372,-0.1308,0.141,0.134,0.1201,0.1212,0.1463,0.1714,0.1853,0.1911,0.1895,0.1799,0.1703,0.1602,0.1356,0.1132,0.1111,0.1153,0.1207,0.1249,0.1217,0.1111,0.1057,0.1148,0.1308,0.1249,0.0998,0.0657,0.0363,-0.016,-0.0705,-0.1169,-0.0876,-0.0491,-0.0593,-0.0721,-0.063,-0.0657,-0.0571,-0.0886,-0.1041,-0.1175,-0.1185,-0.1196,-0.1271,-0.1313,-0.1281,-0.1207,-0.1164,0.1447,0.1431,0.1388,0.134,0.1383,0.1479,0.1559,0.1607,0.157,0.1474,0.1372,0.1271,0.1159,0.11,0.11,0.1116,0.1137,0.1164,0.1153,0.1073,0.0998,0.1046,0.1223,0.1313,0.1164,0.0817,0.0539,0.0288,-0.0085,-0.0678,-0.102,-0.063,-0.0555,-0.0774,-0.1046,-0.0854,-0.0977,-0.0854,-0.0763,-0.0881,-0.0913,-0.0924,-0.095,-0.1025,-0.1078,-0.1046,-0.1025,0.1468,0.1452,0.1452,0.1442,0.1431,0.1415,0.1399,0.1383,0.134,0.1276,0.1207,0.1148,0.1116,0.1105,0.11,0.1078,0.1073,0.1084,0.1073,0.1009,0.0945,0.0945,0.103,0.1137,0.1111,0.0934,0.0742,0.0593,0.0358,-0.0123,-0.0582,-0.0646,-0.0529,-0.0566,-0.0854,-0.0993,-0.1244,-0.11,-0.1132,-0.0972,-0.0876,-0.0849,-0.0817,-0.0828,-0.0849,-0.0828,-0.0806,0.1447,0.1452,0.1463,0.1458,0.1442,0.1404,0.1367,0.1324,0.1281,0.1233,0.118,0.1137,0.1116,0.11,0.1078,0.1041,0.1025,0.102,0.1004,0.095,0.0892,0.087,0.0897,0.0961,0.0998,0.0966,0.0908,0.0817,0.0625,0.0283,-0.0166,-0.0411,-0.0374,-0.0432,-0.0534,-0.0785,-0.0881,-0.1068,-0.1137,-0.1105,-0.1303,-0.1159,-0.0924,-0.0731,-0.0625,-0.0587,-0.0529,0.1345,0.141,0.1463,0.1474,0.1458,0.1426,0.1388,0.1345,0.1303,0.1255,0.1201,0.1159,0.1127,0.1095,0.1052,0.1004,0.0977,0.0961,0.0934,0.0881,0.0822,0.0801,0.0828,0.0876,0.0929,0.0966,0.0961,0.0886,0.0747,0.0555,0.0182,-0.0101,-0.023,-0.0256,-0.0299,-0.0432,-0.0641,-0.0774,-0.0817,-0.1078,-0.134,-0.134,-0.1265,-0.0924,-0.0646,-0.0502,-0.0379,0.1169,0.1308,0.1442,0.15,0.1511,0.1484,0.1452,0.1404,0.1351,0.1292,0.1228,0.1175,0.1132,0.1084,0.103,0.0972,0.0934,0.0902,0.0854,0.078,0.071,0.0699,0.0747,0.0822,0.0897,0.095,0.0956,0.087,0.0753,0.0662,0.047,0.0198,-0.0032,-0.0128,-0.0128,-0.0139,-0.023,-0.0406,-0.0657,-0.0902,-0.1068,-0.142,-0.1388,-0.0998,-0.0902,-0.063,-0.0432,0.102,0.1111,0.1303,0.1474,0.1548,0.1538,0.1516,0.1468,0.141,0.1324,0.1244,0.1175,0.1132,0.1089,0.103,0.094,0.0881,0.0817,0.0737,0.0641,0.0577,0.0587,0.0651,0.0731,0.0801,0.086,0.087,0.0817,0.0737,0.0699,0.0603,0.0411,0.0187,0.0011,-0.0059,-0.0011,0.0053,-0.0032,-0.0208,-0.0518,-0.087,-0.1201,-0.1351,-0.1308,-0.1009,-0.0529,-0.0438,0.1062,0.0913,0.102,0.1313,0.1426,0.1511,0.157,0.1522,0.1452,0.1345,0.1239,0.1169,0.118,0.1148,0.1036,0.0876,0.0785,0.0694,0.0587,0.0497,0.0464,0.0491,0.0545,0.0593,0.0635,0.0683,0.0721,0.0721,0.0694,0.0673,0.063,0.0507,0.0347,0.0166,0.0011,-0.0005,0.0123,0.0208,0.0091,-0.0203,-0.04,-0.0502,-0.0977,-0.1223,-0.1084,-0.079,-0.0662,0.1281,0.1046,0.1004,0.1169,0.1367,0.1703,0.1773,0.1698,0.1628,0.1463,0.1276,0.1271,0.1303,0.1239,0.0929,0.0731,0.0625,0.0539,0.0438,0.0379,0.0368,0.0406,0.0448,0.0454,0.047,0.0513,0.0555,0.0577,0.0571,0.055,0.0555,0.0491,0.0406,0.0272,0.0117,0.0053,0.0166,0.0304,0.0256,0.0027,-0.0112,-0.0112,-0.0219,-0.0475,-0.0961,-0.0966,-0.0571,0.141,0.1239,0.1879,0.1698,0.1895,0.2456,0.2189,0.1703,0.1762,0.1794,0.1602,0.1692,0.1377,0.1399,0.0726,0.0545,0.0438,0.0368,0.0299,0.0262,0.0272,0.032,0.0406,0.0384,0.0374,0.0395,0.0432,0.0432,0.0406,0.0363,0.0416,0.0416,0.0384,0.0283,0.0182,0.0117,0.0192,0.0406,0.039,0.0171,-0.0016,0.0021,0.0155,0.0016,-0.0315,-0.0454,-0.0101,0,0,0.3486,0.2824,0.2702,0.2974,0.244,0.1778,0.2162,0.2445,0.2114,0.2974,0,0.149,0.063,0.0454,0.0336,0.0283,0.0224,0.0203,0.0219,0.0272,0.0577,0.039,0.0304,0.0283,0.032,0.0331,0.0347,0.0214,0.0272,0.0347,0.0326,0.024,0.0149,0.0016,0.0005,0.0416,0.0513,0.031,0.0053,-0.0021,0.0117,0.0278,0.024,0.0048,0.0021,0.0278,0.039,0.3657,0.2862,0.212,0,0,0.2242,0.2712,0.2878,0.2333,0.3935,0.1522,0.3203,0,0,0,0,0,0,0,0,0.0747,0.0411,0.0262,0.0219,0.0267,0.0299,0.0582,0.0235,0.0246,0.0299,0.0395,0.0251,0.0251,0.0075,-0.0267,-0.0016,0.0529,0.0379,0.0149,0.0011,0.0032,0.0224,0.04,0.0411,0.0219,0.0555,0.078,0.2365,0.2312,0.1313,0.0096,0.0053,0.2104,0.307,0,0,0,0.1399,0.4725,0.0998,0.047,0.024,0.0203,0.0085,0.0251,0.0182,0,0,0,0,0,0,0,0.0593,0.0048,0.0294,0.0283,0.0497,0.0448,0.0635,0.0598,-0.0166,-0.0747,-0.0133,0.031,0.0192,0.0112,0.0069,0.0155,0.0347,0.047,0.0395,0.0555,0.0422,0.1297,0.1543,0.0988,-0.0048,0.0112,0.173,0.3294,0.0,0.0,0.0833,0.11,0.4389,0.221,0.0865,0.031,0.016,0.0112,0.0203,0.0368,0,0,0,0,0,0,0,0,0,0,0,0,0.0614,0.0876,0.0998,0.0368,-0.0667,-0.0763,0.024,0.0144,0.0133,0.0117,0.0149,0.0256,0.0384,0.039,0,0.0069,0.0817,0.0641,0.0422,-0.0192,0,0,0,0,0,0.039,0.2985,0.4261,0.2387,0.0699,0.0011,-0.0011,0.0513,0.0123,0,0,0,0,0,0,0,0,0,0,0,0,0,0,0,0,0.0128,-0.0117,0,0,0.0096,0.0123,0.0117,0.0144,0.0214,0.0326,0.039,0,0,0,0.0481,0.0294,-0.0096,0,0,0,0,0,-0.0956,0.3732,0.4223,0.2157,0.0443,-0.0208,0.0149,0.0966,0,0,0,0,0,0,0,0,0,0,0,0,0,0,0,0,0,0,0.0027,0.0085,0,0,0,0,0,0,0,0.0416,0,0,0,0,0,0,0,0,0,0,0,-0.0961,0.3972,0.401,0.173,0.0214,-0.0278,0.023,0,0,0,0,0,0,0,0,0,0,0,0,0,0,0,0,0,0,0,0,0.0166,-0.0171,0.031,0.0304,0,0,0,0,0,0,0,0,0,0,0,0,0,0,0,0,-0.0747,0.3641,0.3518,0.1233,-0.0005,-0.0545,0,0,0,0,0,0,0,0,0,0,0,0,0,0,0,0,0,0,0,0,0,0,-0.0347,0.0614,0.0603,0.0,0.0166,0.0069,0,0,0,0,0,0,0,0,0,0,0,0,0,0,0.1954,0.3118,0.0892,-0.0336,-0.0806,0,0,0,0,0,0,0,0,0,0,0,0,0,0,0,0,0,0,0,0,0,0,0,0,0,0,0.0326,0.0144,0,0,0,0,0,0,0,0,0,0,0,0,0,0,-0.0459,0.3193,0.0886,-0.094,-0.1185,0,0,0,0,0,0,0,0,0,0,0,0,0,0,0,0,0,0,0,0,0,0,0,0,0,0,0,0,0,0,0,0,0,0,0,0,0,0,0,0,0,0,-0.1463,0.3417,0.0929,-0.1922,-0.2189,0,0,0,0,0,0,0,0,0,0,0,0,0,0,0,0,0,0,0,0,0,0,0,0,0,0,0,0,0,0,0,0,0,0,0,0,0,0,0,0,0,0,-0.1393,0.1628,0.0972,-0.2627,-0.2851,0,0,0,0,0,0,0,0,0,0,0,0,0,0,0,0,0,0,0,0,0,0,0,0,0,0,0,0,0,0,0,0,0,0,0,0,0,0,0,0,0,0,0,0.0555,0.0091,-0.2504,-0.2451,0,0,0,0,0,0,0,0,0,0,0,0,0,0,0,0,0,0,0,0,0,0,0,0,0,0,0,0,0,0,0,0,0,0,0,0,0,0,0,0,0,0,0,0.1319,0.0966,-0.1607,-0.1981,0,0,0,0,0,0,0,0,0,0,0,0,0,0,0,0,0,0,0,0,0,0,0,0,0,0,0,0,0,0,0,0,0,0,0,0,0,0,0,0,0,0,0,0,0.2787,-0.0966,0,0,0,0,0,0,0,0,0,0,0,0,0,0,0,0,0,0,0,0,0,0,0,0,0,0,0,0,0,0,0,0,0,0,0,0,0,0,0,0,0,0,0,0,0,0,0,0,0,0,0,0,0,0,0,0,0,0,0,0,0,0,0,0,0,0,0,0,0,0,0,0,0,0,0,0,0,0,0,0,0,0,0,0,0,0,0,0,0,0,0,0,0,0,0,0,0,0,0,0,0,0,0,0,0,0,0,0,0,0,0,0,0,0,0,0,0,0,0,0,0,0,0,0,0,0,0,0,0,0,0,0,0,0,0,0,0,0,0,0,0,0,0,0,0,0,0,0,0,0,0,0,0,0,0,0,0,0,0,0,0,0,0,0,0,0,0,0,0,0,0,0,0,0,0,0,0,0,0,0,0,0,0,0,0,0,0,0,0,0,0,0,0,0,0,0,0,0,0,0,0,0,0,0,0,0,0,0,0,0,0,0,0,0,0,0,0,0,0,0,0,0,0,0,0,0,0,0,0,0,0,0,0,0,0,0,0,0,0,0,0,0,0,0,0,0,0,0,0,0,0,0,0,0,0,0,0,0,0,0,0,0,0,0,0,0,0,0,0,0,0,0,0,0,0,0,0,0,0,0,0,0,0,0,0,0,0,0,0,0,0,0,0,0,0,0,0,0,0,0,0,0,0,0,0,0,0,0,0,0,0,0,0]}]],[[{"header":{"parameterUnit":"kt","parameterCategory":2,"dx":1,"dy":1,"la1":29.764190673828125,"la2":30.86408042907715,"lo1":-88.46762084960938,"lo2":-86.9344482421875,"nx":47,"ny":34,"refTime":"2022-10-12T00:00:00:Z","depth":"2","parameterNumber":2,"parameterNumberName":"U-component_of_CURRENTS"},"data":[-0.032,-0.0315,-0.0085,0.0326,0.0796,0.1132,0.1281,0.1265,0.102,0.0571,0.016,-0.0043,-0.0192,-0.0256,-0.0075,0.024,0.0491,0.0678,0.0833,0.0844,0.0657,0.0481,0.0384,0.0166,-0.0208,-0.0545,-0.0635,-0.0267,0.0326,0.0368,-0.0053,-0.016,-0.0016,0.0053,0.0011,-0.0192,-0.0518,-0.0812,-0.0982,-0.1127,-0.1297,-0.1442,-0.15,-0.149,-0.1415,-0.1276,-0.1137,-0.0363,-0.0593,-0.0587,-0.0299,0.0075,0.047,0.0673,0.0609,0.032,0.0,-0.0144,-0.0219,-0.0278,-0.0085,0.0283,0.0566,0.0737,0.0806,0.0801,0.0753,0.0699,0.0641,0.0502,0.0267,-0.0032,-0.0374,-0.0689,-0.0833,-0.0486,0.0267,0.0529,0.0182,0.0101,0.0166,0.0176,0.0198,0.0021,-0.0198,-0.0326,-0.0448,-0.0603,-0.0753,-0.0838,-0.0881,-0.0908,-0.0945,-0.1004,-0.031,-0.0486,-0.0747,-0.0812,-0.0593,-0.0336,-0.0182,-0.0166,-0.023,-0.0256,-0.0224,-0.0166,0.0027,0.0358,0.0635,0.0796,0.0902,0.0966,0.0988,0.0972,0.0982,0.0956,0.0763,0.0427,0.0091,-0.0101,-0.0203,-0.0416,-0.0577,-0.0432,0.0144,0.0529,0.031,0.0176,0.024,0.0342,0.0331,0.023,0.0171,0.0053,-0.0107,-0.0267,-0.0384,-0.0443,-0.0534,-0.0662,-0.0769,-0.0256,-0.032,-0.0486,-0.0705,-0.0817,-0.0763,-0.0657,-0.055,-0.0416,-0.024,-0.0037,0.024,0.0555,0.0758,0.086,0.0924,0.0977,0.1041,0.1111,0.1164,0.1201,0.1228,0.1217,0.1127,0.0918,0.0758,0.0689,0.0539,0.0331,0.0053,-0.0171,0.0021,0.0315,0.04,0.0155,0.0139,0.0288,0.023,0.023,0.016,0.0096,0.0,-0.0107,-0.0198,-0.0299,-0.0379,-0.0422,-0.0192,-0.0203,-0.024,-0.0326,-0.0427,-0.0475,-0.0422,-0.0272,-0.0053,0.0198,0.0443,0.0667,0.0828,0.0902,0.094,0.0972,0.1009,0.1062,0.1137,0.1212,0.126,0.1313,0.1415,0.1543,0.1596,0.1484,0.1303,0.1153,0.0993,0.0785,0.0481,0.0171,-0.0011,0.0203,0.0288,0.0363,0.016,-0.0139,-0.0005,-0.0027,0.0011,0.0027,0.0011,-0.0016,-0.0048,-0.008,-0.0096,-0.0123,-0.0096,-0.0069,-0.0048,-0.0021,0.0032,0.0117,0.024,0.0374,0.0507,0.0625,0.0721,0.0796,0.086,0.0913,0.095,0.0993,0.1046,0.1127,0.1201,0.1255,0.1303,0.1393,0.1548,0.1692,0.1709,0.1591,0.1415,0.126,0.1153,0.0982,0.0774,0.0571,0.0203,0.0208,0.0299,0.0171,0.0256,0.0032,-0.0198,-0.0096,0.0011,0.0123,0.0198,0.0235,0.0203,0.0171,-0.0069,0.0011,0.0069,0.0123,0.0182,0.0246,0.0315,0.0379,0.0438,0.0497,0.0555,0.0614,0.0689,0.0769,0.0838,0.0892,0.094,0.0998,0.1073,0.1159,0.1239,0.1329,0.142,0.1532,0.1644,0.1692,0.166,0.1607,0.1596,0.1522,0.1335,0.1121,0.095,0.0758,0.0406,0.0267,0.0267,0.0053,0.0123,0.031,0.0133,-0.0011,0.0123,0.0283,0.0347,0.031,0.0219,-0.0075,0.0048,0.0133,0.0192,0.0235,0.0278,0.0315,0.0352,0.039,0.0438,0.0491,0.0555,0.0625,0.0694,0.0753,0.0806,0.0865,0.0934,0.1025,0.1143,0.1276,0.1399,0.1495,0.1575,0.1628,0.165,0.165,0.1671,0.1719,0.1746,0.1639,0.1399,0.118,0.0998,0.0763,0.0406,0.0203,0.0203,0.0091,-0.0101,-0.0011,0.023,0.023,0.0176,0.0166,0.0128,0.0059,-0.0203,-0.0016,0.0123,0.0203,0.0256,0.0294,0.0326,0.0358,0.0395,0.0443,0.0502,0.0555,0.0609,0.0646,0.0689,0.0742,0.0822,0.0918,0.1036,0.118,0.1319,0.1436,0.1527,0.1586,0.1623,0.165,0.1682,0.1725,0.1751,0.1757,0.1698,0.1543,0.134,0.1148,0.0972,0.0731,0.0379,-0.0032,-0.0166,-0.0016,-0.0027,-0.0294,-0.0315,-0.0107,-0.0027,-0.0021,-0.008,-0.0603,-0.0358,-0.0064,0.016,0.0272,0.0336,0.0384,0.0411,0.0432,0.047,0.0529,0.0587,0.0635,0.0657,0.0678,0.0737,0.0838,0.0966,0.1111,0.1233,0.1329,0.1393,0.1463,0.1532,0.1602,0.1676,0.1741,0.1773,0.1767,0.1735,0.1698,0.1618,0.1458,0.1265,0.1116,0.1014,0.0881,0.063,0.0272,-0.0192,-0.0534,-0.0384,-0.0262,-0.0715,-0.0758,-0.0342,-0.0262,-0.1089,-0.0913,-0.0507,-0.0128,0.0139,0.032,0.0368,0.0368,0.0384,0.0427,0.0507,0.0609,0.0657,0.0635,0.0646,0.0737,0.0881,0.103,0.1159,0.1239,0.1281,0.1329,0.1399,0.1484,0.157,0.1639,0.1676,0.1682,0.1655,0.1634,0.1628,0.1612,0.1554,0.1436,0.1308,0.1207,0.1132,0.1025,0.0892,0.0747,0.0507,-0.0069,-0.0406,-0.0448,-0.0454,-0.0593,-0.0828,-0.1319,-0.1207,-0.0945,-0.0667,-0.0571,-0.079,-0.1046,-0.0683,-0.0208,-0.0053,0.0021,-0.008,-0.0085,0.0203,0.0486,0.0705,0.0892,0.1046,0.1148,0.1201,0.1233,0.1276,0.1329,0.1377,0.1404,0.141,0.1399,0.1383,0.1393,0.1436,0.15,0.1548,0.1559,0.1532,0.1458,0.1361,0.1239,0.1084,0.0929,0.0796,0.0689,0.0523,0.0064,-0.0529,-0.0432,-0.031,-0.0513,-0.1233,-0.0929,-0.0598,-0.0747,-0.1404,-0.2146,-0.2002,-0.1185,-0.0502,-0.0251,-0.0422,-0.0689,-0.0283,0.0422,0.0635,0.0731,0.0833,0.0961,0.1068,0.1137,0.1175,0.1212,0.1228,0.1212,0.1201,0.118,0.1159,0.1132,0.1137,0.118,0.1233,0.1271,0.1281,0.1281,0.1265,0.1207,0.1132,0.103,0.0881,0.0737,0.0619,0.0555,0.0481,0.0219,-0.032,-0.0998,-0.1137,0,0,-0.0614,-0.1719,-0.2824,-0.3214,-0.1949,-0.0144,0.0625,0.0641,0.063,0.0726,0,0.0027,0.024,0.0529,0.0726,0.0892,0.1025,0.1111,0.1164,0.1265,0.1201,0.1036,0.1009,0.102,0.102,0.0988,0.0924,0.0844,0.0806,0.078,0.0737,0.079,0.0881,0.0961,0.0988,0.0934,0.0849,0.0715,0.0561,0.0454,0.0459,0.0454,0.0304,0.0,-0.0336,-0.1116,-0.1703,-0.166,-0.0956,-0.0646,0,0,-0.0368,-0.1367,-0.1324,0.0726,0.3748,0.4415,0.3465,0,0,0,0,0,0,0,0,0.0262,0.0646,0.0849,0.0956,0.1036,0.1185,0.1148,0.0982,0.0934,0.0902,0.0849,0.0892,0.0913,0.0774,0.0667,0.0657,0.0715,0.0737,0.0689,0.0587,0.0529,0.0539,0.0545,0.047,0.0294,-0.1452,-0.157,-0.1474,-0.1351,-0.157,-0.1276,-0.0283,0.0667,0.11,0,0,0,0.1858,0.1532,-0.1415,-0.1783,-0.0993,-0.0203,0.0459,0.0545,0.0363,0,0,0,0,0,0,0,0.0155,0.0523,0.0833,0.1009,0.1324,0.1297,0.0897,0.0662,0.0384,0.023,0.0459,0.0699,0.0737,0.0694,0.0614,0.0555,0.0566,0.0598,0.0598,-0.1548,-0.1175,-0.0758,-0.0438,-0.0187,0.0075,0.0278,0.0902,0.2664,0.3785,0.3577,0.2985,0.3001,0.1372,-0.1068,-0.095,-0.0166,0.0203,0.0101,-0.0096,-0.0166,0,0,0,0,0,0,0,0,0,0,0,0,0.0214,0.0662,0.0742,0.0774,0.102,0.0774,0.0518,0.0555,0.0566,0.0534,0.0497,0.0486,0.0534,0.0593,0,-0.0085,0.0064,0.0342,0.0326,0.0272,0,0,0,0,0,0.0854,0.141,-0.0112,-0.0934,0.0005,0.0817,0.1201,0.0966,0.0614,0,0,0,0,0,0,0,0,0,0,0,0,0,0,0,0,0.0502,0.1132,0,0,0.0155,0.0171,0.0198,0.0256,0.0368,0.0582,0.071,0,0,0,0.0101,0.023,0.0262,0,0,0,0,0,0.0523,0.0032,-0.1212,-0.0812,0.0427,0.1111,0.0753,0.0096,0,0,0,0,0,0,0,0,0,0,0,0,0,0,0,0,0,0,-0.0133,-0.0059,0,0,0,0,0,0,0,0.0155,0,0,0,0,0,0,0,0,0,0,0,-0.0027,-0.0982,-0.1644,-0.0577,0.0491,0.0705,0.0657,0,0,0,0,0,0,0,0,0,0,0,0,0,0,0,0,0,0,0,0,-0.0208,0.0037,0.0406,0.0315,0,0,0,0,0,0,0,0,0,0,0,0,0,0,0,0,-0.0187,-0.0945,-0.1271,-0.0395,0.0304,0.0368,0,0,0,0,0,0,0,0,0,0,0,0,0,0,0,0,0,0,0,0,0,0,-0.0801,-0.1511,-0.1175,-0.0331,-0.0203,-0.0667,0,0,0,0,0,0,0,0,0,0,0,0,0,0,-0.0614,-0.0646,-0.0534,-0.0166,-0.0176,0,0,0,0,0,0,0,0,0,0,0,0,0,0,0,0,0,0,0,0,0,0,0,0,0,0,0.0027,0.0053,0,0,0,0,0,0,0,0,0,0,0,0,0,0,0.0117,-0.0374,-0.1062,-0.0747,-0.0352,0,0,0,0,0,0,0,0,0,0,0,0,0,0,0,0,0,0,0,0,0,0,0,0,0,0,0,0,0,0,0,0,0,0,0,0,0,0,0,0,0,0,-0.0149,-0.1175,-0.189,-0.1041,-0.0358,0,0,0,0,0,0,0,0,0,0,0,0,0,0,0,0,0,0,0,0,0,0,0,0,0,0,0,0,0,0,0,0,0,0,0,0,0,0,0,0,0,0,-0.0934,-0.197,-0.1628,-0.0518,0.0149,0,0,0,0,0,0,0,0,0,0,0,0,0,0,0,0,0,0,0,0,0,0,0,0,0,0,0,0,0,0,0,0,0,0,0,0,0,0,0,0,0,0,0,-0.0481,0.0166,0.1143,0.0993,0,0,0,0,0,0,0,0,0,0,0,0,0,0,0,0,0,0,0,0,0,0,0,0,0,0,0,0,0,0,0,0,0,0,0,0,0,0,0,0,0,0,0,0.0635,0.1623,0.1703,0.142,0,0,0,0,0,0,0,0,0,0,0,0,0,0,0,0,0,0,0,0,0,0,0,0,0,0,0,0,0,0,0,0,0,0,0,0,0,0,0,0,0,0,0,0,0.0571,0.1143,0,0,0,0,0,0,0,0,0,0,0,0,0,0,0,0,0,0,0,0,0,0,0,0,0,0,0,0,0,0,0,0,0,0,0,0,0,0,0,0,0,0,0,0,0,0,0,0,0,0,0,0,0,0,0,0,0,0,0,0,0,0,0,0,0,0,0,0,0,0,0,0,0,0,0,0,0,0,0,0,0,0,0,0,0,0,0,0,0,0,0,0,0,0,0,0,0,0,0,0,0,0,0,0,0,0,0,0,0,0,0,0,0,0,0,0,0,0,0,0,0,0,0,0,0,0,0,0,0,0,0,0,0,0,0,0,0,0,0,0,0,0,0,0,0,0,0,0,0,0,0,0,0,0,0,0,0,0,0,0,0,0,0,0,0,0,0,0,0,0,0,0,0,0,0,0,0,0,0,0,0,0,0,0,0,0,0,0,0,0,0,0,0,0,0,0,0,0,0,0,0,0,0,0,0,0,0,0,0,0,0,0,0,0,0,0,0,0,0,0,0,0,0,0,0,0,0,0,0,0,0,0,0,0,0,0,0,0,0,0,0,0,0,0,0,0,0,0,0,0,0,0,0,0,0,0,0,0,0,0,0,0,0,0,0,0,0,0,0,0,0,0,0,0,0,0,0,0,0,0,0,0,0,0,0,0,0,0,0,0,0,0,0,0,0,0,0,0,0,0,0,0,0,0,0,0,0,0,0,0,0,0,0]}],[{"header":{"parameterUnit":"kt","parameterCategory":2,"dx":1,"dy":1,"la1":29.764190673828125,"la2":30.86408042907715,"lo1":-88.46762084960938,"lo2":-86.9344482421875,"nx":47,"ny":34,"refTime":"2022-10-12T00:00:00:Z","depth":"2","parameterNumber":3,"parameterNumberName":"V-component_of_CURRENTS"},"data":[0.0876,0.087,0.1169,0.1837,0.244,0.2429,0.2088,0.1618,0.1361,0.1618,0.189,0.1911,0.2029,0.1965,0.1709,0.1586,0.1468,0.1319,0.1089,0.1036,0.126,0.103,0.0352,0.0395,0.0384,0.0149,-0.0144,-0.0422,-0.0523,-0.0534,-0.0336,-0.0331,-0.0598,-0.0908,-0.1169,-0.1377,-0.1442,-0.142,-0.1356,-0.126,-0.1212,-0.1132,-0.1057,-0.095,-0.0865,-0.086,-0.0881,0.1046,0.0849,0.0993,0.1442,0.1975,0.2146,0.2013,0.1831,0.1826,0.1954,0.1959,0.2002,0.2024,0.165,0.1351,0.1313,0.1308,0.1244,0.1105,0.1089,0.1255,0.1095,0.0651,0.0598,0.0609,0.0395,-0.0155,-0.0571,-0.0555,-0.0587,-0.055,-0.0411,-0.0363,-0.0502,-0.0812,-0.1217,-0.1463,-0.1607,-0.1655,-0.1591,-0.1564,-0.157,-0.157,-0.1527,-0.1442,-0.1345,-0.1276,0.1223,0.1025,0.0956,0.1201,0.1628,0.1901,0.1959,0.1949,0.2007,0.1949,0.1885,0.1901,0.1709,0.126,0.1121,0.1153,0.1212,0.1233,0.1153,0.1062,0.11,0.1116,0.103,0.0886,0.0753,0.0555,0.0096,-0.0657,-0.0934,-0.0929,-0.0598,-0.0529,-0.0507,-0.0427,-0.0422,-0.0812,-0.1014,-0.1324,-0.1474,-0.1522,-0.1516,-0.1559,-0.1623,-0.1612,-0.1511,-0.1361,-0.1297,0.1303,0.1233,0.11,0.1111,0.1361,0.1618,0.1757,0.1815,0.181,0.1714,0.1618,0.1522,0.1276,0.1052,0.103,0.1078,0.1132,0.1175,0.1148,0.1052,0.0998,0.1089,0.1255,0.1201,0.0956,0.0619,0.0331,-0.0187,-0.0726,-0.1185,-0.0902,-0.0523,-0.0625,-0.0747,-0.0651,-0.0673,-0.0587,-0.0897,-0.1046,-0.118,-0.1185,-0.1196,-0.1265,-0.1308,-0.1276,-0.1191,-0.1148,0.134,0.1324,0.1287,0.1239,0.1281,0.1383,0.1468,0.1511,0.1479,0.1383,0.1287,0.1185,0.1073,0.1014,0.102,0.1036,0.1062,0.1095,0.1084,0.1004,0.094,0.0988,0.1169,0.126,0.1116,0.0769,0.0497,0.0251,-0.0117,-0.0699,-0.1036,-0.0651,-0.0577,-0.0801,-0.1068,-0.087,-0.0993,-0.0865,-0.0774,-0.0881,-0.0908,-0.0924,-0.0945,-0.102,-0.1068,-0.1036,-0.1009,0.1356,0.134,0.134,0.1335,0.1329,0.1313,0.1303,0.1287,0.1249,0.1185,0.1116,0.1062,0.103,0.1025,0.102,0.0998,0.0998,0.1014,0.1004,0.0945,0.0881,0.0886,0.0977,0.1084,0.1062,0.0886,0.0699,0.055,0.032,-0.0149,-0.0603,-0.0662,-0.0545,-0.0587,-0.0876,-0.1009,-0.126,-0.1111,-0.1143,-0.0977,-0.0876,-0.0844,-0.0812,-0.0822,-0.0838,-0.0817,-0.0796,0.1329,0.134,0.1351,0.1351,0.1335,0.1303,0.1265,0.1228,0.1191,0.1143,0.1089,0.1052,0.103,0.102,0.0998,0.0966,0.095,0.095,0.0934,0.0881,0.0828,0.0812,0.0838,0.0908,0.0945,0.0918,0.086,0.0769,0.0587,0.0251,-0.0187,-0.0427,-0.039,-0.0454,-0.0555,-0.0801,-0.0897,-0.1084,-0.1148,-0.1111,-0.1308,-0.1159,-0.0918,-0.0726,-0.0619,-0.0577,-0.0518,0.1228,0.1297,0.1351,0.1361,0.1351,0.1319,0.1287,0.1249,0.1212,0.1164,0.1116,0.1073,0.1041,0.1009,0.0972,0.0929,0.0908,0.0892,0.0865,0.0812,0.0753,0.0737,0.0763,0.0817,0.0876,0.0913,0.0913,0.0838,0.0705,0.0518,0.0149,-0.0128,-0.0251,-0.0272,-0.0315,-0.0448,-0.0651,-0.079,-0.0833,-0.1095,-0.1345,-0.1345,-0.1265,-0.0924,-0.0641,-0.0497,-0.0368,0.1062,0.1201,0.1335,0.1393,0.1404,0.1383,0.1351,0.1308,0.126,0.1201,0.1137,0.1084,0.1046,0.1004,0.095,0.0897,0.086,0.0828,0.078,0.0705,0.0635,0.063,0.0678,0.0758,0.0838,0.0892,0.0902,0.0822,0.0705,0.0619,0.0432,0.0171,-0.0053,-0.0144,-0.0144,-0.0155,-0.0246,-0.0416,-0.0667,-0.0913,-0.1078,-0.1431,-0.1393,-0.0998,-0.0897,-0.0625,-0.0427,0.0918,0.1009,0.1196,0.1367,0.1436,0.1431,0.141,0.1367,0.1308,0.1228,0.1148,0.1084,0.1041,0.1004,0.0945,0.086,0.0801,0.0742,0.0657,0.0566,0.0502,0.0518,0.0582,0.0667,0.0742,0.0801,0.0817,0.0763,0.0689,0.0651,0.0566,0.0379,0.016,-0.0005,-0.0069,-0.0027,0.0043,-0.0043,-0.0208,-0.0523,-0.0876,-0.1207,-0.1356,-0.1313,-0.1009,-0.0523,-0.0432,0.0956,0.0812,0.0918,0.1207,0.1313,0.1399,0.1463,0.142,0.1351,0.1249,0.1143,0.1078,0.1089,0.1057,0.095,0.079,0.0699,0.0609,0.0507,0.0422,0.0395,0.0422,0.0481,0.0529,0.0571,0.063,0.0667,0.0667,0.0646,0.063,0.0593,0.0475,0.032,0.0149,0.0,-0.0016,0.0117,0.0198,0.0091,-0.0203,-0.04,-0.0507,-0.0977,-0.1228,-0.1089,-0.079,-0.0662,0.1164,0.0934,0.0908,0.1073,0.126,0.1591,0.1666,0.1596,0.1527,0.1367,0.118,0.118,0.1217,0.1153,0.0838,0.0641,0.0539,0.0454,0.0363,0.031,0.0304,0.0342,0.0384,0.0395,0.0416,0.0464,0.0513,0.0539,0.0529,0.0513,0.0518,0.0459,0.0379,0.0251,0.0101,0.0043,0.0155,0.0299,0.0246,0.0016,-0.0117,-0.0112,-0.0224,-0.0481,-0.0966,-0.0972,-0.0577,0.1281,0.1121,0.1778,0.1602,0.1783,0.2339,0.2077,0.1607,0.1671,0.1698,0.15,0.1575,0.1292,0.1297,0.0635,0.0454,0.0352,0.0294,0.023,0.0198,0.0208,0.0262,0.0352,0.0336,0.0326,0.0358,0.0395,0.04,0.0374,0.0331,0.039,0.039,0.0363,0.0262,0.016,0.0101,0.0176,0.039,0.0379,0.016,-0.0027,0.0016,0.0155,0.0016,-0.0315,-0.0454,-0.0107,0,0,0.3364,0.2691,0.2525,0.284,0.2312,0.1623,0.2072,0.2317,0.1991,0.268,0,0.1361,0.0539,0.0368,0.0262,0.0208,0.0155,0.0139,0.0155,0.0214,0.0529,0.0347,0.0262,0.0251,0.0294,0.0304,0.0326,0.0192,0.0256,0.0331,0.031,0.0224,0.0133,0.0005,-0.0005,0.04,0.0502,0.0299,0.0048,-0.0021,0.0117,0.0272,0.0246,0.0053,0.0027,0.0224,0.0336,0.3529,0.2691,0.1906,0,0,0.2072,0.2605,0.2718,0.2205,0.3497,0.1164,0.3081,0,0,0,0,0,0,0,0,0.0694,0.0368,0.0224,0.0187,0.024,0.0278,0.0561,0.0214,0.023,0.0283,0.0374,0.0235,0.024,0.0064,-0.0278,-0.0027,0.0518,0.0368,0.0144,0.0011,0.0032,0.0224,0.04,0.0411,0.0224,0.0448,0.0673,0.2248,0.2162,0.1148,0.0032,0.0005,0.2007,0.292,0,0,0,0.0934,0.4576,0.0849,0.0336,0.0192,0.0166,0.0048,0.0214,0.0155,0,0,0,0,0,0,0,0.0566,0.0021,0.0272,0.0262,0.047,0.0427,0.0614,0.0587,-0.0171,-0.0753,-0.0149,0.0304,0.0187,0.0107,0.0069,0.0155,0.0347,0.0464,0.0395,0.0454,0.0331,0.1196,0.1436,0.0881,-0.0155,0.0011,0.1639,0.3118,0.0,0.0,0.0758,0.0929,0.4234,0.197,0.0646,0.0219,0.0091,0.0043,0.0133,0.0315,0,0,0,0,0,0,0,0,0,0,0,0,0.0593,0.0854,0.0977,0.0336,-0.0673,-0.0774,0.0235,0.0133,0.0128,0.0112,0.0144,0.0251,0.0379,0.039,0,-0.0011,0.0726,0.0555,0.0342,-0.0267,0,0,0,0,0,0.0278,0.2856,0.4138,0.2216,0.0561,-0.0059,-0.008,0.0443,0.0064,0,0,0,0,0,0,0,0,0,0,0,0,0,0,0,0,0.0085,-0.0053,0,0,0.0085,0.0112,0.0112,0.0144,0.0208,0.0326,0.0384,0,0,0,0.0416,0.023,-0.016,0,0,0,0,0,-0.103,0.3615,0.4084,0.2013,0.0336,-0.0278,0.008,0.0892,0,0,0,0,0,0,0,0,0,0,0,0,0,0,0,0,0,0,0.016,0.0075,0,0,0,0,0,0,0,0.0411,0,0,0,0,0,0,0,0,0,0,0,-0.103,0.3839,0.3812,0.1602,0.0032,-0.0555,0.0166,0,0,0,0,0,0,0,0,0,0,0,0,0,0,0,0,0,0,0,0,0.0144,-0.0182,0.0299,0.0315,0,0,0,0,0,0,0,0,0,0,0,0,0,0,0,0,-0.0801,0.3508,0.3273,0.1143,-0.0294,-0.0833,0,0,0,0,0,0,0,0,0,0,0,0,0,0,0,0,0,0,0,0,0,0,-0.0358,0.0598,0.063,0.0,0.0144,0.0059,0,0,0,0,0,0,0,0,0,0,0,0,0,0,0.1879,0.2904,0.0844,-0.0662,-0.0886,0,0,0,0,0,0,0,0,0,0,0,0,0,0,0,0,0,0,0,0,0,0,0,0,0,0,0.0294,0.0123,0,0,0,0,0,0,0,0,0,0,0,0,0,0,-0.0486,0.3059,0.0849,-0.1175,-0.0924,0,0,0,0,0,0,0,0,0,0,0,0,0,0,0,0,0,0,0,0,0,0,0,0,0,0,0,0,0,0,0,0,0,0,0,0,0,0,0,0,0,0,-0.1479,0.3337,0.0918,-0.1805,-0.1319,0,0,0,0,0,0,0,0,0,0,0,0,0,0,0,0,0,0,0,0,0,0,0,0,0,0,0,0,0,0,0,0,0,0,0,0,0,0,0,0,0,0,-0.1404,0.1778,0.0833,-0.2274,-0.1751,0,0,0,0,0,0,0,0,0,0,0,0,0,0,0,0,0,0,0,0,0,0,0,0,0,0,0,0,0,0,0,0,0,0,0,0,0,0,0,0,0,0,0,0.0662,0.0155,-0.2317,-0.1372,0,0,0,0,0,0,0,0,0,0,0,0,0,0,0,0,0,0,0,0,0,0,0,0,0,0,0,0,0,0,0,0,0,0,0,0,0,0,0,0,0,0,0,0.1169,0.0112,-0.1927,-0.086,0,0,0,0,0,0,0,0,0,0,0,0,0,0,0,0,0,0,0,0,0,0,0,0,0,0,0,0,0,0,0,0,0,0,0,0,0,0,0,0,0,0,0,0,0.0673,-0.1666,0,0,0,0,0,0,0,0,0,0,0,0,0,0,0,0,0,0,0,0,0,0,0,0,0,0,0,0,0,0,0,0,0,0,0,0,0,0,0,0,0,0,0,0,0,0,0,0,0,0,0,0,0,0,0,0,0,0,0,0,0,0,0,0,0,0,0,0,0,0,0,0,0,0,0,0,0,0,0,0,0,0,0,0,0,0,0,0,0,0,0,0,0,0,0,0,0,0,0,0,0,0,0,0,0,0,0,0,0,0,0,0,0,0,0,0,0,0,0,0,0,0,0,0,0,0,0,0,0,0,0,0,0,0,0,0,0,0,0,0,0,0,0,0,0,0,0,0,0,0,0,0,0,0,0,0,0,0,0,0,0,0,0,0,0,0,0,0,0,0,0,0,0,0,0,0,0,0,0,0,0,0,0,0,0,0,0,0,0,0,0,0,0,0,0,0,0,0,0,0,0,0,0,0,0,0,0,0,0,0,0,0,0,0,0,0,0,0,0,0,0,0,0,0,0,0,0,0,0,0,0,0,0,0,0,0,0,0,0,0,0,0,0,0,0,0,0,0,0,0,0,0,0,0,0,0,0,0,0,0,0,0,0,0,0,0,0,0,0,0,0,0,0,0,0,0,0,0,0,0,0,0,0,0,0,0,0,0,0,0,0,0,0,0,0,0,0,0,0,0,0,0,0,0,0,0,0,0,0,0,0,0,0]}]],[[{"header":{"parameterUnit":"kt","parameterCategory":2,"dx":1,"dy":1,"la1":29.764190673828125,"la2":30.86408042907715,"lo1":-88.46762084960938,"lo2":-86.9344482421875,"nx":47,"ny":34,"refTime":"2022-10-12T00:00:00:Z","depth":"4","parameterNumber":2,"parameterNumberName":"U-component_of_CURRENTS"},"data":[-0.0256,-0.0246,-0.0011,0.0395,0.0865,0.1196,0.1345,0.1324,0.1084,0.0635,0.0224,0.0021,-0.0128,-0.0192,-0.0011,0.0304,0.0555,0.0737,0.0892,0.0897,0.071,0.0534,0.0422,0.0203,-0.016,-0.0486,-0.0582,-0.0208,0.0384,0.0427,0.0005,-0.0101,0.0043,0.0107,0.0064,-0.0139,-0.047,-0.0758,-0.0934,-0.1078,-0.1249,-0.1393,-0.1452,-0.1447,-0.1372,-0.1239,-0.1095,-0.0299,-0.0529,-0.0523,-0.023,0.0144,0.0539,0.0737,0.0673,0.0384,0.0069,-0.0075,-0.0155,-0.0214,-0.0016,0.0347,0.0625,0.0796,0.0865,0.0849,0.0801,0.0753,0.0694,0.0545,0.031,0.0016,-0.0315,-0.0641,-0.0785,-0.0432,0.032,0.0582,0.024,0.0155,0.0219,0.0224,0.0246,0.0069,-0.0149,-0.0278,-0.04,-0.0561,-0.071,-0.0796,-0.0838,-0.0865,-0.0902,-0.0961,-0.0251,-0.0427,-0.0689,-0.0747,-0.0529,-0.0272,-0.0123,-0.0101,-0.0166,-0.0192,-0.016,-0.0101,0.0091,0.0422,0.0699,0.0854,0.0956,0.102,0.1036,0.102,0.103,0.1004,0.0812,0.047,0.0139,-0.0043,-0.0149,-0.0374,-0.0534,-0.039,0.0198,0.0582,0.0363,0.0224,0.0288,0.039,0.0379,0.0278,0.0214,0.0101,-0.0059,-0.0219,-0.0342,-0.04,-0.0491,-0.0619,-0.0726,-0.0198,-0.0262,-0.0427,-0.0646,-0.0753,-0.0699,-0.0593,-0.0491,-0.0352,-0.0182,0.0021,0.0304,0.0614,0.0817,0.0913,0.0977,0.103,0.1095,0.1159,0.1207,0.1244,0.1276,0.1265,0.1175,0.0972,0.0812,0.0742,0.0587,0.0374,0.0085,-0.0128,0.0069,0.0368,0.0454,0.0203,0.0187,0.0336,0.0278,0.0278,0.0203,0.0139,0.0043,-0.0064,-0.0155,-0.0256,-0.0336,-0.0374,-0.0139,-0.0149,-0.0187,-0.0272,-0.0368,-0.0416,-0.0358,-0.0214,0.0005,0.0256,0.0502,0.0726,0.0881,0.0956,0.0993,0.1025,0.1062,0.1116,0.1191,0.126,0.1308,0.1361,0.1463,0.1591,0.1644,0.1538,0.1356,0.1196,0.1036,0.0822,0.0513,0.0208,0.0032,0.0251,0.0336,0.0406,0.0208,-0.0091,0.0037,0.0016,0.0053,0.0069,0.0053,0.0027,-0.0005,-0.0037,-0.0048,-0.0069,-0.0043,-0.0016,0.0005,0.0037,0.0085,0.0176,0.0294,0.0432,0.0561,0.0678,0.0774,0.0849,0.0913,0.0966,0.1004,0.1046,0.11,0.1175,0.1249,0.1297,0.1345,0.1436,0.1591,0.1735,0.1757,0.1639,0.1458,0.1297,0.1185,0.1014,0.0806,0.0609,0.0246,0.0256,0.0347,0.0219,0.0304,0.0075,-0.0149,-0.0053,0.0053,0.0166,0.024,0.0272,0.024,0.0214,-0.0016,0.0064,0.0117,0.0176,0.0235,0.0299,0.0368,0.0432,0.0491,0.055,0.0609,0.0667,0.0742,0.0822,0.0886,0.094,0.0988,0.1046,0.1121,0.1207,0.1287,0.1372,0.1463,0.1575,0.1687,0.1735,0.1703,0.165,0.1634,0.1554,0.1367,0.1153,0.0977,0.079,0.0443,0.031,0.0315,0.0101,0.0166,0.0352,0.0176,0.0032,0.016,0.0326,0.0384,0.0347,0.0262,-0.0027,0.0101,0.0187,0.0246,0.0288,0.0331,0.0368,0.0406,0.0443,0.0491,0.0545,0.0609,0.0678,0.0742,0.0801,0.0854,0.0913,0.0982,0.1073,0.1191,0.1319,0.1436,0.1538,0.1612,0.1666,0.1687,0.1692,0.1709,0.1751,0.1778,0.1671,0.1426,0.1201,0.1025,0.0796,0.0443,0.0246,0.0246,0.0133,-0.0059,0.0032,0.0272,0.0272,0.0219,0.0203,0.0166,0.0096,-0.016,0.0032,0.0171,0.0256,0.031,0.0347,0.0379,0.0411,0.0448,0.0497,0.055,0.0609,0.0657,0.0694,0.0737,0.079,0.0865,0.0961,0.1078,0.1217,0.1361,0.1479,0.1564,0.1628,0.166,0.1687,0.1719,0.1757,0.1783,0.1789,0.173,0.157,0.1361,0.1169,0.0998,0.0763,0.0411,0.0005,-0.0128,0.0021,0.0016,-0.0251,-0.0272,-0.0064,0.0011,0.0016,-0.0043,-0.0561,-0.0315,-0.0016,0.0208,0.032,0.039,0.0432,0.0464,0.0486,0.0518,0.0577,0.0635,0.0683,0.0705,0.0726,0.078,0.0881,0.1009,0.1143,0.1271,0.1367,0.1436,0.15,0.157,0.1639,0.1709,0.1773,0.181,0.1799,0.1773,0.173,0.1644,0.1479,0.1287,0.1143,0.1046,0.0908,0.0662,0.0304,-0.0155,-0.0491,-0.0342,-0.0219,-0.0673,-0.0721,-0.0304,-0.0224,-0.1036,-0.0865,-0.0464,-0.0085,0.0187,0.0368,0.0422,0.0416,0.0432,0.0475,0.0555,0.0657,0.0699,0.0678,0.0689,0.078,0.0918,0.1068,0.1191,0.1271,0.1319,0.1367,0.1436,0.1522,0.1607,0.1671,0.1714,0.1714,0.1687,0.1671,0.166,0.1644,0.158,0.1463,0.1335,0.1233,0.1159,0.1052,0.0924,0.0774,0.0534,-0.0037,-0.0368,-0.0406,-0.0416,-0.055,-0.079,-0.1233,-0.1127,-0.0892,-0.063,-0.0529,-0.0737,-0.0988,-0.063,-0.0155,-0.0005,0.0075,-0.0016,-0.0016,0.0256,0.0529,0.0747,0.0929,0.1078,0.118,0.1239,0.1271,0.1308,0.1361,0.141,0.1442,0.1442,0.1431,0.1415,0.1426,0.1468,0.1532,0.158,0.1591,0.1559,0.1484,0.1388,0.1265,0.1111,0.0956,0.0822,0.0715,0.055,0.0096,-0.0497,-0.0395,-0.0267,-0.0475,-0.1121,-0.0828,-0.0539,-0.0721,-0.1297,-0.1698,-0.134,-0.0817,-0.0438,-0.0208,-0.0379,-0.0625,-0.023,0.0448,0.0651,0.0763,0.087,0.0993,0.11,0.1169,0.1207,0.1244,0.126,0.1244,0.1228,0.1212,0.1185,0.1159,0.1164,0.1207,0.1265,0.1297,0.1308,0.1313,0.1292,0.1233,0.1153,0.1052,0.0908,0.0763,0.0641,0.0577,0.0513,0.0251,-0.0288,-0.0961,-0.11,0,0,-0.0571,-0.1474,-0.2034,-0.229,-0.0998,0.0561,0.0854,0.0844,0.0924,0.1052,0,0.0059,0.0294,0.0577,0.0763,0.0924,0.1057,0.1132,0.1191,0.1292,0.1228,0.1062,0.1036,0.1046,0.1041,0.1009,0.0945,0.0876,0.0838,0.0817,0.078,0.0828,0.0918,0.0988,0.1009,0.095,0.087,0.0737,0.0587,0.0481,0.0486,0.0486,0.0336,0.0032,-0.0304,-0.1052,-0.1644,-0.1586,-0.0539,0.0101,0,0,-0.0299,-0.11,-0.0598,0.1596,0.3673,0.3241,0.1965,0,0,0,0,0,0,0,0,0.0272,0.0673,0.087,0.0972,0.1046,0.1201,0.1159,0.1004,0.0961,0.0934,0.0892,0.0929,0.095,0.0806,0.0694,0.0683,0.0742,0.0763,0.0715,0.0619,0.0555,0.0571,0.0577,0.0502,0.0331,-0.1377,-0.1495,-0.1377,-0.1025,-0.0849,-0.0651,-0.0096,0.0715,0.1153,0,0,0,0.0881,0.1676,0.0705,-0.0101,-0.0011,0.0112,0.0502,0.0566,0.0374,0,0,0,0,0,0,0,0.0171,0.055,0.0849,0.1025,0.1351,0.1345,0.0966,0.0721,0.0422,0.0251,0.0481,0.0726,0.0769,0.0721,0.0641,0.0582,0.0593,0.063,0.063,-0.149,-0.1121,-0.0699,-0.0374,-0.0085,0.0171,0.031,0.0902,0.244,0.3353,0.3679,0.3572,0.244,0.1511,0.0614,0.0069,0.0251,0.0384,0.0256,0.0021,-0.0139,0,0,0,0,0,0,0,0,0,0,0,0,0.0235,0.0721,0.0956,0.1276,0.1271,0.0854,0.0539,0.0571,0.0587,0.0555,0.0518,0.0507,0.0561,0.0625,0,-0.0075,0.0091,0.0368,0.0358,0.0299,0,0,0,0,0,0.0902,0.1607,0.0918,0.055,0.0828,0.0924,0.1041,0.1014,0.0881,0,0,0,0,0,0,0,0,0,0,0,0,0,0,0,0,0.142,0.221,0,0,0.0176,0.0187,0.0219,0.0272,0.039,0.0603,0.0731,0,0,0,0.0112,0.0251,0.0278,0,0,0,0,0,0.0518,0.0443,0.0187,0.0721,0.063,0.0619,0.0587,0.0107,0,0,0,0,0,0,0,0,0,0,0,0,0,0,0,0,0,0,0.2061,0.2936,0,0,0,0,0,0,0,0.0166,0,0,0,0,0,0,0,0,0,0,0,0.0096,-0.0144,0.0112,0.0326,0.0139,0.0406,0.0481,0,0,0,0,0,0,0,0,0,0,0,0,0,0,0,0,0,0,0,0,0.0806,0.1447,0.1313,0.1356,0,0,0,0,0,0,0,0,0,0,0,0,0,0,0,0,0.0037,0.0011,0.0384,0.0299,0.0347,0.0876,0,0,0,0,0,0,0,0,0,0,0,0,0,0,0,0,0,0,0,0,0,0,-0.0497,-0.0507,0.0726,0.1025,0.0331,0.0085,0,0,0,0,0,0,0,0,0,0,0,0,0,0,0.0294,0.0806,0.0384,0.0283,0.0699,0,0,0,0,0,0,0,0,0,0,0,0,0,0,0,0,0,0,0,0,0,0,0,0,0,0,0.0032,0.0064,0,0,0,0,0,0,0,0,0,0,0,0,0,0,0.0481,0.0849,0.0432,0.0214,0.0331,0,0,0,0,0,0,0,0,0,0,0,0,0,0,0,0,0,0,0,0,0,0,0,0,0,0,0,0,0,0,0,0,0,0,0,0,0,0,0,0,0,0,0.0112,0.0278,0.0267,0.0278,0.0368,0,0,0,0,0,0,0,0,0,0,0,0,0,0,0,0,0,0,0,0,0,0,0,0,0,0,0,0,0,0,0,0,0,0,0,0,0,0,0,0,0,0,-0.0406,-0.0053,0.0908,0.0747,0.0379,0,0,0,0,0,0,0,0,0,0,0,0,0,0,0,0,0,0,0,0,0,0,0,0,0,0,0,0,0,0,0,0,0,0,0,0,0,0,0,0,0,0,0,0.0828,0.1495,0.1217,0.11,0,0,0,0,0,0,0,0,0,0,0,0,0,0,0,0,0,0,0,0,0,0,0,0,0,0,0,0,0,0,0,0,0,0,0,0,0,0,0,0,0,0,0,0.0214,0.0395,-0.0053,-0.0464,0,0,0,0,0,0,0,0,0,0,0,0,0,0,0,0,0,0,0,0,0,0,0,0,0,0,0,0,0,0,0,0,0,0,0,0,0,0,0,0,0,0,0,0,-0.0272,-0.0545,0,0,0,0,0,0,0,0,0,0,0,0,0,0,0,0,0,0,0,0,0,0,0,0,0,0,0,0,0,0,0,0,0,0,0,0,0,0,0,0,0,0,0,0,0,0,0,0,0,0,0,0,0,0,0,0,0,0,0,0,0,0,0,0,0,0,0,0,0,0,0,0,0,0,0,0,0,0,0,0,0,0,0,0,0,0,0,0,0,0,0,0,0,0,0,0,0,0,0,0,0,0,0,0,0,0,0,0,0,0,0,0,0,0,0,0,0,0,0,0,0,0,0,0,0,0,0,0,0,0,0,0,0,0,0,0,0,0,0,0,0,0,0,0,0,0,0,0,0,0,0,0,0,0,0,0,0,0,0,0,0,0,0,0,0,0,0,0,0,0,0,0,0,0,0,0,0,0,0,0,0,0,0,0,0,0,0,0,0,0,0,0,0,0,0,0,0,0,0,0,0,0,0,0,0,0,0,0,0,0,0,0,0,0,0,0,0,0,0,0,0,0,0,0,0,0,0,0,0,0,0,0,0,0,0,0,0,0,0,0,0,0,0,0,0,0,0,0,0,0,0,0,0,0,0,0,0,0,0,0,0,0,0,0,0,0,0,0,0,0,0,0,0,0,0,0,0,0,0,0,0,0,0,0,0,0,0,0,0,0,0,0,0,0,0,0,0,0,0,0,0,0,0,0,0,0,0,0,0,0,0,0,0]}],[{"header":{"parameterUnit":"kt","parameterCategory":2,"dx":1,"dy":1,"la1":29.764190673828125,"la2":30.86408042907715,"lo1":-88.46762084960938,"lo2":-86.9344482421875,"nx":47,"ny":34,"refTime":"2022-10-12T00:00:00:Z","depth":"4","parameterNumber":3,"parameterNumberName":"V-component_of_CURRENTS"},"data":[0.0849,0.0844,0.1137,0.1799,0.2408,0.2397,0.2056,0.1591,0.1335,0.1596,0.1863,0.189,0.2007,0.1943,0.1692,0.157,0.1452,0.1303,0.1073,0.102,0.1249,0.102,0.0347,0.039,0.0379,0.0144,-0.0149,-0.0432,-0.0534,-0.0545,-0.0347,-0.0342,-0.0609,-0.0918,-0.118,-0.1388,-0.1452,-0.1431,-0.1367,-0.1271,-0.1223,-0.1143,-0.1062,-0.0956,-0.087,-0.0865,-0.0886,0.102,0.0817,0.0961,0.141,0.1943,0.2114,0.1981,0.1805,0.1799,0.1933,0.1933,0.1981,0.2002,0.1634,0.1335,0.1297,0.1292,0.1228,0.1089,0.1078,0.1244,0.1084,0.0646,0.0598,0.0614,0.04,-0.0149,-0.0571,-0.0555,-0.0598,-0.0566,-0.0422,-0.0379,-0.0513,-0.0822,-0.1228,-0.1474,-0.1618,-0.1666,-0.1602,-0.1575,-0.158,-0.1575,-0.1532,-0.1447,-0.1351,-0.1276,0.1196,0.0993,0.0929,0.1169,0.1596,0.1869,0.1927,0.1922,0.1981,0.1927,0.1858,0.1879,0.1687,0.1239,0.11,0.1132,0.1191,0.1212,0.1137,0.1052,0.1084,0.1105,0.102,0.0886,0.0753,0.0561,0.0101,-0.0646,-0.0924,-0.0929,-0.0609,-0.0545,-0.0523,-0.0438,-0.0432,-0.0817,-0.1025,-0.1329,-0.1484,-0.1527,-0.1522,-0.1564,-0.1623,-0.1618,-0.1511,-0.1367,-0.1292,0.1276,0.1207,0.1073,0.1084,0.1335,0.1586,0.1725,0.1789,0.1783,0.1687,0.1591,0.1495,0.1249,0.1025,0.1009,0.1052,0.1111,0.1153,0.1132,0.1036,0.0988,0.1078,0.1239,0.1196,0.095,0.0614,0.0331,-0.0187,-0.0715,-0.118,-0.0897,-0.0529,-0.0635,-0.0758,-0.0662,-0.0683,-0.0593,-0.0902,-0.1052,-0.118,-0.1191,-0.1196,-0.1265,-0.1308,-0.1276,-0.1191,-0.1143,0.1308,0.1292,0.1255,0.1212,0.1255,0.1356,0.1442,0.1484,0.1452,0.1356,0.126,0.1159,0.1046,0.0988,0.0993,0.1009,0.1036,0.1068,0.1062,0.0988,0.0924,0.0972,0.1153,0.1244,0.11,0.0758,0.0491,0.0246,-0.0117,-0.0694,-0.1025,-0.0646,-0.0582,-0.0812,-0.1078,-0.0881,-0.0998,-0.087,-0.0774,-0.0881,-0.0908,-0.0924,-0.0945,-0.102,-0.1068,-0.1036,-0.1009,0.1319,0.1308,0.1308,0.1303,0.1303,0.1287,0.1276,0.126,0.1223,0.1159,0.1089,0.1036,0.1009,0.0998,0.0993,0.0977,0.0977,0.0993,0.0982,0.0924,0.0865,0.087,0.0961,0.1073,0.1046,0.087,0.0683,0.0545,0.0315,-0.0155,-0.0598,-0.0651,-0.0545,-0.0593,-0.0881,-0.102,-0.1271,-0.1116,-0.1148,-0.0982,-0.0876,-0.0844,-0.0812,-0.0822,-0.0838,-0.0812,-0.0796,0.1292,0.1303,0.1313,0.1319,0.1303,0.1271,0.1239,0.1201,0.1159,0.1116,0.1062,0.103,0.1009,0.0998,0.0977,0.0945,0.0929,0.0929,0.0913,0.0865,0.0812,0.0796,0.0828,0.0892,0.0934,0.0902,0.0844,0.0758,0.0577,0.0246,-0.0187,-0.0427,-0.0384,-0.0448,-0.0555,-0.0806,-0.0908,-0.1089,-0.1159,-0.1116,-0.1313,-0.1164,-0.0918,-0.0726,-0.0619,-0.0577,-0.0518,0.1196,0.126,0.1313,0.1329,0.1319,0.1287,0.1255,0.1223,0.1185,0.1143,0.1089,0.1046,0.102,0.0988,0.095,0.0908,0.0886,0.087,0.0844,0.079,0.0731,0.071,0.0742,0.0796,0.086,0.0897,0.0897,0.0822,0.0689,0.0507,0.0149,-0.0123,-0.0246,-0.0272,-0.0315,-0.0448,-0.0657,-0.0796,-0.0838,-0.11,-0.1356,-0.1351,-0.1271,-0.0929,-0.0641,-0.0497,-0.0368,0.1041,0.1175,0.1303,0.1361,0.1372,0.1351,0.1319,0.1281,0.1233,0.1175,0.1116,0.1062,0.102,0.0977,0.0929,0.0876,0.0838,0.0806,0.0758,0.0678,0.0609,0.0603,0.0651,0.0731,0.0812,0.087,0.0881,0.0801,0.0683,0.0603,0.0422,0.0166,-0.0053,-0.0144,-0.0144,-0.0149,-0.024,-0.0416,-0.0673,-0.0918,-0.1084,-0.1436,-0.1399,-0.1004,-0.0902,-0.0625,-0.0427,0.0902,0.0988,0.1175,0.1335,0.1404,0.1399,0.1377,0.134,0.1281,0.1201,0.1127,0.1062,0.102,0.0977,0.0924,0.0838,0.0774,0.0715,0.063,0.0534,0.0475,0.0491,0.0555,0.0641,0.0715,0.078,0.0796,0.0742,0.0667,0.0635,0.055,0.0368,0.016,-0.0005,-0.0069,-0.0021,0.0048,-0.0037,-0.0203,-0.0518,-0.0876,-0.1212,-0.1361,-0.1319,-0.1014,-0.0523,-0.0432,0.0934,0.0796,0.0902,0.1185,0.1287,0.1367,0.1431,0.1388,0.1324,0.1217,0.1116,0.1052,0.1057,0.103,0.0924,0.0763,0.0667,0.0582,0.0481,0.0395,0.0368,0.04,0.0454,0.0507,0.055,0.0609,0.0646,0.0651,0.063,0.0609,0.0571,0.0459,0.031,0.0144,0.0,-0.0011,0.0117,0.0203,0.0096,-0.0192,-0.0395,-0.0502,-0.0982,-0.1233,-0.1095,-0.0796,-0.0662,0.1121,0.0908,0.0892,0.1057,0.1233,0.1559,0.1634,0.1564,0.1495,0.134,0.1153,0.1153,0.1191,0.1127,0.0812,0.0609,0.0513,0.0427,0.0342,0.0288,0.0283,0.0326,0.0368,0.0379,0.04,0.0448,0.0502,0.0523,0.0518,0.0502,0.0507,0.0443,0.0368,0.0246,0.0101,0.0043,0.0155,0.0299,0.0246,0.0021,-0.0112,-0.0107,-0.0219,-0.0481,-0.0972,-0.0982,-0.0582,0.1217,0.1078,0.1762,0.1591,0.173,0.2146,0.1879,0.1575,0.1644,0.1676,0.1474,0.1522,0.1271,0.1249,0.0609,0.0427,0.0331,0.0272,0.0208,0.0182,0.0192,0.0246,0.0342,0.0326,0.032,0.0347,0.039,0.0395,0.0374,0.0331,0.0384,0.039,0.0358,0.0262,0.0166,0.0107,0.0182,0.039,0.0379,0.016,-0.0027,0.0016,0.0155,0.0016,-0.031,-0.0454,-0.0112,0,0,0.3294,0.2589,0.2205,0.2413,0.1911,0.1527,0.2034,0.221,0.1821,0.2104,0,0.1169,0.0513,0.0342,0.024,0.0192,0.0144,0.0123,0.0144,0.0203,0.0513,0.0331,0.0256,0.0246,0.0288,0.0304,0.0326,0.0198,0.0256,0.0331,0.0315,0.0235,0.0139,0.0011,0.0,0.04,0.0497,0.0299,0.0053,-0.0016,0.0123,0.0278,0.0256,0.0064,0.0037,0.0203,0.0315,0.3444,0.244,0.1591,0,0,0.1687,0.2488,0.2525,0.1906,0.2461,0.1127,0.2322,0,0,0,0,0,0,0,0,0.0678,0.0352,0.0214,0.0182,0.024,0.0278,0.0555,0.0219,0.0235,0.0288,0.0379,0.0235,0.0246,0.0075,-0.0267,-0.0027,0.0513,0.0368,0.0155,0.0021,0.0043,0.023,0.0406,0.0422,0.024,0.0416,0.0635,0.2184,0.1965,0.0956,-0.0149,-0.0021,0.1959,0.2547,0,0,0,0.1671,0.3652,0.0625,-0.0262,-0.0171,0.0053,0.0021,0.0182,0.0149,0,0,0,0,0,0,0,0.0555,0.0016,0.0278,0.0267,0.0464,0.0422,0.0609,0.0593,-0.0144,-0.0731,-0.0149,0.0304,0.0192,0.0117,0.008,0.0166,0.0352,0.0475,0.04,0.0422,0.0304,0.1153,0.1361,0.078,-0.0352,-0.0037,0.1607,0.2515,0.0,0.0,0.0117,0.1287,0.3716,0.1586,-0.0272,-0.0331,-0.0069,-0.0048,0.0085,0.0294,0,0,0,0,0,0,0,0,0,0,0,0,0.0598,0.0833,0.095,0.024,-0.039,-0.0769,0.024,0.0139,0.0133,0.0117,0.0149,0.0262,0.039,0.0395,0,-0.0032,0.0694,0.0523,0.031,-0.0294,0,0,0,0,0,-0.0235,0.2093,0.3705,0.1799,-0.0352,-0.0561,-0.024,0.024,0.0032,0,0,0,0,0,0,0,0,0,0,0,0,0,0,0,0,-0.0251,0.0603,0,0,0.0085,0.0112,0.0112,0.0149,0.0219,0.0331,0.0384,0,0,0,0.04,0.0214,-0.0182,0,0,0,0,0,-0.0961,0.3081,0.3524,0.0998,-0.0924,-0.0817,-0.0139,0.063,0,0,0,0,0,0,0,0,0,0,0,0,0,0,0,0,0,0,0.1367,0.0742,0,0,0,0,0,0,0,0.0411,0,0,0,0,0,0,0,0,0,0,0,-0.1105,0.3385,0.2814,-0.0037,-0.1185,-0.0849,-0.0048,0,0,0,0,0,0,0,0,0,0,0,0,0,0,0,0,0,0,0,0,0.1479,-0.0384,0.0112,0.063,0,0,0,0,0,0,0,0,0,0,0,0,0,0,0,0,-0.0785,0.3011,0.2029,-0.0352,-0.1442,-0.0582,0,0,0,0,0,0,0,0,0,0,0,0,0,0,0,0,0,0,0,0,0,0,-0.0769,0.0219,0.1255,0.0,0.0123,0.0043,0,0,0,0,0,0,0,0,0,0,0,0,0,0,0.1655,0.1842,-0.0117,-0.1479,-0.0107,0,0,0,0,0,0,0,0,0,0,0,0,0,0,0,0,0,0,0,0,0,0,0,0,0,0,0.0246,0.0085,0,0,0,0,0,0,0,0,0,0,0,0,0,0,-0.0112,0.2205,0.0491,-0.1287,0.0117,0,0,0,0,0,0,0,0,0,0,0,0,0,0,0,0,0,0,0,0,0,0,0,0,0,0,0,0,0,0,0,0,0,0,0,0,0,0,0,0,0,0,-0.1014,0.2691,0.0977,-0.1287,0.0363,0,0,0,0,0,0,0,0,0,0,0,0,0,0,0,0,0,0,0,0,0,0,0,0,0,0,0,0,0,0,0,0,0,0,0,0,0,0,0,0,0,0,-0.118,0.2285,0.0593,-0.1356,0.031,0,0,0,0,0,0,0,0,0,0,0,0,0,0,0,0,0,0,0,0,0,0,0,0,0,0,0,0,0,0,0,0,0,0,0,0,0,0,0,0,0,0,0,0.1324,-0.0214,-0.0966,0.0497,0,0,0,0,0,0,0,0,0,0,0,0,0,0,0,0,0,0,0,0,0,0,0,0,0,0,0,0,0,0,0,0,0,0,0,0,0,0,0,0,0,0,0,0.0982,-0.0363,-0.0214,0.086,0,0,0,0,0,0,0,0,0,0,0,0,0,0,0,0,0,0,0,0,0,0,0,0,0,0,0,0,0,0,0,0,0,0,0,0,0,0,0,0,0,0,0,0,-0.0166,0.0139,0,0,0,0,0,0,0,0,0,0,0,0,0,0,0,0,0,0,0,0,0,0,0,0,0,0,0,0,0,0,0,0,0,0,0,0,0,0,0,0,0,0,0,0,0,0,0,0,0,0,0,0,0,0,0,0,0,0,0,0,0,0,0,0,0,0,0,0,0,0,0,0,0,0,0,0,0,0,0,0,0,0,0,0,0,0,0,0,0,0,0,0,0,0,0,0,0,0,0,0,0,0,0,0,0,0,0,0,0,0,0,0,0,0,0,0,0,0,0,0,0,0,0,0,0,0,0,0,0,0,0,0,0,0,0,0,0,0,0,0,0,0,0,0,0,0,0,0,0,0,0,0,0,0,0,0,0,0,0,0,0,0,0,0,0,0,0,0,0,0,0,0,0,0,0,0,0,0,0,0,0,0,0,0,0,0,0,0,0,0,0,0,0,0,0,0,0,0,0,0,0,0,0,0,0,0,0,0,0,0,0,0,0,0,0,0,0,0,0,0,0,0,0,0,0,0,0,0,0,0,0,0,0,0,0,0,0,0,0,0,0,0,0,0,0,0,0,0,0,0,0,0,0,0,0,0,0,0,0,0,0,0,0,0,0,0,0,0,0,0,0,0,0,0,0,0,0,0,0,0,0,0,0,0,0,0,0,0,0,0,0,0,0,0,0,0,0,0,0,0,0,0,0,0,0,0,0,0,0,0,0,0,0]}]],[[{"header":{"parameterUnit":"kt","parameterCategory":2,"dx":1,"dy":1,"la1":29.764190673828125,"la2":30.86408042907715,"lo1":-88.46762084960938,"lo2":-86.9344482421875,"nx":47,"ny":34,"refTime":"2022-10-12T00:00:00:Z","depth":"6","parameterNumber":2,"parameterNumberName":"U-component_of_CURRENTS"},"data":[-0.0224,-0.0214,0.0027,0.0432,0.0902,0.1233,0.1377,0.1356,0.1116,0.0667,0.0262,0.0059,-0.0091,-0.016,0.0027,0.0342,0.0593,0.0769,0.0918,0.0918,0.0737,0.0555,0.0438,0.0214,-0.0133,-0.0459,-0.055,-0.0176,0.0416,0.0459,0.0037,-0.0064,0.0069,0.0133,0.0096,-0.0112,-0.0443,-0.0731,-0.0908,-0.1052,-0.1223,-0.1367,-0.1431,-0.1426,-0.1351,-0.1217,-0.1078,-0.0267,-0.0497,-0.0486,-0.0192,0.0182,0.0571,0.0769,0.0705,0.0416,0.0101,-0.0043,-0.0117,-0.0176,0.0021,0.0384,0.0662,0.0828,0.0892,0.0876,0.0828,0.078,0.0721,0.0561,0.032,0.0043,-0.0288,-0.0614,-0.0758,-0.0406,0.0352,0.0614,0.0272,0.0187,0.0251,0.0256,0.0272,0.0096,-0.0128,-0.0256,-0.0374,-0.0534,-0.0683,-0.0774,-0.0812,-0.0844,-0.0881,-0.094,-0.0219,-0.0395,-0.0657,-0.0715,-0.0491,-0.024,-0.0085,-0.0069,-0.0133,-0.0155,-0.0128,-0.0069,0.0128,0.0459,0.0731,0.0886,0.0988,0.1046,0.1057,0.1041,0.1052,0.103,0.0828,0.0491,0.0166,-0.0016,-0.0123,-0.0347,-0.0513,-0.0368,0.0224,0.0609,0.0395,0.0256,0.0315,0.0411,0.0406,0.0299,0.0235,0.0123,-0.0037,-0.0198,-0.0315,-0.0379,-0.047,-0.0593,-0.0699,-0.0171,-0.0235,-0.0395,-0.0614,-0.0726,-0.0667,-0.0561,-0.0454,-0.032,-0.0149,0.0059,0.0336,0.0646,0.0849,0.0945,0.1009,0.1062,0.1121,0.1185,0.1233,0.1265,0.1297,0.1287,0.1196,0.0993,0.0844,0.0769,0.0614,0.039,0.0101,-0.0112,0.0096,0.04,0.0481,0.023,0.0214,0.0363,0.0299,0.0299,0.023,0.0166,0.0069,-0.0037,-0.0133,-0.023,-0.031,-0.0347,-0.0112,-0.0117,-0.0155,-0.024,-0.0342,-0.0384,-0.0326,-0.0176,0.0037,0.0288,0.0534,0.0753,0.0913,0.0988,0.1025,0.1052,0.1089,0.1143,0.1217,0.1281,0.1329,0.1377,0.1484,0.1612,0.1666,0.1564,0.1383,0.1223,0.1052,0.0838,0.0523,0.0224,0.0059,0.0278,0.0358,0.0432,0.0235,-0.0069,0.0064,0.0037,0.0075,0.0091,0.008,0.0053,0.0016,-0.0016,-0.0027,-0.0043,-0.0016,0.0011,0.0032,0.0064,0.0117,0.0203,0.032,0.0459,0.0593,0.0705,0.0801,0.0881,0.094,0.0993,0.103,0.1073,0.1127,0.1201,0.1271,0.1319,0.1367,0.1458,0.1612,0.1757,0.1783,0.166,0.1479,0.1319,0.1201,0.1025,0.0822,0.0619,0.0267,0.0283,0.0374,0.0246,0.0326,0.0101,-0.0128,-0.0032,0.0075,0.0187,0.0262,0.0294,0.0262,0.024,0.0011,0.0085,0.0144,0.0203,0.0262,0.0326,0.0395,0.0459,0.0518,0.0577,0.0635,0.0699,0.0774,0.0849,0.0913,0.0966,0.1014,0.1073,0.1148,0.1228,0.1308,0.1388,0.1479,0.1596,0.1709,0.1757,0.1725,0.1671,0.165,0.1564,0.1377,0.1159,0.0988,0.0806,0.0459,0.0331,0.0342,0.0123,0.0192,0.0379,0.0198,0.0053,0.0182,0.0342,0.0406,0.0368,0.0283,0.0,0.0128,0.0214,0.0272,0.0315,0.0358,0.0395,0.0432,0.0475,0.0518,0.0571,0.0635,0.0705,0.0769,0.0822,0.0881,0.094,0.1009,0.11,0.1212,0.1335,0.1458,0.1554,0.1634,0.1687,0.1709,0.1709,0.1725,0.1767,0.1789,0.1682,0.1436,0.1212,0.1036,0.0806,0.0459,0.0267,0.0272,0.016,-0.0032,0.0059,0.0299,0.0299,0.024,0.0224,0.0187,0.0117,-0.0133,0.0053,0.0192,0.0283,0.0336,0.0374,0.0406,0.0438,0.0475,0.0523,0.0577,0.0635,0.0683,0.0721,0.0763,0.0817,0.0892,0.0982,0.1095,0.1233,0.1377,0.1495,0.1586,0.1644,0.1682,0.1703,0.1735,0.1773,0.1799,0.1805,0.1741,0.1575,0.1367,0.118,0.1009,0.078,0.0427,0.0027,-0.0107,0.0043,0.0043,-0.0224,-0.0251,-0.0043,0.0032,0.0032,-0.0021,-0.0534,-0.0288,0.0005,0.023,0.0347,0.0416,0.0464,0.0491,0.0513,0.0545,0.0603,0.0662,0.0705,0.0731,0.0747,0.0806,0.0902,0.1025,0.1159,0.1287,0.1383,0.1452,0.1516,0.1586,0.1655,0.1725,0.1789,0.1821,0.1815,0.1783,0.1746,0.1655,0.1484,0.1297,0.1153,0.1057,0.0924,0.0673,0.032,-0.0133,-0.047,-0.032,-0.0192,-0.0651,-0.0694,-0.0283,-0.0203,-0.1009,-0.0838,-0.0443,-0.0069,0.0208,0.039,0.0443,0.0443,0.0459,0.0502,0.0577,0.0673,0.0721,0.0699,0.071,0.0796,0.094,0.1078,0.1201,0.1287,0.1335,0.1383,0.1452,0.1538,0.1618,0.1687,0.1725,0.173,0.1703,0.1682,0.1676,0.1655,0.1586,0.1468,0.134,0.1244,0.1169,0.1068,0.0934,0.0785,0.0545,-0.0021,-0.0347,-0.0384,-0.039,-0.0529,-0.0769,-0.11,-0.0966,-0.0817,-0.0614,-0.0507,-0.0694,-0.0913,-0.0566,-0.0123,0.0027,0.0107,0.0064,0.0091,0.0315,0.0545,0.0763,0.0945,0.1089,0.1196,0.1249,0.1281,0.1324,0.1377,0.1426,0.1452,0.1458,0.1442,0.1426,0.1436,0.1484,0.1548,0.1591,0.1602,0.157,0.1495,0.1393,0.1271,0.1121,0.0972,0.0833,0.0721,0.0561,0.0107,-0.0475,-0.0374,-0.0246,-0.0448,-0.0694,-0.0358,-0.0326,-0.0705,-0.1009,-0.1137,-0.0667,-0.0214,-0.0155,-0.0187,-0.0352,-0.0464,-0.0144,0.0518,0.0657,0.0774,0.0886,0.1009,0.1116,0.118,0.1217,0.1255,0.1271,0.1255,0.1244,0.1223,0.1196,0.1169,0.1175,0.1217,0.1276,0.1313,0.1324,0.1324,0.1303,0.1239,0.1159,0.1062,0.0918,0.0769,0.0651,0.0587,0.0523,0.0262,-0.0272,-0.0945,-0.1078,0,0,-0.0486,-0.1137,-0.1009,-0.1084,0.016,0.1436,0.1265,0.1052,0.0982,0.0988,0,0.0059,0.0304,0.0598,0.0785,0.094,0.1062,0.1137,0.1196,0.1292,0.1233,0.1068,0.1046,0.1052,0.1046,0.102,0.0956,0.0892,0.0854,0.0838,0.0801,0.0854,0.094,0.1004,0.1014,0.0961,0.0881,0.0747,0.0593,0.0491,0.0502,0.0502,0.0352,0.0048,-0.0288,-0.0998,-0.158,-0.1404,-0.008,0.0742,0,0,-0.0198,-0.0342,0.0972,0.2114,0.267,0.2285,0.1207,0,0,0,0,0,0,0,0,0.0278,0.0689,0.0881,0.0977,0.1046,0.1196,0.1159,0.1014,0.0977,0.0956,0.0918,0.0956,0.0977,0.0828,0.0699,0.0694,0.0753,0.0774,0.0726,0.063,0.0566,0.0582,0.0593,0.0518,0.0352,-0.1313,-0.1431,-0.1089,-0.0117,0.0833,0.1009,0.0603,0.0545,0.0678,0,0,0,-0.0288,0.1057,0.2621,0.2066,0.1628,0.1223,0.0801,0.0561,0.0368,0,0,0,0,0,0,0,0.0176,0.0566,0.0854,0.1025,0.1361,0.1452,0.1201,0.1057,0.0699,0.0395,0.0523,0.0742,0.078,0.0737,0.0651,0.0593,0.0603,0.0646,0.0646,-0.1431,-0.1068,-0.0598,0.0048,0.0432,0.0352,0.0315,0.0849,0.2296,0.3123,0.2814,0.2088,0.0577,0.1143,0.3145,0.2584,0.0801,0.0,0.0182,0.0133,-0.0133,0,0,0,0,0,0,0,0,0,0,0,0,0.0267,0.1014,0.1789,0.1815,0.1132,0.0737,0.055,0.0582,0.0598,0.0566,0.0523,0.0518,0.0571,0.0635,0,-0.0064,0.0107,0.0379,0.0368,0.0315,0,0,0,0,0,0.0208,0.0037,0.1297,0.2675,0.1297,-0.0288,-0.0454,-0.0149,-0.0016,0,0,0,0,0,0,0,0,0,0,0,0,0,0,0,0,0.1714,0.1271,0,0,0.0182,0.0198,0.0224,0.0283,0.04,0.0614,0.0742,0,0,0,0.0117,0.0262,0.0294,0,0,0,0,0,0.0091,0.0689,0.1687,0.1436,-0.0144,-0.0838,-0.078,-0.047,0,0,0,0,0,0,0,0,0,0,0,0,0,0,0,0,0,0,0.1479,0.2216,0,0,0,0,0,0,0,0.0171,0,0,0,0,0,0,0,0,0,0,0,0.0117,0.0924,0.1623,0.0796,-0.0208,-0.039,-0.0438,0,0,0,0,0,0,0,0,0,0,0,0,0,0,0,0,0,0,0,0,0.1308,0.2301,0.1532,0.1084,0,0,0,0,0,0,0,0,0,0,0,0,0,0,0,0,0.0133,0.1121,0.1853,0.086,0.016,0.0358,0,0,0,0,0,0,0,0,0,0,0,0,0,0,0,0,0,0,0,0,0,0,0.023,0.0945,0.1869,0.1644,0.0796,0.0715,0,0,0,0,0,0,0,0,0,0,0,0,0,0,0.1682,0.2301,0.1121,0.0246,0.0379,0,0,0,0,0,0,0,0,0,0,0,0,0,0,0,0,0,0,0,0,0,0,0,0,0,0,0.0037,0.0075,0,0,0,0,0,0,0,0,0,0,0,0,0,0,0.0918,0.1778,0.1004,0.0272,0.0262,0,0,0,0,0,0,0,0,0,0,0,0,0,0,0,0,0,0,0,0,0,0,0,0,0,0,0,0,0,0,0,0,0,0,0,0,0,0,0,0,0,0,0.016,0.1036,0.1393,0.0587,0.0128,0,0,0,0,0,0,0,0,0,0,0,0,0,0,0,0,0,0,0,0,0,0,0,0,0,0,0,0,0,0,0,0,0,0,0,0,0,0,0,0,0,0,0.0416,0.213,0.2792,0.1276,0.0326,0,0,0,0,0,0,0,0,0,0,0,0,0,0,0,0,0,0,0,0,0,0,0,0,0,0,0,0,0,0,0,0,0,0,0,0,0,0,0,0,0,0,0,0.1223,0.1991,0.0977,0.039,0,0,0,0,0,0,0,0,0,0,0,0,0,0,0,0,0,0,0,0,0,0,0,0,0,0,0,0,0,0,0,0,0,0,0,0,0,0,0,0,0,0,0,-0.0075,-0.0315,-0.0758,-0.1046,0,0,0,0,0,0,0,0,0,0,0,0,0,0,0,0,0,0,0,0,0,0,0,0,0,0,0,0,0,0,0,0,0,0,0,0,0,0,0,0,0,0,0,0,-0.0304,-0.0609,0,0,0,0,0,0,0,0,0,0,0,0,0,0,0,0,0,0,0,0,0,0,0,0,0,0,0,0,0,0,0,0,0,0,0,0,0,0,0,0,0,0,0,0,0,0,0,0,0,0,0,0,0,0,0,0,0,0,0,0,0,0,0,0,0,0,0,0,0,0,0,0,0,0,0,0,0,0,0,0,0,0,0,0,0,0,0,0,0,0,0,0,0,0,0,0,0,0,0,0,0,0,0,0,0,0,0,0,0,0,0,0,0,0,0,0,0,0,0,0,0,0,0,0,0,0,0,0,0,0,0,0,0,0,0,0,0,0,0,0,0,0,0,0,0,0,0,0,0,0,0,0,0,0,0,0,0,0,0,0,0,0,0,0,0,0,0,0,0,0,0,0,0,0,0,0,0,0,0,0,0,0,0,0,0,0,0,0,0,0,0,0,0,0,0,0,0,0,0,0,0,0,0,0,0,0,0,0,0,0,0,0,0,0,0,0,0,0,0,0,0,0,0,0,0,0,0,0,0,0,0,0,0,0,0,0,0,0,0,0,0,0,0,0,0,0,0,0,0,0,0,0,0,0,0,0,0,0,0,0,0,0,0,0,0,0,0,0,0,0,0,0,0,0,0,0,0,0,0,0,0,0,0,0,0,0,0,0,0,0,0,0,0,0,0,0,0,0,0,0,0,0,0,0,0,0,0,0,0,0,0,0,0]}],[{"header":{"parameterUnit":"kt","parameterCategory":2,"dx":1,"dy":1,"la1":29.764190673828125,"la2":30.86408042907715,"lo1":-88.46762084960938,"lo2":-86.9344482421875,"nx":47,"ny":34,"refTime":"2022-10-12T00:00:00:Z","depth":"6","parameterNumber":3,"parameterNumberName":"V-component_of_CURRENTS"},"data":[0.0833,0.0822,0.1116,0.1783,0.2392,0.2381,0.204,0.157,0.1319,0.158,0.1853,0.1879,0.1997,0.1933,0.1682,0.1564,0.1442,0.1292,0.1068,0.1014,0.1244,0.1014,0.0347,0.0395,0.0384,0.0149,-0.0149,-0.0432,-0.0545,-0.0555,-0.0358,-0.0352,-0.0619,-0.0929,-0.1191,-0.1399,-0.1463,-0.1442,-0.1377,-0.1281,-0.1233,-0.1153,-0.1073,-0.0961,-0.0876,-0.087,-0.0892,0.1004,0.0801,0.0945,0.1388,0.1922,0.2093,0.1965,0.1783,0.1783,0.1917,0.1922,0.197,0.1997,0.1623,0.1329,0.1287,0.1281,0.1217,0.1078,0.1068,0.1239,0.1078,0.0646,0.0603,0.0619,0.0406,-0.0144,-0.0561,-0.0561,-0.0603,-0.0571,-0.0432,-0.039,-0.0518,-0.0833,-0.1233,-0.1479,-0.1628,-0.1676,-0.1612,-0.1586,-0.1586,-0.1586,-0.1543,-0.1452,-0.1356,-0.1281,0.118,0.0982,0.0913,0.1153,0.158,0.1853,0.1911,0.1906,0.197,0.1917,0.1847,0.1869,0.1671,0.1228,0.1089,0.1121,0.118,0.1201,0.1127,0.1046,0.1084,0.11,0.102,0.0892,0.0763,0.0566,0.0112,-0.0635,-0.0918,-0.0924,-0.0614,-0.055,-0.0529,-0.0443,-0.0438,-0.0822,-0.103,-0.1335,-0.149,-0.1532,-0.1527,-0.1575,-0.1628,-0.1623,-0.1516,-0.1367,-0.1292,0.126,0.1191,0.1062,0.1073,0.1319,0.157,0.1714,0.1778,0.1767,0.1676,0.158,0.1479,0.1233,0.1009,0.0993,0.1036,0.1095,0.1137,0.1116,0.1025,0.0982,0.1068,0.1233,0.1191,0.0956,0.0614,0.0331,-0.0176,-0.0705,-0.1164,-0.0892,-0.0534,-0.0641,-0.0769,-0.0667,-0.0689,-0.0598,-0.0908,-0.1052,-0.118,-0.1191,-0.1196,-0.1265,-0.1308,-0.1276,-0.1191,-0.1143,0.1292,0.1276,0.1239,0.1201,0.1244,0.1345,0.1426,0.1468,0.1436,0.134,0.1244,0.1143,0.103,0.0972,0.0982,0.0993,0.1025,0.1057,0.1052,0.0977,0.0913,0.0966,0.1143,0.1239,0.1095,0.0753,0.0491,0.0246,-0.0112,-0.0683,-0.1014,-0.0641,-0.0582,-0.0817,-0.1084,-0.0886,-0.1004,-0.0876,-0.078,-0.0886,-0.0908,-0.0918,-0.0945,-0.1014,-0.1068,-0.1036,-0.1009,0.1303,0.1292,0.1292,0.1287,0.1287,0.1271,0.126,0.1244,0.1207,0.1143,0.1073,0.102,0.0993,0.0982,0.0982,0.0961,0.0961,0.0977,0.0972,0.0913,0.086,0.0865,0.0956,0.1062,0.1041,0.0865,0.0678,0.0539,0.0315,-0.0149,-0.0587,-0.0641,-0.0534,-0.0593,-0.0886,-0.1025,-0.1271,-0.1121,-0.1148,-0.0982,-0.0876,-0.0844,-0.0806,-0.0817,-0.0838,-0.0812,-0.0796,0.1271,0.1281,0.1297,0.1297,0.1287,0.1255,0.1217,0.1185,0.1148,0.11,0.1052,0.1014,0.0998,0.0988,0.0966,0.0929,0.0918,0.0913,0.0902,0.0854,0.0801,0.0785,0.0817,0.0886,0.0924,0.0897,0.0838,0.0753,0.0577,0.0246,-0.0182,-0.0416,-0.0374,-0.0443,-0.0555,-0.0812,-0.0908,-0.1095,-0.1164,-0.1121,-0.1319,-0.1164,-0.0918,-0.0726,-0.0619,-0.0577,-0.0518,0.118,0.1244,0.1297,0.1308,0.1303,0.1271,0.1239,0.1207,0.1169,0.1127,0.1078,0.1036,0.1004,0.0977,0.094,0.0897,0.0876,0.086,0.0833,0.0774,0.0721,0.0699,0.0731,0.0785,0.0849,0.0892,0.0886,0.0812,0.0678,0.0507,0.0149,-0.0123,-0.024,-0.0267,-0.0315,-0.0448,-0.0662,-0.0801,-0.0844,-0.1105,-0.1361,-0.1361,-0.1276,-0.0929,-0.0641,-0.0497,-0.0368,0.103,0.1164,0.1287,0.134,0.1356,0.1335,0.1303,0.1265,0.1217,0.1164,0.11,0.1052,0.1009,0.0966,0.0918,0.086,0.0828,0.0796,0.0742,0.0662,0.0593,0.0582,0.0635,0.0715,0.0801,0.086,0.0865,0.0785,0.0673,0.0593,0.0422,0.0166,-0.0048,-0.0139,-0.0139,-0.0149,-0.024,-0.0416,-0.0678,-0.0924,-0.1089,-0.1447,-0.1404,-0.1009,-0.0902,-0.0625,-0.0427,0.0902,0.0982,0.1164,0.1324,0.1388,0.1383,0.1361,0.1324,0.1265,0.1185,0.1111,0.1046,0.1004,0.0961,0.0908,0.0822,0.0763,0.0699,0.0614,0.0518,0.0454,0.047,0.0539,0.0625,0.0699,0.0758,0.078,0.0726,0.0657,0.0619,0.0539,0.0363,0.016,0.0,-0.0064,-0.0016,0.0053,-0.0027,-0.0198,-0.0513,-0.0876,-0.1217,-0.1372,-0.1324,-0.1014,-0.0529,-0.0432,0.0929,0.079,0.0902,0.1175,0.1265,0.1345,0.141,0.1367,0.1303,0.1201,0.11,0.103,0.1041,0.102,0.0908,0.0747,0.0651,0.0561,0.0459,0.0379,0.0352,0.0384,0.0443,0.0491,0.0539,0.0593,0.0635,0.0641,0.0619,0.0598,0.0561,0.0454,0.031,0.0149,0.0005,0.0,0.0123,0.0208,0.0107,-0.0187,-0.039,-0.0502,-0.0988,-0.1239,-0.11,-0.0796,-0.0667,0.1062,0.0828,0.0908,0.1052,0.1217,0.1532,0.1607,0.1527,0.1474,0.1324,0.1143,0.1137,0.1159,0.1111,0.0796,0.0587,0.0491,0.0411,0.0326,0.0272,0.0272,0.0315,0.0358,0.0374,0.0395,0.0443,0.0497,0.0518,0.0513,0.0497,0.0497,0.0438,0.0363,0.0246,0.0107,0.0048,0.016,0.0299,0.0251,0.0021,-0.0112,-0.0107,-0.0219,-0.0475,-0.0977,-0.0988,-0.0593,0.1004,0.0854,0.1767,0.1591,0.1586,0.1917,0.1703,0.1837,0.1671,0.1666,0.1458,0.1345,0.1217,0.1148,0.0593,0.0406,0.0315,0.0256,0.0198,0.0176,0.0187,0.024,0.0331,0.032,0.0315,0.0347,0.039,0.0395,0.0374,0.0331,0.0384,0.0384,0.0358,0.0267,0.0166,0.0112,0.0187,0.039,0.0379,0.016,-0.0027,0.0016,0.016,0.0021,-0.0304,-0.0454,-0.0117,0,0,0.291,0.2301,0.1676,0.1789,0.1484,0.1239,0.2216,0.1746,0.1447,0.1532,0,0.1062,0.0497,0.0326,0.023,0.0182,0.0133,0.0123,0.0139,0.0198,0.0502,0.0326,0.0251,0.0246,0.0294,0.031,0.0336,0.0208,0.0267,0.0342,0.0326,0.0246,0.0149,0.0021,0.0005,0.04,0.0497,0.0304,0.0059,-0.0011,0.0128,0.0283,0.0262,0.0075,0.0048,0.0192,0.0304,0.284,0.1874,0.2365,0,0,0.142,0.2061,0.1612,0.1207,0.1821,0.1068,0.1692,0,0,0,0,0,0,0,0,0.0662,0.0342,0.0208,0.0182,0.0246,0.0288,0.0555,0.0235,0.0246,0.0294,0.0384,0.024,0.0256,0.0091,-0.0246,-0.0016,0.0507,0.0374,0.016,0.0032,0.0053,0.024,0.0411,0.0427,0.0251,0.0395,0.0609,0.1826,0.1116,0.1148,-0.0497,-0.0059,0.1762,0.2194,0,0,0,0.1922,0.2493,0.0262,-0.0742,-0.0982,-0.0667,-0.0422,0.0112,0.0139,0,0,0,0,0,0,0,0.0545,0.0021,0.0283,0.0278,0.0459,0.0422,0.0561,0.0534,0.0267,-0.0368,-0.0107,0.031,0.0198,0.0123,0.0091,0.0176,0.0358,0.0481,0.0411,0.0406,0.0288,0.1046,0.0806,-0.008,-0.0715,-0.0117,0.1506,0.2274,0.0,0.0,0.0715,0.1869,0.268,0.055,-0.1511,-0.1554,-0.0934,-0.0411,0.0288,0.0278,0,0,0,0,0,0,0,0,0,0,0,0,0.0619,0.071,0.0545,0.0598,0.0598,-0.0427,0.024,0.0144,0.0139,0.0123,0.016,0.0267,0.0395,0.04,0,-0.0037,0.0667,0.0497,0.0288,-0.0315,0,0,0,0,0,0.1532,0.2024,0.2552,-0.0027,-0.142,-0.0934,-0.0582,-0.0251,0.0304,0,0,0,0,0,0,0,0,0,0,0,0,0,0,0,0,0.0747,0.1538,0,0,0.0091,0.0117,0.0117,0.0155,0.0224,0.0342,0.039,0,0,0,0.0395,0.0203,-0.0192,0,0,0,0,0,0.1191,0.2189,0.1821,-0.0774,-0.1025,-0.0368,-0.0149,-0.0497,0,0,0,0,0,0,0,0,0,0,0,0,0,0,0,0,0,0,0.252,0.1383,0,0,0,0,0,0,0,0.0416,0,0,0,0,0,0,0,0,0,0,0,0.0646,0.2178,0.0747,-0.1137,-0.0614,0.0214,0.0283,0,0,0,0,0,0,0,0,0,0,0,0,0,0,0,0,0,0,0,0,0.2766,-0.0523,-0.04,0.0379,0,0,0,0,0,0,0,0,0,0,0,0,0,0,0,0,0.0614,0.1628,-0.0053,-0.1319,-0.0438,0.0678,0,0,0,0,0,0,0,0,0,0,0,0,0,0,0,0,0,0,0,0,0,0,-0.1052,-0.0801,0.0758,0.0,0.0101,0.0027,0,0,0,0,0,0,0,0,0,0,0,0,0,0,0.1105,-0.0021,-0.1004,-0.0379,0.0934,0,0,0,0,0,0,0,0,0,0,0,0,0,0,0,0,0,0,0,0,0,0,0,0,0,0,0.0203,0.0053,0,0,0,0,0,0,0,0,0,0,0,0,0,0,0.0598,0.0513,-0.0507,-0.0577,0.0956,0,0,0,0,0,0,0,0,0,0,0,0,0,0,0,0,0,0,0,0,0,0,0,0,0,0,0,0,0,0,0,0,0,0,0,0,0,0,0,0,0,0,0.0149,0.0929,-0.0368,-0.0817,0.1025,0,0,0,0,0,0,0,0,0,0,0,0,0,0,0,0,0,0,0,0,0,0,0,0,0,0,0,0,0,0,0,0,0,0,0,0,0,0,0,0,0,0,0.0005,0.2082,-0.0048,-0.0582,0.1196,0,0,0,0,0,0,0,0,0,0,0,0,0,0,0,0,0,0,0,0,0,0,0,0,0,0,0,0,0,0,0,0,0,0,0,0,0,0,0,0,0,0,0,0.1634,-0.0005,0.0342,0.1281,0,0,0,0,0,0,0,0,0,0,0,0,0,0,0,0,0,0,0,0,0,0,0,0,0,0,0,0,0,0,0,0,0,0,0,0,0,0,0,0,0,0,0,0.0214,-0.0481,0.1185,0.1265,0,0,0,0,0,0,0,0,0,0,0,0,0,0,0,0,0,0,0,0,0,0,0,0,0,0,0,0,0,0,0,0,0,0,0,0,0,0,0,0,0,0,0,0,-0.055,0.1415,0,0,0,0,0,0,0,0,0,0,0,0,0,0,0,0,0,0,0,0,0,0,0,0,0,0,0,0,0,0,0,0,0,0,0,0,0,0,0,0,0,0,0,0,0,0,0,0,0,0,0,0,0,0,0,0,0,0,0,0,0,0,0,0,0,0,0,0,0,0,0,0,0,0,0,0,0,0,0,0,0,0,0,0,0,0,0,0,0,0,0,0,0,0,0,0,0,0,0,0,0,0,0,0,0,0,0,0,0,0,0,0,0,0,0,0,0,0,0,0,0,0,0,0,0,0,0,0,0,0,0,0,0,0,0,0,0,0,0,0,0,0,0,0,0,0,0,0,0,0,0,0,0,0,0,0,0,0,0,0,0,0,0,0,0,0,0,0,0,0,0,0,0,0,0,0,0,0,0,0,0,0,0,0,0,0,0,0,0,0,0,0,0,0,0,0,0,0,0,0,0,0,0,0,0,0,0,0,0,0,0,0,0,0,0,0,0,0,0,0,0,0,0,0,0,0,0,0,0,0,0,0,0,0,0,0,0,0,0,0,0,0,0,0,0,0,0,0,0,0,0,0,0,0,0,0,0,0,0,0,0,0,0,0,0,0,0,0,0,0,0,0,0,0,0,0,0,0,0,0,0,0,0,0,0,0,0,0,0,0,0,0,0,0,0,0,0,0,0,0,0,0,0,0,0,0,0,0,0,0,0,0,0]}]],[[{"header":{"parameterUnit":"kt","parameterCategory":2,"dx":1,"dy":1,"la1":29.764190673828125,"la2":30.86408042907715,"lo1":-88.46762084960938,"lo2":-86.9344482421875,"nx":47,"ny":34,"refTime":"2022-10-12T00:00:00:Z","depth":"8","parameterNumber":2,"parameterNumberName":"U-component_of_CURRENTS"},"data":[-0.0203,-0.0187,0.0048,0.0459,0.0929,0.1255,0.1404,0.1383,0.1132,0.0689,0.0283,0.008,-0.0069,-0.0133,0.0053,0.0368,0.0614,0.079,0.0934,0.0934,0.0747,0.0571,0.0443,0.0219,-0.0117,-0.0438,-0.0534,-0.0155,0.0443,0.0486,0.0064,-0.0043,0.0096,0.016,0.0117,-0.0091,-0.0422,-0.071,-0.0886,-0.1036,-0.1207,-0.1351,-0.1415,-0.141,-0.134,-0.1201,-0.1062,-0.0251,-0.0475,-0.0464,-0.0171,0.0203,0.0593,0.079,0.0721,0.0438,0.0123,-0.0016,-0.0096,-0.0149,0.0048,0.0406,0.0683,0.0849,0.0908,0.0892,0.0844,0.0801,0.0737,0.0571,0.0326,0.0059,-0.0272,-0.0598,-0.0747,-0.039,0.0368,0.0635,0.0294,0.0208,0.0267,0.0272,0.0288,0.0112,-0.0107,-0.0235,-0.0358,-0.0518,-0.0667,-0.0758,-0.0801,-0.0828,-0.087,-0.0924,-0.0203,-0.0379,-0.0635,-0.0694,-0.047,-0.0214,-0.0064,-0.0048,-0.0107,-0.0133,-0.0101,-0.0043,0.0155,0.0481,0.0753,0.0908,0.1004,0.1062,0.1073,0.1052,0.1068,0.1046,0.0844,0.0502,0.0187,0.0005,-0.0101,-0.0336,-0.0502,-0.0352,0.024,0.0635,0.0416,0.0278,0.0336,0.0432,0.0422,0.032,0.0251,0.0139,-0.0021,-0.0182,-0.0299,-0.0363,-0.0454,-0.0577,-0.0683,-0.0149,-0.0214,-0.0379,-0.0598,-0.0705,-0.0646,-0.0534,-0.0432,-0.0294,-0.0123,0.008,0.0358,0.0667,0.087,0.0966,0.1025,0.1078,0.1137,0.1201,0.1244,0.1281,0.1308,0.1303,0.1212,0.1014,0.0865,0.079,0.063,0.04,0.0107,-0.0107,0.0112,0.0422,0.0502,0.0251,0.023,0.0379,0.032,0.032,0.0246,0.0182,0.0085,-0.0021,-0.0117,-0.0214,-0.0294,-0.0331,-0.0096,-0.0101,-0.0139,-0.0224,-0.0326,-0.0363,-0.0304,-0.0155,0.0059,0.031,0.055,0.0774,0.0929,0.1009,0.1041,0.1073,0.1105,0.1159,0.1233,0.1297,0.134,0.1388,0.1495,0.1623,0.1682,0.158,0.1404,0.1239,0.1062,0.0844,0.0529,0.0235,0.0075,0.0299,0.0379,0.0454,0.0251,-0.0048,0.008,0.0053,0.0091,0.0107,0.0096,0.0069,0.0032,0.0,-0.0011,-0.0021,0.0,0.0027,0.0053,0.008,0.0133,0.0224,0.0342,0.0481,0.0609,0.0726,0.0822,0.0897,0.0961,0.1009,0.1052,0.1089,0.1143,0.1217,0.1287,0.1335,0.1377,0.1468,0.1623,0.1773,0.1799,0.1676,0.149,0.1324,0.1207,0.103,0.0822,0.0625,0.0283,0.0304,0.0395,0.0262,0.0347,0.0123,-0.0107,-0.0016,0.0091,0.0203,0.0278,0.031,0.0278,0.0256,0.0027,0.0107,0.0166,0.0219,0.0278,0.0347,0.0411,0.0475,0.0539,0.0598,0.0651,0.0715,0.079,0.087,0.0934,0.0982,0.103,0.1095,0.1164,0.1244,0.1319,0.1399,0.149,0.1607,0.1719,0.1773,0.1741,0.1682,0.1655,0.157,0.1377,0.1164,0.0993,0.0812,0.047,0.0347,0.0358,0.0144,0.0214,0.0395,0.0219,0.0075,0.0198,0.0358,0.0416,0.0384,0.0299,0.0016,0.0144,0.023,0.0288,0.0336,0.0374,0.0416,0.0454,0.0491,0.0539,0.0593,0.0657,0.0726,0.0785,0.0844,0.0897,0.0956,0.1025,0.1111,0.1223,0.1351,0.1468,0.1564,0.1644,0.1698,0.1719,0.1725,0.1735,0.1773,0.1794,0.1682,0.1436,0.1212,0.1036,0.0812,0.047,0.0283,0.0288,0.0176,-0.0016,0.0075,0.0315,0.0315,0.0256,0.0235,0.0198,0.0128,-0.0123,0.0069,0.0208,0.0299,0.0352,0.0395,0.0427,0.0454,0.0497,0.0539,0.0598,0.0651,0.0699,0.0737,0.078,0.0833,0.0908,0.0998,0.1111,0.1244,0.1383,0.1506,0.1596,0.1655,0.1692,0.1714,0.1746,0.1778,0.1805,0.181,0.1746,0.1575,0.1367,0.118,0.1014,0.0785,0.0432,0.0037,-0.0091,0.0059,0.0059,-0.0208,-0.023,-0.0027,0.0048,0.0048,-0.0005,-0.0518,-0.0272,0.0021,0.0246,0.0368,0.0438,0.0481,0.0507,0.0529,0.0566,0.0619,0.0678,0.0721,0.0747,0.0763,0.0817,0.0913,0.1036,0.1164,0.1292,0.1388,0.1463,0.1527,0.1596,0.1666,0.1735,0.1794,0.1826,0.1821,0.1794,0.1751,0.1655,0.1484,0.1297,0.1153,0.1062,0.0929,0.0683,0.0331,-0.0123,-0.0454,-0.0304,-0.0176,-0.063,-0.0678,-0.0267,-0.0187,-0.0988,-0.0822,-0.0432,-0.0059,0.0219,0.04,0.0454,0.0454,0.047,0.0518,0.0593,0.0683,0.0726,0.071,0.0721,0.0806,0.0945,0.1084,0.1207,0.1292,0.134,0.1393,0.1458,0.1543,0.1623,0.1692,0.173,0.1735,0.1709,0.1692,0.1687,0.166,0.1591,0.1468,0.134,0.1249,0.1175,0.1073,0.0945,0.079,0.055,-0.0011,-0.0326,-0.0363,-0.0374,-0.0513,-0.0753,-0.0844,-0.0726,-0.0721,-0.0609,-0.0491,-0.0614,-0.0689,-0.0347,-0.0043,0.0048,0.0139,0.0235,0.0358,0.0422,0.0555,0.0769,0.095,0.1095,0.1196,0.1255,0.1287,0.1329,0.1383,0.1426,0.1458,0.1463,0.1447,0.1431,0.1442,0.149,0.1554,0.1602,0.1607,0.1575,0.15,0.1393,0.1271,0.1127,0.0977,0.0838,0.0726,0.0561,0.0117,-0.0459,-0.0358,-0.023,-0.0432,-0.0011,0.0416,0.023,-0.0513,-0.0689,-0.0352,0.0283,0.0705,0.0267,-0.0149,-0.0288,-0.016,0.0379,0.071,0.0646,0.0785,0.0897,0.1014,0.1116,0.118,0.1217,0.1255,0.1265,0.1255,0.1244,0.1223,0.1196,0.1175,0.118,0.1223,0.1281,0.1319,0.1329,0.1329,0.1308,0.1239,0.1159,0.1062,0.0924,0.0774,0.0651,0.0593,0.0534,0.0272,-0.0267,-0.0929,-0.1062,0,0,-0.0427,-0.0924,-0.0534,0.0278,0.1265,0.1596,0.0721,0.0625,0.0726,0.0758,0,0.0048,0.0304,0.0614,0.0796,0.0945,0.1062,0.1127,0.1185,0.1281,0.1217,0.1062,0.1041,0.1046,0.1041,0.1014,0.0961,0.0902,0.087,0.0854,0.0828,0.0876,0.0961,0.1009,0.1014,0.0961,0.0886,0.0747,0.0598,0.0497,0.0507,0.0513,0.0363,0.0059,-0.0278,-0.0929,-0.1458,-0.1228,-0.0753,-0.0822,0,0,-0.0294,-0.0011,0.0982,0.1388,0.2061,0.1879,0.1014,0,0,0,0,0,0,0,0,0.0283,0.0689,0.0881,0.0961,0.1036,0.1185,0.1148,0.1014,0.0988,0.0977,0.094,0.0982,0.102,0.0854,0.0699,0.0694,0.0758,0.078,0.0731,0.0635,0.0571,0.0587,0.0603,0.0529,0.0368,-0.1228,-0.1335,-0.078,-0.0379,0.031,0.1046,0.0219,-0.0758,-0.1041,0,0,0,-0.039,0.0523,0.1692,0.1367,0.1255,0.1014,0.0363,0.0182,0.0342,0,0,0,0,0,0,0,0.0187,0.0561,0.0844,0.1014,0.1351,0.1628,0.1602,0.1628,0.1367,0.0721,0.0582,0.0753,0.079,0.0742,0.0651,0.0593,0.0614,0.0657,0.0662,-0.1335,-0.0998,-0.0416,0.0192,0.0625,0.0678,0.0358,0.0667,0.2007,0.2776,0.2488,0.1612,-0.0016,0.0267,0.1532,0.1506,0.1244,0.0683,-0.0053,-0.0304,-0.0133,0,0,0,0,0,0,0,0,0,0,0,0,0.0267,0.0715,0.078,0.04,0.0304,0.0555,0.0555,0.0582,0.0603,0.0571,0.0529,0.0523,0.0582,0.0646,0,-0.0059,0.0117,0.0384,0.0427,0.0427,0,0,0,0,0,-0.031,-0.0774,0.0053,0.1073,0.1191,0.0844,0.0048,-0.0395,-0.0427,0,0,0,0,0,0,0,0,0,0,0,0,0,0,0,0,0.0155,-0.0288,0,0,0.0187,0.0203,0.0235,0.0288,0.0406,0.0619,0.0747,0,0,0,0.0123,0.0272,0.0299,0,0,0,0,0,-0.0518,-0.0683,0.0037,0.0689,0.0806,0.008,-0.0561,-0.0395,0,0,0,0,0,0,0,0,0,0,0,0,0,0,0,0,0,0,0.0235,0.095,0,0,0,0,0,0,0,0.0176,0,0,0,0,0,0,0,0,0,0,0,-0.0571,-0.032,0.0459,0.0715,0.0502,-0.0278,-0.0566,0,0,0,0,0,0,0,0,0,0,0,0,0,0,0,0,0,0,0,0,0.0662,0.1335,0.103,0.0705,0,0,0,0,0,0,0,0,0,0,0,0,0,0,0,0,-0.0422,0.0123,0.087,0.078,0.0443,-0.0021,0,0,0,0,0,0,0,0,0,0,0,0,0,0,0,0,0,0,0,0,0,0,0.0529,0.079,0.0812,0.0849,0.0641,0.0662,0,0,0,0,0,0,0,0,0,0,0,0,0,0,0.0577,0.0902,0.071,0.0539,0.0262,0,0,0,0,0,0,0,0,0,0,0,0,0,0,0,0,0,0,0,0,0,0,0,0,0,0,0.0043,0.0085,0,0,0,0,0,0,0,0,0,0,0,0,0,0,0.0192,0.0454,0.0641,0.0561,0.0358,0,0,0,0,0,0,0,0,0,0,0,0,0,0,0,0,0,0,0,0,0,0,0,0,0,0,0,0,0,0,0,0,0,0,0,0,0,0,0,0,0,0,0.0246,0.0539,0.0555,0.039,0.0267,0,0,0,0,0,0,0,0,0,0,0,0,0,0,0,0,0,0,0,0,0,0,0,0,0,0,0,0,0,0,0,0,0,0,0,0,0,0,0,0,0,0,0.032,0.0609,0.0374,0.0166,0.0166,0,0,0,0,0,0,0,0,0,0,0,0,0,0,0,0,0,0,0,0,0,0,0,0,0,0,0,0,0,0,0,0,0,0,0,0,0,0,0,0,0,0,0,0.0059,0.0251,0.0096,-0.0192,0,0,0,0,0,0,0,0,0,0,0,0,0,0,0,0,0,0,0,0,0,0,0,0,0,0,0,0,0,0,0,0,0,0,0,0,0,0,0,0,0,0,0,0.0208,-0.0192,-0.079,-0.078,0,0,0,0,0,0,0,0,0,0,0,0,0,0,0,0,0,0,0,0,0,0,0,0,0,0,0,0,0,0,0,0,0,0,0,0,0,0,0,0,0,0,0,0,-0.0272,-0.0545,0,0,0,0,0,0,0,0,0,0,0,0,0,0,0,0,0,0,0,0,0,0,0,0,0,0,0,0,0,0,0,0,0,0,0,0,0,0,0,0,0,0,0,0,0,0,0,0,0,0,0,0,0,0,0,0,0,0,0,0,0,0,0,0,0,0,0,0,0,0,0,0,0,0,0,0,0,0,0,0,0,0,0,0,0,0,0,0,0,0,0,0,0,0,0,0,0,0,0,0,0,0,0,0,0,0,0,0,0,0,0,0,0,0,0,0,0,0,0,0,0,0,0,0,0,0,0,0,0,0,0,0,0,0,0,0,0,0,0,0,0,0,0,0,0,0,0,0,0,0,0,0,0,0,0,0,0,0,0,0,0,0,0,0,0,0,0,0,0,0,0,0,0,0,0,0,0,0,0,0,0,0,0,0,0,0,0,0,0,0,0,0,0,0,0,0,0,0,0,0,0,0,0,0,0,0,0,0,0,0,0,0,0,0,0,0,0,0,0,0,0,0,0,0,0,0,0,0,0,0,0,0,0,0,0,0,0,0,0,0,0,0,0,0,0,0,0,0,0,0,0,0,0,0,0,0,0,0,0,0,0,0,0,0,0,0,0,0,0,0,0,0,0,0,0,0,0,0,0,0,0,0,0,0,0,0,0,0,0,0,0,0,0,0,0,0,0,0,0,0,0,0,0,0,0,0,0,0,0,0,0,0,0]}],[{"header":{"parameterUnit":"kt","parameterCategory":2,"dx":1,"dy":1,"la1":29.764190673828125,"la2":30.86408042907715,"lo1":-88.46762084960938,"lo2":-86.9344482421875,"nx":47,"ny":34,"refTime":"2022-10-12T00:00:00:Z","depth":"8","parameterNumber":3,"parameterNumberName":"V-component_of_CURRENTS"},"data":[0.0822,0.0812,0.11,0.1767,0.2376,0.2365,0.2024,0.1559,0.1303,0.157,0.1842,0.1869,0.1991,0.1927,0.1676,0.1559,0.1442,0.1292,0.1062,0.1009,0.1239,0.1014,0.0352,0.04,0.039,0.0149,-0.0149,-0.0438,-0.055,-0.0561,-0.0363,-0.0363,-0.063,-0.094,-0.1201,-0.141,-0.1474,-0.1452,-0.1388,-0.1292,-0.1244,-0.1164,-0.1084,-0.0972,-0.0886,-0.0876,-0.0897,0.0998,0.079,0.0929,0.1377,0.1911,0.2082,0.1949,0.1773,0.1773,0.1911,0.1917,0.1965,0.1986,0.1618,0.1324,0.1281,0.1276,0.1212,0.1073,0.1068,0.1233,0.1078,0.0646,0.0614,0.063,0.0411,-0.0133,-0.0555,-0.0555,-0.0609,-0.0582,-0.0443,-0.0395,-0.0523,-0.0844,-0.1244,-0.149,-0.1639,-0.1687,-0.1623,-0.1596,-0.1596,-0.1596,-0.1548,-0.1463,-0.1361,-0.1287,0.1169,0.0972,0.0902,0.1143,0.1564,0.1837,0.1901,0.1895,0.1959,0.1906,0.1842,0.1858,0.1666,0.1217,0.1084,0.1111,0.1169,0.1191,0.1121,0.1041,0.1078,0.1095,0.102,0.0897,0.0774,0.0577,0.0123,-0.0619,-0.0902,-0.0918,-0.0619,-0.0561,-0.0539,-0.0448,-0.0443,-0.0833,-0.1036,-0.1345,-0.1495,-0.1538,-0.1538,-0.158,-0.1634,-0.1628,-0.1522,-0.1372,-0.1297,0.1249,0.118,0.1052,0.1062,0.1308,0.1559,0.1698,0.1767,0.1762,0.1666,0.157,0.1474,0.1223,0.0998,0.0982,0.1025,0.1084,0.1127,0.1111,0.102,0.0977,0.1068,0.1228,0.1191,0.0956,0.0619,0.0342,-0.0166,-0.0694,-0.1148,-0.0886,-0.0539,-0.0651,-0.0774,-0.0673,-0.0694,-0.0603,-0.0913,-0.1052,-0.1185,-0.1191,-0.1201,-0.1271,-0.1313,-0.1276,-0.1191,-0.1143,0.1276,0.1265,0.1228,0.1191,0.1233,0.1335,0.1415,0.1458,0.1426,0.1329,0.1233,0.1132,0.102,0.0961,0.0966,0.0982,0.1014,0.1046,0.1041,0.0972,0.0908,0.0961,0.1137,0.1233,0.1095,0.0753,0.0491,0.0246,-0.0107,-0.0667,-0.0998,-0.063,-0.0582,-0.0828,-0.1089,-0.0892,-0.1009,-0.0876,-0.078,-0.0886,-0.0908,-0.0918,-0.0945,-0.1014,-0.1068,-0.1036,-0.1009,0.1287,0.1281,0.1281,0.1276,0.1276,0.126,0.1249,0.1233,0.1191,0.1132,0.1062,0.1009,0.0982,0.0977,0.0972,0.095,0.0956,0.0966,0.0961,0.0908,0.0854,0.086,0.095,0.1057,0.1036,0.0865,0.0678,0.0539,0.032,-0.0144,-0.0571,-0.063,-0.0529,-0.0587,-0.0892,-0.103,-0.1276,-0.1127,-0.1153,-0.0982,-0.0876,-0.0838,-0.0806,-0.0817,-0.0833,-0.0812,-0.0796,0.1255,0.1265,0.1281,0.1281,0.1271,0.1239,0.1207,0.1175,0.1137,0.1089,0.1041,0.1009,0.0988,0.0977,0.0956,0.0924,0.0908,0.0908,0.0892,0.0844,0.0796,0.078,0.0812,0.0881,0.0924,0.0892,0.0833,0.0747,0.0577,0.0251,-0.0176,-0.0406,-0.0368,-0.0438,-0.0555,-0.0817,-0.0913,-0.11,-0.1169,-0.1127,-0.1319,-0.1169,-0.0918,-0.0726,-0.0614,-0.0577,-0.0518,0.1164,0.1228,0.1281,0.1292,0.1287,0.126,0.1228,0.1196,0.1159,0.1116,0.1068,0.103,0.0998,0.0966,0.0934,0.0892,0.0865,0.0854,0.0822,0.0763,0.071,0.0689,0.0721,0.078,0.0844,0.0881,0.0881,0.0801,0.0673,0.0502,0.0155,-0.0112,-0.0235,-0.0262,-0.031,-0.0448,-0.0662,-0.0806,-0.0854,-0.1116,-0.1367,-0.1367,-0.1281,-0.0934,-0.0641,-0.0497,-0.0368,0.103,0.1153,0.1276,0.1329,0.1345,0.1324,0.1292,0.1255,0.1207,0.1153,0.1095,0.1041,0.0998,0.0956,0.0908,0.0854,0.0817,0.0785,0.0731,0.0646,0.0577,0.0566,0.0625,0.0705,0.0785,0.0849,0.0854,0.0774,0.0662,0.0587,0.0416,0.0166,-0.0043,-0.0133,-0.0133,-0.0144,-0.0235,-0.0416,-0.0678,-0.0929,-0.11,-0.1458,-0.1415,-0.1014,-0.0908,-0.063,-0.0427,0.0902,0.0982,0.1159,0.1313,0.1372,0.1367,0.1345,0.1308,0.1255,0.1175,0.11,0.1036,0.0993,0.095,0.0897,0.0812,0.0747,0.0683,0.0598,0.0497,0.0438,0.0454,0.0523,0.0609,0.0683,0.0747,0.0763,0.0715,0.0641,0.0609,0.0529,0.0358,0.016,0.0005,-0.0059,-0.0011,0.0059,-0.0021,-0.0192,-0.0507,-0.0876,-0.1223,-0.1383,-0.1329,-0.102,-0.0529,-0.0432,0.0934,0.0796,0.0908,0.1169,0.1255,0.1329,0.1393,0.1356,0.1292,0.1191,0.1089,0.102,0.103,0.1009,0.0897,0.0731,0.0635,0.0545,0.0443,0.0363,0.0342,0.0374,0.0427,0.0481,0.0529,0.0582,0.0625,0.063,0.0609,0.0587,0.0555,0.0443,0.0304,0.0149,0.0016,0.0005,0.0128,0.0214,0.0112,-0.0176,-0.0384,-0.0497,-0.0993,-0.1244,-0.1105,-0.0806,-0.0667,0.087,0.0678,0.0945,0.1057,0.1207,0.15,0.1554,0.1436,0.141,0.1313,0.1132,0.1105,0.1073,0.1062,0.0785,0.0571,0.047,0.0395,0.0315,0.0267,0.0267,0.031,0.0352,0.0363,0.039,0.0443,0.0491,0.0518,0.0507,0.0491,0.0491,0.0432,0.0358,0.0246,0.0112,0.0059,0.0166,0.0304,0.0251,0.0027,-0.0107,-0.0101,-0.0219,-0.0475,-0.0982,-0.0998,-0.0603,0.0539,0.0358,0.1805,0.149,0.1356,0.1479,0.1372,0.1516,0.1863,0.1644,0.1415,0.1057,0.0929,0.102,0.0582,0.039,0.0299,0.0246,0.0192,0.0171,0.0182,0.0235,0.0331,0.0315,0.0315,0.0352,0.0395,0.04,0.0374,0.0331,0.0384,0.039,0.0358,0.0272,0.0171,0.0117,0.0192,0.0395,0.0379,0.016,-0.0027,0.0016,0.016,0.0027,-0.0299,-0.0448,-0.0128,0,0,0.2173,0.118,0.0539,0.0881,0.0625,0.071,0.0924,0.0881,0.1105,0.1148,0,0.0982,0.0481,0.0315,0.0224,0.0176,0.0133,0.0117,0.0139,0.0192,0.0491,0.032,0.0251,0.0251,0.0299,0.032,0.0342,0.0224,0.0278,0.0352,0.0336,0.0256,0.0166,0.0037,0.0016,0.04,0.0497,0.0304,0.0064,0.0,0.0133,0.0288,0.0272,0.0085,0.0059,0.0182,0.0283,0.2061,0.1153,0.1127,0,0,0.1431,0.0758,0.0758,0.0918,0.1463,0.0966,0.1511,0,0,0,0,0,0,0,0,0.0635,0.0331,0.0203,0.0187,0.0251,0.0294,0.0555,0.0256,0.0262,0.0304,0.0395,0.0251,0.0278,0.0144,-0.0219,-0.0005,0.0507,0.0374,0.0171,0.0048,0.0064,0.0251,0.0416,0.0432,0.0267,0.0368,0.0577,0.1292,0.0454,0.1036,-0.0021,-0.0043,0.1255,0.1479,0,0,0,0.1644,0.1949,0.0288,0.0027,-0.0155,-0.0059,-0.0021,-0.0278,0.0133,0,0,0,0,0,0,0,0.0534,0.0032,0.0315,0.0288,0.0448,0.0224,0.0411,0.0486,0.0561,0.032,0.0091,0.031,0.0208,0.0133,0.0101,0.0187,0.0368,0.0486,0.0416,0.0379,0.0272,0.0828,0.0262,0.0203,-0.0278,-0.0085,0.1196,0.1901,0.0,0.0,0.0614,0.1351,0.1767,0.0518,-0.0107,-0.0219,0.0021,0.0107,-0.008,0.0262,0,0,0,0,0,0,0,0,0,0,0,0,0.0571,0.0304,0.0561,0.0934,0.103,0.0347,0.0246,0.0149,0.0144,0.0133,0.0171,0.0278,0.0406,0.0406,0,-0.0037,0.0635,0.0481,-0.0011,-0.0358,0,0,0,0,0,0.0988,0.1057,0.134,0.0336,-0.0091,-0.0005,-0.0016,-0.0037,0.031,0,0,0,0,0,0,0,0,0,0,0,0,0,0,0,0,0.0966,0.0977,0,0,0.0096,0.0123,0.0123,0.016,0.0235,0.0347,0.0395,0,0,0,0.039,0.0192,-0.0198,0,0,0,0,0,0.0614,0.0886,0.0699,0.0144,0.0101,0.0117,-0.0037,-0.0326,0,0,0,0,0,0,0,0,0,0,0,0,0,0,0,0,0,0,0.1308,0.0769,0,0,0,0,0,0,0,0.0416,0,0,0,0,0,0,0,0,0,0,0,0.0657,0.1185,0.0395,0.0123,0.024,0.0272,0.0112,0,0,0,0,0,0,0,0,0,0,0,0,0,0,0,0,0,0,0,0,0.1538,0.0395,0.0438,0.0416,0,0,0,0,0,0,0,0,0,0,0,0,0,0,0,0,0.0785,0.1297,0.0513,0.0299,0.0411,0.0571,0,0,0,0,0,0,0,0,0,0,0,0,0,0,0,0,0,0,0,0,0,0,0.079,0.0876,0.0833,0.0,0.008,0.0011,0,0,0,0,0,0,0,0,0,0,0,0,0,0,0.1479,0.0892,0.0614,0.0486,0.0731,0,0,0,0,0,0,0,0,0,0,0,0,0,0,0,0,0,0,0,0,0,0,0,0,0,0,0.016,0.0027,0,0,0,0,0,0,0,0,0,0,0,0,0,0,0.1821,0.1356,0.0934,0.0641,0.0731,0,0,0,0,0,0,0,0,0,0,0,0,0,0,0,0,0,0,0,0,0,0,0,0,0,0,0,0,0,0,0,0,0,0,0,0,0,0,0,0,0,0,0.1831,0.141,0.1078,0.0774,0.0694,0,0,0,0,0,0,0,0,0,0,0,0,0,0,0,0,0,0,0,0,0,0,0,0,0,0,0,0,0,0,0,0,0,0,0,0,0,0,0,0,0,0,0.1794,0.1356,0.1068,0.0892,0.0731,0,0,0,0,0,0,0,0,0,0,0,0,0,0,0,0,0,0,0,0,0,0,0,0,0,0,0,0,0,0,0,0,0,0,0,0,0,0,0,0,0,0,0,0.0924,0.1148,0.0902,0.0689,0,0,0,0,0,0,0,0,0,0,0,0,0,0,0,0,0,0,0,0,0,0,0,0,0,0,0,0,0,0,0,0,0,0,0,0,0,0,0,0,0,0,0,0.0395,0.039,0.0614,0.0587,0,0,0,0,0,0,0,0,0,0,0,0,0,0,0,0,0,0,0,0,0,0,0,0,0,0,0,0,0,0,0,0,0,0,0,0,0,0,0,0,0,0,0,0,-0.047,0.0448,0,0,0,0,0,0,0,0,0,0,0,0,0,0,0,0,0,0,0,0,0,0,0,0,0,0,0,0,0,0,0,0,0,0,0,0,0,0,0,0,0,0,0,0,0,0,0,0,0,0,0,0,0,0,0,0,0,0,0,0,0,0,0,0,0,0,0,0,0,0,0,0,0,0,0,0,0,0,0,0,0,0,0,0,0,0,0,0,0,0,0,0,0,0,0,0,0,0,0,0,0,0,0,0,0,0,0,0,0,0,0,0,0,0,0,0,0,0,0,0,0,0,0,0,0,0,0,0,0,0,0,0,0,0,0,0,0,0,0,0,0,0,0,0,0,0,0,0,0,0,0,0,0,0,0,0,0,0,0,0,0,0,0,0,0,0,0,0,0,0,0,0,0,0,0,0,0,0,0,0,0,0,0,0,0,0,0,0,0,0,0,0,0,0,0,0,0,0,0,0,0,0,0,0,0,0,0,0,0,0,0,0,0,0,0,0,0,0,0,0,0,0,0,0,0,0,0,0,0,0,0,0,0,0,0,0,0,0,0,0,0,0,0,0,0,0,0,0,0,0,0,0,0,0,0,0,0,0,0,0,0,0,0,0,0,0,0,0,0,0,0,0,0,0,0,0,0,0,0,0,0,0,0,0,0,0,0,0,0,0,0,0,0,0,0,0,0,0,0,0,0,0,0,0,0,0,0,0,0,0,0,0,0]}]],[[{"header":{"parameterUnit":"kt","parameterCategory":2,"dx":1,"dy":1,"la1":29.764190673828125,"la2":30.86408042907715,"lo1":-88.46762084960938,"lo2":-86.9344482421875,"nx":47,"ny":34,"refTime":"2022-10-12T00:00:00:Z","depth":"10","parameterNumber":2,"parameterNumberName":"U-component_of_CURRENTS"},"data":[-0.0187,-0.0171,0.0069,0.0481,0.095,0.1276,0.142,0.1399,0.1148,0.0705,0.0304,0.0096,-0.0053,-0.0112,0.0075,0.039,0.0635,0.0806,0.0945,0.0945,0.0758,0.0582,0.0443,0.0219,-0.0107,-0.0422,-0.0518,-0.0139,0.0459,0.0502,0.0085,-0.0021,0.0117,0.0176,0.0139,-0.0075,-0.0406,-0.0694,-0.087,-0.102,-0.1191,-0.1335,-0.1399,-0.1399,-0.1329,-0.1191,-0.1052,-0.0235,-0.0459,-0.0443,-0.0149,0.0224,0.0614,0.0806,0.0737,0.0454,0.0144,0.0,-0.0075,-0.0133,0.0069,0.0427,0.0699,0.0865,0.0924,0.0902,0.0854,0.0812,0.0747,0.0577,0.0331,0.0064,-0.0256,-0.0587,-0.0737,-0.0374,0.0384,0.0651,0.0315,0.023,0.0288,0.0288,0.0304,0.0128,-0.0091,-0.0224,-0.0347,-0.0507,-0.0657,-0.0742,-0.079,-0.0817,-0.086,-0.0918,-0.0187,-0.0363,-0.0619,-0.0673,-0.0454,-0.0198,-0.0048,-0.0032,-0.0091,-0.0112,-0.008,-0.0027,0.0176,0.0502,0.0769,0.0918,0.102,0.1073,0.1078,0.1062,0.1078,0.1057,0.0849,0.0507,0.0198,0.0027,-0.0085,-0.0326,-0.0497,-0.0347,0.0256,0.0651,0.0438,0.0294,0.0347,0.0443,0.0438,0.0331,0.0262,0.0149,-0.0011,-0.0171,-0.0288,-0.0352,-0.0443,-0.0566,-0.0673,-0.0139,-0.0203,-0.0368,-0.0582,-0.0689,-0.063,-0.0518,-0.0411,-0.0278,-0.0107,0.0096,0.0379,0.0683,0.0886,0.0982,0.1041,0.1095,0.1148,0.1212,0.1255,0.1287,0.1319,0.1308,0.1217,0.1025,0.0881,0.0812,0.0641,0.0411,0.0107,-0.0101,0.0128,0.0438,0.0518,0.0267,0.0246,0.0395,0.0331,0.0331,0.0256,0.0192,0.0096,-0.0011,-0.0101,-0.0203,-0.0278,-0.0315,-0.008,-0.0091,-0.0128,-0.0214,-0.031,-0.0352,-0.0288,-0.0139,0.008,0.0326,0.0566,0.0785,0.0945,0.1025,0.1057,0.1084,0.1121,0.1175,0.1244,0.1308,0.1345,0.1399,0.15,0.1634,0.1692,0.1596,0.1415,0.1249,0.1073,0.0844,0.0529,0.024,0.0091,0.0315,0.0395,0.047,0.0267,-0.0037,0.0091,0.0069,0.0107,0.0123,0.0107,0.008,0.0043,0.0011,0.0005,-0.0011,0.0016,0.0043,0.0064,0.0096,0.0149,0.0235,0.0358,0.0491,0.0625,0.0737,0.0833,0.0913,0.0977,0.1025,0.1062,0.11,0.1159,0.1228,0.1297,0.134,0.1383,0.1474,0.1634,0.1778,0.181,0.1692,0.15,0.1329,0.1212,0.103,0.0822,0.063,0.0288,0.0315,0.0406,0.0278,0.0363,0.0133,-0.0096,0.0,0.0101,0.0214,0.0288,0.032,0.0288,0.0267,0.0037,0.0117,0.0176,0.023,0.0294,0.0358,0.0427,0.0491,0.055,0.0609,0.0667,0.0731,0.0806,0.0881,0.0945,0.0993,0.1046,0.1105,0.1175,0.1255,0.1329,0.141,0.15,0.1612,0.173,0.1783,0.1746,0.1687,0.166,0.157,0.1377,0.1164,0.0988,0.0812,0.0481,0.0363,0.0374,0.016,0.023,0.0411,0.023,0.0085,0.0208,0.0368,0.0427,0.0395,0.031,0.0032,0.0155,0.024,0.0299,0.0347,0.039,0.0427,0.047,0.0507,0.0555,0.0609,0.0667,0.0737,0.0801,0.0854,0.0908,0.0966,0.1036,0.1121,0.1233,0.1356,0.1474,0.157,0.165,0.1703,0.173,0.173,0.1741,0.1778,0.1794,0.1682,0.1431,0.1207,0.103,0.0817,0.0475,0.0294,0.0304,0.0192,0.0005,0.0091,0.0331,0.0326,0.0267,0.0246,0.0208,0.0139,-0.0112,0.0075,0.0219,0.031,0.0368,0.0406,0.0438,0.047,0.0507,0.0555,0.0609,0.0667,0.0715,0.0753,0.079,0.0844,0.0913,0.1004,0.1116,0.1249,0.1388,0.1506,0.1602,0.166,0.1698,0.1719,0.1746,0.1783,0.181,0.1815,0.1741,0.1575,0.1361,0.1175,0.1014,0.079,0.0438,0.0048,-0.008,0.0069,0.0069,-0.0192,-0.0219,-0.0011,0.0059,0.0059,0.0,-0.0507,-0.0262,0.0032,0.0256,0.0379,0.0448,0.0497,0.0523,0.0545,0.0577,0.0635,0.0689,0.0731,0.0758,0.0774,0.0828,0.0924,0.1041,0.1164,0.1287,0.1388,0.1463,0.1532,0.1596,0.1666,0.1735,0.1794,0.1826,0.1821,0.1799,0.1757,0.1655,0.1479,0.1292,0.1153,0.1062,0.0934,0.0683,0.0331,-0.0117,-0.0438,-0.0288,-0.016,-0.0614,-0.0662,-0.0256,-0.0176,-0.0945,-0.0785,-0.0422,-0.0053,0.0224,0.0406,0.0459,0.0459,0.0481,0.0523,0.0598,0.0689,0.0731,0.0715,0.0726,0.0817,0.095,0.1084,0.1201,0.1287,0.134,0.1393,0.1458,0.1538,0.1623,0.1692,0.173,0.1735,0.1714,0.1698,0.1687,0.166,0.1591,0.1468,0.134,0.1244,0.1175,0.1078,0.0945,0.0796,0.055,-0.0005,-0.031,-0.0347,-0.0358,-0.0497,-0.0742,-0.0448,-0.0053,-0.0347,-0.0603,-0.0464,-0.0342,-0.0176,-0.0027,0.0005,0.0075,0.0171,0.0352,0.0507,0.0486,0.0555,0.0769,0.095,0.1089,0.1191,0.1244,0.1281,0.1324,0.1372,0.142,0.1452,0.1458,0.1447,0.1431,0.1442,0.149,0.1559,0.1602,0.1607,0.1575,0.15,0.1393,0.1271,0.1127,0.0977,0.0838,0.0726,0.0566,0.0117,-0.0448,-0.0342,-0.0214,-0.0416,0.0529,0.1335,0.0763,-0.0673,-0.0379,0.0352,0.0902,0.1078,0.0662,0.0101,-0.0016,0.0005,0.0459,0.0651,0.0619,0.078,0.0892,0.1009,0.1095,0.1153,0.1196,0.1239,0.1249,0.1233,0.1228,0.1212,0.1191,0.1169,0.118,0.1223,0.1287,0.1319,0.1335,0.1335,0.1308,0.1239,0.1159,0.1062,0.0924,0.0769,0.0651,0.0598,0.0539,0.0278,-0.0262,-0.0913,-0.1052,0,0,-0.0278,-0.0571,-0.023,0.1062,0.1842,0.0315,0.0096,0.0379,0.0593,0.0635,0,0.0043,0.0299,0.0614,0.079,0.0918,0.1014,0.1073,0.1121,0.1212,0.1148,0.1014,0.0993,0.1009,0.1025,0.1009,0.0956,0.0908,0.0886,0.087,0.0849,0.0902,0.0982,0.1014,0.1009,0.0956,0.0886,0.0747,0.0598,0.0502,0.0513,0.0523,0.0374,0.0064,-0.0272,-0.0844,-0.1148,-0.0913,-0.0603,-0.0662,0,0,-0.0235,-0.0043,0.0577,0.0924,0.1692,0.1602,0.0892,0,0,0,0,0,0,0,0,0.0278,0.0678,0.0854,0.0929,0.0982,0.1143,0.1084,0.0892,0.0988,0.1046,0.1233,0.1474,0.157,0.1255,0.0705,0.0689,0.0758,0.078,0.0737,0.0641,0.0577,0.0593,0.0609,0.0539,0.0379,-0.1137,-0.1228,-0.071,-0.0363,0.0283,0.0993,0.023,-0.0539,-0.0673,0,0,0,-0.0368,0.0374,0.1281,0.0998,0.086,0.071,0.031,0.0166,0.032,0,0,0,0,0,0,0,0.0187,0.0539,0.079,0.0956,0.1084,0.0913,0.0694,0.0491,0.0363,0.0897,0.063,0.0758,0.0796,0.0747,0.0657,0.0598,0.0614,0.0662,0.0667,-0.1228,-0.0929,-0.0368,0.0192,0.0582,0.0646,0.0112,0.0288,0.166,0.2419,0.221,0.1436,-0.0032,0.0176,0.1057,0.0796,0.0683,0.0491,-0.0053,-0.0299,-0.0139,0,0,0,0,0,0,0,0,0,0,0,0,0.0246,0.0614,0.055,0.016,-0.0043,0.0342,0.0561,0.0587,0.0603,0.0571,0.0529,0.0529,0.0587,0.0657,0,-0.0053,0.0123,0.0384,0.0427,0.0432,0,0,0,0,0,-0.0235,-0.0619,-0.0053,0.0641,0.0646,0.0555,0.0043,-0.0368,-0.039,0,0,0,0,0,0,0,0,0,0,0,0,0,0,0,0,0.0037,-0.032,0,0,0.0187,0.0208,0.0235,0.0288,0.0406,0.0625,0.0753,0,0,0,0.0123,0.0272,0.0299,0,0,0,0,0,-0.0368,-0.0561,-0.0166,0.0326,0.055,0.0043,-0.0491,-0.0342,0,0,0,0,0,0,0,0,0,0,0,0,0,0,0,0,0,0,0.0075,0.0609,0,0,0,0,0,0,0,0.0176,0,0,0,0,0,0,0,0,0,0,0,-0.0342,-0.0454,-0.0101,0.0294,0.0288,-0.0267,-0.0545,0,0,0,0,0,0,0,0,0,0,0,0,0,0,0,0,0,0,0,0,0.047,0.0865,0.0726,0.0662,0,0,0,0,0,0,0,0,0,0,0,0,0,0,0,0,-0.0251,-0.024,0.0085,0.0347,0.0262,-0.0021,0,0,0,0,0,0,0,0,0,0,0,0,0,0,0,0,0,0,0,0,0,0,0.0315,0.0523,0.0614,0.0609,0.0507,0.0614,0,0,0,0,0,0,0,0,0,0,0,0,0,0,0.0075,0.0208,0.0315,0.0363,0.0246,0,0,0,0,0,0,0,0,0,0,0,0,0,0,0,0,0,0,0,0,0,0,0,0,0,0,0.0043,0.0091,0,0,0,0,0,0,0,0,0,0,0,0,0,0,-0.0011,0.0011,0.023,0.0374,0.0342,0,0,0,0,0,0,0,0,0,0,0,0,0,0,0,0,0,0,0,0,0,0,0,0,0,0,0,0,0,0,0,0,0,0,0,0,0,0,0,0,0,0,-0.0144,-0.0085,0.0208,0.0272,0.0251,0,0,0,0,0,0,0,0,0,0,0,0,0,0,0,0,0,0,0,0,0,0,0,0,0,0,0,0,0,0,0,0,0,0,0,0,0,0,0,0,0,0,0.0064,0.0166,0.0139,0.0117,0.016,0,0,0,0,0,0,0,0,0,0,0,0,0,0,0,0,0,0,0,0,0,0,0,0,0,0,0,0,0,0,0,0,0,0,0,0,0,0,0,0,0,0,0,-0.0032,0.0096,0.0037,-0.0182,0,0,0,0,0,0,0,0,0,0,0,0,0,0,0,0,0,0,0,0,0,0,0,0,0,0,0,0,0,0,0,0,0,0,0,0,0,0,0,0,0,0,0,0.0101,-0.0214,-0.0673,-0.0715,0,0,0,0,0,0,0,0,0,0,0,0,0,0,0,0,0,0,0,0,0,0,0,0,0,0,0,0,0,0,0,0,0,0,0,0,0,0,0,0,0,0,0,0,-0.0262,-0.0523,0,0,0,0,0,0,0,0,0,0,0,0,0,0,0,0,0,0,0,0,0,0,0,0,0,0,0,0,0,0,0,0,0,0,0,0,0,0,0,0,0,0,0,0,0,0,0,0,0,0,0,0,0,0,0,0,0,0,0,0,0,0,0,0,0,0,0,0,0,0,0,0,0,0,0,0,0,0,0,0,0,0,0,0,0,0,0,0,0,0,0,0,0,0,0,0,0,0,0,0,0,0,0,0,0,0,0,0,0,0,0,0,0,0,0,0,0,0,0,0,0,0,0,0,0,0,0,0,0,0,0,0,0,0,0,0,0,0,0,0,0,0,0,0,0,0,0,0,0,0,0,0,0,0,0,0,0,0,0,0,0,0,0,0,0,0,0,0,0,0,0,0,0,0,0,0,0,0,0,0,0,0,0,0,0,0,0,0,0,0,0,0,0,0,0,0,0,0,0,0,0,0,0,0,0,0,0,0,0,0,0,0,0,0,0,0,0,0,0,0,0,0,0,0,0,0,0,0,0,0,0,0,0,0,0,0,0,0,0,0,0,0,0,0,0,0,0,0,0,0,0,0,0,0,0,0,0,0,0,0,0,0,0,0,0,0,0,0,0,0,0,0,0,0,0,0,0,0,0,0,0,0,0,0,0,0,0,0,0,0,0,0,0,0,0,0,0,0,0,0,0,0,0,0,0,0,0,0,0,0,0,0,0]}],[{"header":{"parameterUnit":"kt","parameterCategory":2,"dx":1,"dy":1,"la1":29.764190673828125,"la2":30.86408042907715,"lo1":-88.46762084960938,"lo2":-86.9344482421875,"nx":47,"ny":34,"refTime":"2022-10-12T00:00:00:Z","depth":"10","parameterNumber":3,"parameterNumberName":"V-component_of_CURRENTS"},"data":[0.0817,0.0801,0.1089,0.1757,0.236,0.2355,0.2013,0.1548,0.1297,0.1564,0.1837,0.1863,0.1986,0.1922,0.1676,0.1554,0.1436,0.1287,0.1057,0.1009,0.1239,0.1014,0.0358,0.0406,0.039,0.0155,-0.0149,-0.0438,-0.0555,-0.0566,-0.0374,-0.0374,-0.0641,-0.095,-0.1212,-0.142,-0.1484,-0.1463,-0.1399,-0.1303,-0.1255,-0.1175,-0.1095,-0.0977,-0.0892,-0.0881,-0.0902,0.0988,0.0785,0.0918,0.1361,0.1901,0.2072,0.1938,0.1762,0.1762,0.1901,0.1911,0.1965,0.1981,0.1612,0.1319,0.1281,0.1271,0.1207,0.1073,0.1062,0.1233,0.1073,0.0651,0.0619,0.0641,0.0422,-0.0123,-0.0545,-0.0555,-0.0614,-0.0587,-0.0448,-0.0406,-0.0534,-0.0854,-0.1255,-0.15,-0.165,-0.1698,-0.1634,-0.1607,-0.1607,-0.1607,-0.1559,-0.1468,-0.1367,-0.1287,0.1164,0.0966,0.0892,0.1132,0.1554,0.1826,0.189,0.189,0.1954,0.1901,0.1837,0.1853,0.1655,0.1212,0.1073,0.1105,0.1164,0.1185,0.1116,0.1041,0.1078,0.1095,0.102,0.0902,0.0785,0.0587,0.0139,-0.0598,-0.0886,-0.0913,-0.0625,-0.0571,-0.055,-0.0459,-0.0448,-0.0838,-0.1041,-0.1351,-0.15,-0.1548,-0.1543,-0.1586,-0.1644,-0.1634,-0.1522,-0.1372,-0.1297,0.1244,0.1175,0.1046,0.1057,0.1303,0.1554,0.1692,0.1757,0.1751,0.166,0.1564,0.1463,0.1217,0.0988,0.0972,0.102,0.1073,0.1121,0.1105,0.1014,0.0972,0.1062,0.1223,0.1191,0.0961,0.0625,0.0347,-0.0155,-0.0673,-0.1127,-0.0876,-0.0545,-0.0657,-0.0785,-0.0678,-0.0699,-0.0603,-0.0913,-0.1057,-0.1185,-0.1191,-0.1201,-0.1271,-0.1313,-0.1276,-0.1191,-0.1143,0.1271,0.1255,0.1223,0.1185,0.1228,0.1329,0.141,0.1452,0.1415,0.1324,0.1223,0.1121,0.1009,0.095,0.0961,0.0972,0.1004,0.1036,0.1036,0.0961,0.0902,0.0956,0.1132,0.1228,0.1089,0.0753,0.0491,0.0251,-0.0101,-0.0651,-0.0977,-0.0625,-0.0582,-0.0833,-0.1089,-0.0897,-0.1014,-0.0881,-0.078,-0.0886,-0.0908,-0.0918,-0.0945,-0.1014,-0.1068,-0.1036,-0.1009,0.1276,0.1271,0.1271,0.1265,0.1265,0.1255,0.1244,0.1228,0.1185,0.1121,0.1057,0.1004,0.0977,0.0966,0.0961,0.0945,0.0945,0.0961,0.0956,0.0902,0.0849,0.0854,0.0945,0.1057,0.1036,0.086,0.0673,0.0539,0.032,-0.0139,-0.0555,-0.0619,-0.0518,-0.0587,-0.0892,-0.1036,-0.1281,-0.1132,-0.1153,-0.0988,-0.0881,-0.0838,-0.0806,-0.0817,-0.0833,-0.0817,-0.0796,0.1244,0.1255,0.1271,0.1271,0.126,0.1228,0.1196,0.1164,0.1127,0.1084,0.1036,0.1004,0.0982,0.0972,0.095,0.0913,0.0902,0.0902,0.0886,0.0838,0.079,0.0774,0.0812,0.0876,0.0918,0.0892,0.0828,0.0747,0.0577,0.0256,-0.0166,-0.04,-0.0358,-0.0432,-0.0555,-0.0817,-0.0918,-0.1105,-0.1175,-0.1132,-0.1324,-0.1169,-0.0918,-0.0726,-0.0614,-0.0577,-0.0518,0.1159,0.1217,0.1271,0.1281,0.1276,0.1249,0.1217,0.1185,0.1153,0.1111,0.1062,0.102,0.0993,0.0961,0.0924,0.0881,0.086,0.0844,0.0817,0.0758,0.0699,0.0678,0.071,0.0769,0.0838,0.0876,0.087,0.0796,0.0667,0.0502,0.0155,-0.0107,-0.023,-0.0256,-0.031,-0.0448,-0.0667,-0.0812,-0.086,-0.1121,-0.1377,-0.1377,-0.1287,-0.0934,-0.0646,-0.0497,-0.0374,0.1025,0.1148,0.1265,0.1319,0.1335,0.1313,0.1287,0.1244,0.1201,0.1143,0.1084,0.103,0.0988,0.0945,0.0897,0.0849,0.0812,0.078,0.0721,0.0635,0.0561,0.0555,0.0609,0.0694,0.0774,0.0838,0.0844,0.0763,0.0651,0.0577,0.0411,0.0171,-0.0037,-0.0128,-0.0128,-0.0139,-0.023,-0.0411,-0.0683,-0.0934,-0.1105,-0.1468,-0.1426,-0.102,-0.0908,-0.063,-0.0427,0.0908,0.0988,0.1153,0.1303,0.1361,0.1356,0.134,0.1303,0.1244,0.1164,0.1089,0.103,0.0988,0.0945,0.0886,0.0801,0.0737,0.0673,0.0582,0.0481,0.0422,0.0443,0.0513,0.0598,0.0673,0.0731,0.0747,0.0705,0.063,0.0598,0.0523,0.0358,0.016,0.0011,-0.0048,-0.0005,0.0064,-0.0016,-0.0182,-0.0502,-0.0876,-0.1233,-0.1393,-0.1335,-0.1025,-0.0534,-0.0432,0.0934,0.0801,0.0913,0.1164,0.1244,0.1319,0.1383,0.1345,0.1281,0.118,0.1078,0.1009,0.1025,0.0998,0.0886,0.0715,0.0619,0.0529,0.0432,0.0352,0.0331,0.0363,0.0416,0.0464,0.0513,0.0571,0.0614,0.0619,0.0598,0.0582,0.0545,0.0438,0.0304,0.0155,0.0021,0.0016,0.0139,0.0219,0.0123,-0.0166,-0.0374,-0.0497,-0.1004,-0.1255,-0.1116,-0.0812,-0.0673,0.0539,0.0427,0.1105,0.118,0.1196,0.1383,0.1404,0.1276,0.1372,0.1297,0.1116,0.1062,0.0966,0.1014,0.0774,0.055,0.0454,0.0379,0.0299,0.0256,0.0256,0.0299,0.0342,0.0358,0.0384,0.0438,0.0491,0.0513,0.0507,0.0486,0.0486,0.0427,0.0352,0.0246,0.0117,0.0064,0.0171,0.031,0.0256,0.0027,-0.0101,-0.0096,-0.0214,-0.0481,-0.0993,-0.1009,-0.0614,-0.0395,-0.0438,0.1233,0.1159,0.0763,0.0977,0.0502,0.0571,0.158,0.1201,0.1121,0.087,0.0619,0.0902,0.0561,0.0368,0.0283,0.0235,0.0182,0.0166,0.0176,0.023,0.032,0.031,0.0315,0.0352,0.0395,0.04,0.0379,0.0336,0.0384,0.039,0.0363,0.0278,0.0182,0.0128,0.0198,0.0395,0.0379,0.016,-0.0027,0.0021,0.0166,0.0032,-0.0294,-0.0448,-0.0144,0,0,0.1116,0.071,0.016,-0.0747,-0.0555,0.0657,0.0539,0.0646,0.094,0.0982,0,0.0918,0.0459,0.0294,0.0214,0.0171,0.0128,0.0112,0.0133,0.0187,0.0464,0.0304,0.024,0.0246,0.0304,0.0326,0.0352,0.0246,0.0294,0.0363,0.0352,0.0272,0.0187,0.0059,0.0027,0.04,0.0497,0.0304,0.0069,0.0005,0.0144,0.0294,0.0283,0.0096,0.0069,0.0171,0.0251,0.1452,0.0854,0.0812,0,0,0.0619,0.032,0.0534,0.0753,0.1249,0.0881,0.1372,0,0,0,0,0,0,0,0,0.0609,0.0315,0.0198,0.0187,0.0251,0.0304,0.0545,0.0416,0.0416,0.0336,0.0507,0.0123,0.039,0.0641,0.0053,0.0032,0.0507,0.0379,0.0176,0.0059,0.008,0.0256,0.0422,0.0443,0.0278,0.0347,0.0523,0.1132,0.0427,0.0902,-0.0016,0.0059,0.0566,0.0833,0,0,0,0.1511,0.1735,0.0171,0.0064,0.0021,0.0,-0.0016,-0.0166,0.0128,0,0,0,0,0,0,0,0.0513,0.0032,0.0326,0.0299,0.031,0.0347,0.032,0.0582,0.0897,0.0796,0.0416,0.0315,0.0214,0.0144,0.0112,0.0198,0.0374,0.0491,0.0422,0.0352,0.0256,0.0774,0.0246,0.0192,-0.0272,0.0117,0.0582,0.1436,0.0,0.0,0.0545,0.1196,0.1559,0.032,0.0107,0.0064,0.008,0.0107,-0.0011,0.0251,0,0,0,0,0,0,0,0,0,0,0,0,0.0513,0.0294,0.0497,0.0667,0.0635,0.0886,0.0251,0.016,0.0155,0.0139,0.0176,0.0288,0.0411,0.0416,0,-0.0037,0.0609,0.0459,-0.0016,-0.0358,0,0,0,0,0,0.0753,0.0854,0.1111,0.0272,0.0123,0.0117,-0.0011,0.0005,0.0262,0,0,0,0,0,0,0,0,0,0,0,0,0,0,0,0,0.0758,0.0737,0,0,0.0107,0.0128,0.0128,0.0171,0.0246,0.0358,0.04,0,0,0,0.0384,0.0187,-0.0198,0,0,0,0,0,0.0368,0.0534,0.0545,0.0214,0.0144,0.0133,-0.0048,-0.024,0,0,0,0,0,0,0,0,0,0,0,0,0,0,0,0,0,0,0.0945,0.0609,0,0,0,0,0,0,0,0.0422,0,0,0,0,0,0,0,0,0,0,0,0.0352,0.0443,0.0347,0.0208,0.0214,0.0267,0.0085,0,0,0,0,0,0,0,0,0,0,0,0,0,0,0,0,0,0,0,0,0.1212,0.0304,0.0342,0.0384,0,0,0,0,0,0,0,0,0,0,0,0,0,0,0,0,0.0481,0.0454,0.0443,0.0288,0.032,0.0561,0,0,0,0,0,0,0,0,0,0,0,0,0,0,0,0,0,0,0,0,0,0,0.0614,0.0678,0.0769,0.0,0.0069,0.0005,0,0,0,0,0,0,0,0,0,0,0,0,0,0,0.0683,0.0587,0.0395,0.0347,0.071,0,0,0,0,0,0,0,0,0,0,0,0,0,0,0,0,0,0,0,0,0,0,0,0,0,0,0.0133,0.0011,0,0,0,0,0,0,0,0,0,0,0,0,0,0,0.0854,0.0683,0.0539,0.0427,0.0705,0,0,0,0,0,0,0,0,0,0,0,0,0,0,0,0,0,0,0,0,0,0,0,0,0,0,0,0,0,0,0,0,0,0,0,0,0,0,0,0,0,0,0.0678,0.0731,0.0673,0.0539,0.0667,0,0,0,0,0,0,0,0,0,0,0,0,0,0,0,0,0,0,0,0,0,0,0,0,0,0,0,0,0,0,0,0,0,0,0,0,0,0,0,0,0,0,0.0507,0.0726,0.0683,0.0662,0.0699,0,0,0,0,0,0,0,0,0,0,0,0,0,0,0,0,0,0,0,0,0,0,0,0,0,0,0,0,0,0,0,0,0,0,0,0,0,0,0,0,0,0,0,0.055,0.0694,0.0678,0.0662,0,0,0,0,0,0,0,0,0,0,0,0,0,0,0,0,0,0,0,0,0,0,0,0,0,0,0,0,0,0,0,0,0,0,0,0,0,0,0,0,0,0,0,0.0395,0.0144,0.0459,0.0566,0,0,0,0,0,0,0,0,0,0,0,0,0,0,0,0,0,0,0,0,0,0,0,0,0,0,0,0,0,0,0,0,0,0,0,0,0,0,0,0,0,0,0,0,-0.0448,0.0315,0,0,0,0,0,0,0,0,0,0,0,0,0,0,0,0,0,0,0,0,0,0,0,0,0,0,0,0,0,0,0,0,0,0,0,0,0,0,0,0,0,0,0,0,0,0,0,0,0,0,0,0,0,0,0,0,0,0,0,0,0,0,0,0,0,0,0,0,0,0,0,0,0,0,0,0,0,0,0,0,0,0,0,0,0,0,0,0,0,0,0,0,0,0,0,0,0,0,0,0,0,0,0,0,0,0,0,0,0,0,0,0,0,0,0,0,0,0,0,0,0,0,0,0,0,0,0,0,0,0,0,0,0,0,0,0,0,0,0,0,0,0,0,0,0,0,0,0,0,0,0,0,0,0,0,0,0,0,0,0,0,0,0,0,0,0,0,0,0,0,0,0,0,0,0,0,0,0,0,0,0,0,0,0,0,0,0,0,0,0,0,0,0,0,0,0,0,0,0,0,0,0,0,0,0,0,0,0,0,0,0,0,0,0,0,0,0,0,0,0,0,0,0,0,0,0,0,0,0,0,0,0,0,0,0,0,0,0,0,0,0,0,0,0,0,0,0,0,0,0,0,0,0,0,0,0,0,0,0,0,0,0,0,0,0,0,0,0,0,0,0,0,0,0,0,0,0,0,0,0,0,0,0,0,0,0,0,0,0,0,0,0,0,0,0,0,0,0,0,0,0,0,0,0,0,0,0,0,0,0,0,0,0]}]],[[{"header":{"parameterUnit":"kt","parameterCategory":2,"dx":1,"dy":1,"la1":29.764190673828125,"la2":30.86408042907715,"lo1":-88.46762084960938,"lo2":-86.9344482421875,"nx":47,"ny":34,"refTime":"2022-10-12T00:00:00:Z","depth":"12","parameterNumber":2,"parameterNumberName":"U-component_of_CURRENTS"},"data":[-0.0171,-0.0155,0.0091,0.0497,0.0972,0.1292,0.1436,0.141,0.1159,0.0721,0.032,0.0112,-0.0037,-0.0096,0.0091,0.0406,0.0651,0.0817,0.0956,0.095,0.0769,0.0587,0.0443,0.0214,-0.0101,-0.0411,-0.0507,-0.0123,0.0475,0.0523,0.0107,0.0,0.0133,0.0192,0.016,-0.0059,-0.039,-0.0678,-0.086,-0.1009,-0.118,-0.1324,-0.1393,-0.1388,-0.1319,-0.1185,-0.1046,-0.0224,-0.0443,-0.0427,-0.0133,0.024,0.0625,0.0822,0.0753,0.047,0.016,0.0021,-0.0059,-0.0112,0.0091,0.0443,0.0715,0.0876,0.0934,0.0908,0.086,0.0822,0.0758,0.0577,0.0326,0.0075,-0.0246,-0.0582,-0.0731,-0.0363,0.04,0.0667,0.0331,0.0246,0.0299,0.0299,0.0315,0.0139,-0.008,-0.0214,-0.0336,-0.0497,-0.0646,-0.0737,-0.078,-0.0812,-0.0849,-0.0908,-0.0182,-0.0352,-0.0609,-0.0662,-0.0438,-0.0182,-0.0032,-0.0016,-0.0075,-0.0096,-0.0064,-0.0011,0.0192,0.0523,0.0785,0.0934,0.103,0.1084,0.1084,0.1068,0.1084,0.1062,0.0854,0.0513,0.0208,0.0043,-0.0075,-0.032,-0.0491,-0.0336,0.0272,0.0667,0.0454,0.0304,0.0358,0.0454,0.0448,0.0342,0.0272,0.0155,0.0,-0.016,-0.0278,-0.0342,-0.0432,-0.0555,-0.0662,-0.0128,-0.0192,-0.0358,-0.0571,-0.0678,-0.0614,-0.0502,-0.0395,-0.0262,-0.0091,0.0112,0.039,0.0699,0.0897,0.0993,0.1052,0.11,0.1159,0.1217,0.126,0.1292,0.1324,0.1319,0.1228,0.1036,0.0892,0.0822,0.0651,0.0411,0.0107,-0.0096,0.0139,0.0454,0.0534,0.0278,0.0256,0.0406,0.0342,0.0342,0.0267,0.0203,0.0107,0.0,-0.0091,-0.0192,-0.0267,-0.0304,-0.0075,-0.008,-0.0117,-0.0203,-0.0299,-0.0336,-0.0272,-0.0123,0.0091,0.0336,0.0577,0.0796,0.0956,0.1036,0.1068,0.1095,0.1127,0.1185,0.1249,0.1313,0.1351,0.1404,0.1506,0.1639,0.1698,0.1607,0.1431,0.1255,0.1078,0.0844,0.0523,0.024,0.0101,0.0326,0.0406,0.0481,0.0283,-0.0021,0.0101,0.008,0.0117,0.0133,0.0117,0.0091,0.0053,0.0021,0.0016,0.0,0.0021,0.0048,0.0075,0.0107,0.016,0.0246,0.0368,0.0502,0.0635,0.0747,0.0844,0.0924,0.0988,0.1036,0.1073,0.1111,0.1164,0.1239,0.1303,0.1345,0.1388,0.1479,0.1639,0.1789,0.1815,0.1698,0.1506,0.1335,0.1212,0.1025,0.0822,0.063,0.0299,0.0331,0.0422,0.0294,0.0379,0.0149,-0.008,0.0011,0.0112,0.0224,0.0299,0.0331,0.0299,0.0278,0.0048,0.0123,0.0187,0.024,0.0304,0.0368,0.0438,0.0502,0.0561,0.0619,0.0678,0.0742,0.0817,0.0892,0.0956,0.1004,0.1052,0.1116,0.1185,0.126,0.1335,0.141,0.15,0.1618,0.1735,0.1789,0.1757,0.1692,0.166,0.157,0.1377,0.1159,0.0982,0.0806,0.0486,0.0374,0.0384,0.0176,0.0246,0.0422,0.0246,0.0096,0.0219,0.0374,0.0438,0.04,0.0315,0.0037,0.0166,0.0251,0.031,0.0358,0.04,0.0443,0.0481,0.0518,0.0566,0.0619,0.0683,0.0747,0.0812,0.0865,0.0918,0.0977,0.1046,0.1132,0.1239,0.1356,0.1474,0.1575,0.1655,0.1709,0.173,0.173,0.1746,0.1778,0.1794,0.1676,0.1426,0.1196,0.103,0.0817,0.0481,0.0304,0.0315,0.0208,0.0021,0.0107,0.0342,0.0336,0.0278,0.0256,0.0214,0.0149,-0.0107,0.0085,0.023,0.032,0.0379,0.0422,0.0448,0.0481,0.0518,0.0566,0.0619,0.0678,0.0721,0.0758,0.0796,0.0849,0.0924,0.1009,0.1121,0.1249,0.1388,0.1506,0.1602,0.166,0.1698,0.1725,0.1751,0.1783,0.181,0.1815,0.1741,0.1564,0.1351,0.1169,0.1009,0.079,0.0443,0.0053,-0.0075,0.008,0.0085,-0.0171,-0.0203,0.0,0.0069,0.0064,0.0011,-0.0497,-0.0256,0.0043,0.0267,0.039,0.0464,0.0507,0.0534,0.0555,0.0587,0.0641,0.0699,0.0742,0.0763,0.0785,0.0833,0.0924,0.1036,0.1159,0.1281,0.1383,0.1463,0.1527,0.1596,0.1666,0.1735,0.1794,0.1826,0.1821,0.1799,0.1751,0.165,0.1474,0.1287,0.1148,0.1062,0.0934,0.0683,0.0336,-0.0107,-0.0422,-0.0272,-0.0144,-0.0598,-0.0651,-0.0246,-0.0166,-0.071,-0.0555,-0.0336,-0.0048,0.023,0.0411,0.0464,0.0464,0.0486,0.0529,0.0603,0.0694,0.0731,0.0715,0.0726,0.0817,0.0945,0.1073,0.1185,0.1276,0.1335,0.1388,0.1447,0.1527,0.1612,0.1682,0.1725,0.173,0.1709,0.1698,0.1687,0.166,0.1586,0.1463,0.1335,0.1244,0.1175,0.1078,0.095,0.0796,0.055,0.0005,-0.0278,-0.0326,-0.0342,-0.0481,-0.0726,0.0096,0.0379,0.0117,-0.0358,-0.0352,-0.0117,0.023,0.0278,0.0149,0.0208,0.0272,0.0416,0.0545,0.0491,0.0555,0.0763,0.0929,0.1057,0.1148,0.1212,0.1255,0.1297,0.134,0.1383,0.1431,0.1447,0.1436,0.1431,0.1442,0.149,0.1559,0.1602,0.1607,0.157,0.1495,0.1388,0.1265,0.1127,0.0977,0.0838,0.0721,0.0561,0.0117,-0.0432,-0.0331,-0.0187,-0.04,0.0513,0.0998,0.0203,-0.0497,-0.0021,0.0747,0.0801,0.0176,0.0166,0.016,0.0027,0,0.0438,0,0.0593,0.0763,0.087,0.0977,0.1062,0.1116,0.1148,0.1185,0.1191,0.118,0.1169,0.1164,0.1169,0.1164,0.1175,0.1223,0.1281,0.1319,0.1335,0.1335,0.1308,0.1233,0.1148,0.1057,0.0918,0.0769,0.0646,0.0593,0.0539,0.0278,-0.0256,-0.0902,-0.1041,0,0,0,0,0,0.0641,0.0982,0,0,0,0,0,0,0,0,0,0,0,0,0,0,0,0,0,0,0,0.0982,0.0972,0.0945,0.0918,0.0902,0.0892,0.0988,0.1201,0.1207,0.1041,0.0993,0.095,0.0881,0.0747,0.0598,0.0502,0.0518,0.0523,0.0374,0.0069,-0.0267,0,0,0,0,0,0,0,0,0,0,0,0,0,0,0,0,0,0,0,0,0,0,0,0,0,0,0,0,0,0.0833,0.0753,0.1169,0.142,0.1111,0.086,0.0577,0.0561,0.0657,0.0758,0.078,0.0742,0.0646,0.0577,0.0598,0.0614,0.0545,0.039,0,0,0,0,0,0,0,0,0,0,0,0,0,0,0,0,0,0,0,0,0,0,0,0,0,0,0,0,0,0,0,0,0,0,0,0,0.0198,0.0149,0.0587,0.0763,0.0796,0.0747,0.0657,0.0598,0.0619,0.0667,0.0678,0,0,0,0,0,0,0,0,0,0,0,0,0,0,0,0,0,0,0,0,0,0,0,0,0,0,0,0,0,0,0,0,0,0,0,0,0,0,0.0256,0.0555,0.0587,0.0603,0.0571,0.0529,0.0529,0.0593,0.0662,0,0,0,0,0,0,0,0,0,0,0,0,0,0,0,0,0,0,0,0,0,0,0,0,0,0,0,0,0,0,0,0,0,0,0,0,0,0,0,0,0,0.0208,0.024,0.0288,0.0406,0.0625,0.0753,0,0,0,0,0,0,0,0,0,0,0,0,0,0,0,0,0,0,0,0,0,0,0,0,0,0,0,0,0,0,0,0,0,0,0,0,0,0,0,0,0,0,0,0,0,0,0.0176,0,0,0,0,0,0,0,0,0,0,0,0,0,0,0,0,0,0,0,0,0,0,0,0,0,0,0,0,0,0,0,0,0,0,0,0,0,0,0,0,0,0,0,0,0,0,0,0,0,0,0,0,0,0,0,0,0,0,0,0,0,0,0,0,0,0,0,0,0,0,0,0,0,0,0,0,0,0,0,0,0,0,0,0,0,0,0,0,0,0,0,0,0,0,0,0,0,0,0,0,0,0,0,0,0,0,0,0,0,0,0,0,0,0,0,0,0,0,0,0,0,0,0,0,0,0,0,0,0,0,0,0,0,0,0,0,0,0,0,0,0,0,0,0,0,0,0,0,0,0,0,0,0,0,0,0,0,0,0,0,0,0,0,0,0,0,0,0,0,0,0,0,0,0,0,0,0,0,0,0,0,0,0,0,0,0,0,0,0,0,0,0,0,0,0,0,0,0,0,0,0,0,0,0,0,0,0,0,0,0,0,0,0,0,0,0,0,0,0,0,0,0,0,0,0,0,0,0,0,0,0,0,0,0,0,0,0,0,0,0,0,0,0,0,0,0,0,0,0,0,0,0,0,0,0,0,0,0,0,0,0,0,0,0,0,0,0,0,0,0,0,0,0,0,0,0,0,0,0,0,0,0,0,0,0,0,0,0,0,0,0,0,0,0,0,0,0,0,0,0,0,0,0,0,0,0,0,0,0,0,0,0,0,0,0,0,0,0,0,0,0,0,0,0,0,0,0,0,0,0,0,0,0,0,0,0,0,0,0,0,0,0,0,0,0,0,0,0,0,0,0,0,0,0,0,0,0,0,0,0,0,0,0,0,0,0,0,0,0,0,0,0,0,0,0,0,0,0,0,0,0,0,0,0,0,0,0,0,0,0,0,0,0,0,0,0,0,0,0,0,0,0,0,0,0,0,0,0,0,0,0,0,0,0,0,0,0,0,0,0,0,0,0,0,0,0,0,0,0,0,0,0,0,0,0,0,0,0,0,0,0,0,0,0,0,0,0,0,0,0,0,0,0,0,0,0,0,0,0,0,0,0,0,0,0,0,0,0,0,0,0,0,0,0,0,0,0,0,0,0,0,0,0,0,0,0,0,0,0,0,0,0,0,0,0,0,0,0,0,0,0,0,0,0,0,0,0,0,0,0,0,0,0,0,0,0,0,0,0,0,0,0,0,0,0,0,0,0,0,0,0,0,0,0,0,0,0,0,0,0,0,0,0,0,0,0,0,0,0,0,0,0,0,0,0,0,0,0,0,0,0,0,0,0,0,0,0,0,0,0,0,0,0,0,0,0,0,0,0,0,0,0,0,0,0,0,0,0,0,0,0,0,0,0,0,0,0,0,0,0,0,0,0,0,0,0,0,0,0,0,0,0,0,0,0,0,0,0,0,0,0,0,0,0,0,0,0,0,0,0,0,0,0,0,0,0,0,0,0,0,0,0,0,0,0,0,0,0,0,0,0,0,0,0,0,0,0,0,0,0,0,0,0,0,0,0,0,0,0,0,0,0,0,0,0,0,0,0,0,0,0,0,0,0,0,0,0,0,0,0,0,0,0,0,0,0,0,0,0,0,0,0,0,0,0]}],[{"header":{"parameterUnit":"kt","parameterCategory":2,"dx":1,"dy":1,"la1":29.764190673828125,"la2":30.86408042907715,"lo1":-88.46762084960938,"lo2":-86.9344482421875,"nx":47,"ny":34,"refTime":"2022-10-12T00:00:00:Z","depth":"12","parameterNumber":3,"parameterNumberName":"V-component_of_CURRENTS"},"data":[0.0806,0.0796,0.1078,0.1746,0.2349,0.2344,0.2002,0.1538,0.1287,0.1554,0.1831,0.1863,0.1986,0.1917,0.1671,0.1554,0.1431,0.1281,0.1057,0.1004,0.1233,0.1014,0.0363,0.0416,0.04,0.016,-0.0144,-0.0438,-0.0561,-0.0577,-0.0379,-0.0384,-0.0651,-0.0961,-0.1228,-0.1436,-0.15,-0.1479,-0.1415,-0.1313,-0.1271,-0.1185,-0.1105,-0.0988,-0.0902,-0.0886,-0.0908,0.0982,0.0774,0.0908,0.1351,0.189,0.2061,0.1927,0.1751,0.1757,0.1895,0.1906,0.1959,0.1981,0.1607,0.1319,0.1276,0.1271,0.1201,0.1068,0.1062,0.1233,0.1073,0.0657,0.063,0.0651,0.0432,-0.0112,-0.0534,-0.055,-0.0619,-0.0598,-0.0459,-0.0416,-0.0539,-0.0865,-0.1265,-0.1511,-0.166,-0.1709,-0.1644,-0.1618,-0.1623,-0.1618,-0.157,-0.1479,-0.1372,-0.1292,0.1159,0.0961,0.0886,0.1121,0.1543,0.1815,0.1879,0.1879,0.1949,0.1895,0.1831,0.1853,0.165,0.1207,0.1068,0.11,0.1153,0.118,0.1116,0.1036,0.1078,0.1089,0.102,0.0913,0.0796,0.0603,0.0149,-0.0582,-0.087,-0.0902,-0.0625,-0.0577,-0.0561,-0.0464,-0.0454,-0.0844,-0.1046,-0.1356,-0.1506,-0.1554,-0.1548,-0.1591,-0.165,-0.1639,-0.1527,-0.1377,-0.1297,0.1239,0.1169,0.1041,0.1052,0.1297,0.1543,0.1682,0.1751,0.1746,0.1655,0.1554,0.1458,0.1207,0.0982,0.0966,0.1009,0.1068,0.1111,0.1095,0.1014,0.0972,0.1062,0.1223,0.1196,0.0966,0.063,0.0358,-0.0139,-0.0657,-0.1105,-0.0865,-0.0545,-0.0662,-0.0796,-0.0683,-0.0699,-0.0609,-0.0918,-0.1057,-0.1185,-0.1196,-0.1201,-0.1276,-0.1313,-0.1276,-0.1196,-0.1143,0.126,0.1249,0.1217,0.118,0.1223,0.1324,0.1404,0.1442,0.141,0.1313,0.1217,0.1111,0.1004,0.0945,0.095,0.0966,0.0993,0.103,0.1025,0.0956,0.0902,0.0956,0.1132,0.1223,0.1089,0.0747,0.0491,0.0256,-0.0091,-0.0635,-0.0956,-0.0614,-0.0582,-0.0838,-0.1095,-0.0902,-0.1014,-0.0881,-0.0785,-0.0886,-0.0908,-0.0918,-0.0945,-0.1014,-0.1068,-0.1036,-0.1009,0.1265,0.126,0.126,0.126,0.126,0.1249,0.1239,0.1217,0.1175,0.1111,0.1046,0.0993,0.0966,0.0961,0.0956,0.0934,0.094,0.0956,0.095,0.0897,0.0844,0.0854,0.0945,0.1052,0.103,0.086,0.0673,0.0539,0.0326,-0.0128,-0.0539,-0.0603,-0.0513,-0.0587,-0.0897,-0.1041,-0.1287,-0.1132,-0.1159,-0.0988,-0.0881,-0.0838,-0.0801,-0.0817,-0.0838,-0.0817,-0.0801,0.1228,0.1244,0.1255,0.126,0.1249,0.1223,0.1191,0.1153,0.1116,0.1073,0.103,0.0993,0.0977,0.0966,0.0945,0.0908,0.0897,0.0897,0.0881,0.0833,0.0785,0.0774,0.0806,0.0876,0.0918,0.0886,0.0828,0.0742,0.0577,0.0262,-0.0155,-0.0384,-0.0347,-0.0427,-0.0555,-0.0822,-0.0924,-0.1116,-0.118,-0.1137,-0.1329,-0.1175,-0.0924,-0.0726,-0.0614,-0.0577,-0.0523,0.1148,0.1207,0.1255,0.1271,0.1265,0.1239,0.1212,0.118,0.1148,0.1105,0.1057,0.1014,0.0982,0.0956,0.0918,0.0876,0.0854,0.0838,0.0812,0.0747,0.0689,0.0667,0.0705,0.0763,0.0828,0.087,0.0865,0.079,0.0662,0.0502,0.016,-0.0101,-0.0219,-0.0251,-0.0304,-0.0443,-0.0667,-0.0817,-0.087,-0.1132,-0.1388,-0.1383,-0.1292,-0.094,-0.0646,-0.0497,-0.0374,0.1025,0.1143,0.126,0.1308,0.1324,0.1303,0.1276,0.1239,0.1191,0.1137,0.1078,0.1025,0.0982,0.094,0.0892,0.0838,0.0806,0.0769,0.071,0.0619,0.0545,0.0539,0.0598,0.0678,0.0763,0.0828,0.0833,0.0753,0.0641,0.0571,0.0411,0.0171,-0.0032,-0.0123,-0.0123,-0.0133,-0.023,-0.0411,-0.0683,-0.0945,-0.1116,-0.1479,-0.1436,-0.103,-0.0913,-0.063,-0.0427,0.0918,0.0988,0.1148,0.1297,0.1351,0.1345,0.1329,0.1292,0.1233,0.1153,0.1078,0.102,0.0977,0.0934,0.0876,0.079,0.0726,0.0657,0.0566,0.0464,0.0406,0.0427,0.0497,0.0582,0.0657,0.0715,0.0737,0.0689,0.0619,0.0587,0.0518,0.0358,0.0166,0.0016,-0.0043,0.0005,0.0069,-0.0005,-0.0176,-0.0491,-0.0881,-0.1244,-0.1426,-0.134,-0.103,-0.0539,-0.0432,0.0908,0.0785,0.0966,0.1159,0.1233,0.1308,0.1372,0.1335,0.1271,0.1164,0.1068,0.0998,0.1014,0.0988,0.0876,0.0699,0.0598,0.0507,0.0411,0.0336,0.0315,0.0352,0.0406,0.0454,0.0502,0.0561,0.0603,0.0609,0.0587,0.0571,0.0534,0.0432,0.0304,0.0155,0.0027,0.0021,0.0144,0.0224,0.0133,-0.0149,-0.0368,-0.0497,-0.1046,-0.1276,-0.1127,-0.0817,-0.0673,0.0,-0.0091,0.0966,0.1207,0.1089,0.1271,0.1212,0.1041,0.1207,0.1046,0.102,0.1004,0.0817,0.0956,0.0753,0.0523,0.0422,0.0352,0.0278,0.024,0.0246,0.0288,0.0331,0.0347,0.0374,0.0432,0.0486,0.0507,0.0502,0.0481,0.0481,0.0416,0.0352,0.0246,0.0123,0.0069,0.0176,0.0315,0.0262,0.0032,-0.0101,-0.0096,-0.0214,-0.0486,-0.103,-0.1036,-0.0635,-0.047,-0.031,0.0625,0.0539,0.0235,0.0123,0.0053,0.0384,0.0705,0.0705,0.103,0,0.0582,0,0.0545,0.0342,0.0267,0.0224,0.0176,0.016,0.0171,0.0219,0.031,0.0299,0.0304,0.0347,0.0395,0.0406,0.0384,0.0342,0.039,0.039,0.0363,0.0283,0.0187,0.0133,0.0203,0.04,0.0384,0.0166,-0.0021,0.0021,0.0166,0.0037,-0.0288,-0.0454,-0.0198,0,0,0,0,0,-0.0534,-0.0171,0,0,0,0,0,0,0,0,0,0,0,0,0,0,0,0,0,0,0,0.0299,0.0331,0.0363,0.032,0.0315,0.0374,0.0459,0.0411,0.0326,0.0171,0.0053,0.04,0.0497,0.031,0.0075,0.0011,0.0149,0.0294,0.0288,0.0112,0.0085,0,0,0,0,0,0,0,0,0,0,0,0,0,0,0,0,0,0,0,0,0,0,0,0,0,0,0,0,0,0.0427,0.0475,0.0443,0.0315,0.0123,0.039,0.0673,0.0635,0.0294,0.0507,0.0379,0.0187,0.0069,0.0091,0.0267,0.0427,0.0448,0.0294,0,0,0,0,0,0,0,0,0,0,0,0,0,0,0,0,0,0,0,0,0,0,0,0,0,0,0,0,0,0,0,0,0,0,0,0,0.0769,0.0918,0.0667,0.0315,0.0224,0.016,0.0123,0.0208,0.0384,0.0497,0.0432,0,0,0,0,0,0,0,0,0,0,0,0,0,0,0,0,0,0,0,0,0,0,0,0,0,0,0,0,0,0,0,0,0,0,0,0,0,0,0.0796,0.0262,0.0171,0.016,0.0149,0.0187,0.0299,0.0422,0.0422,0,0,0,0,0,0,0,0,0,0,0,0,0,0,0,0,0,0,0,0,0,0,0,0,0,0,0,0,0,0,0,0,0,0,0,0,0,0,0,0,0,0.0133,0.0139,0.0182,0.0256,0.0368,0.0411,0,0,0,0,0,0,0,0,0,0,0,0,0,0,0,0,0,0,0,0,0,0,0,0,0,0,0,0,0,0,0,0,0,0,0,0,0,0,0,0,0,0,0,0,0,0,0.0422,0,0,0,0,0,0,0,0,0,0,0,0,0,0,0,0,0,0,0,0,0,0,0,0,0,0,0,0,0,0,0,0,0,0,0,0,0,0,0,0,0,0,0,0,0,0,0,0,0,0,0,0,0,0,0,0,0,0,0,0,0,0,0,0,0,0,0,0,0,0,0,0,0,0,0,0,0,0,0,0,0,0,0,0,0,0,0,0,0,0,0,0,0,0,0,0,0,0,0,0,0,0,0,0,0,0,0,0,0,0,0,0,0,0,0,0,0,0,0,0,0,0,0,0,0,0,0,0,0,0,0,0,0,0,0,0,0,0,0,0,0,0,0,0,0,0,0,0,0,0,0,0,0,0,0,0,0,0,0,0,0,0,0,0,0,0,0,0,0,0,0,0,0,0,0,0,0,0,0,0,0,0,0,0,0,0,0,0,0,0,0,0,0,0,0,0,0,0,0,0,0,0,0,0,0,0,0,0,0,0,0,0,0,0,0,0,0,0,0,0,0,0,0,0,0,0,0,0,0,0,0,0,0,0,0,0,0,0,0,0,0,0,0,0,0,0,0,0,0,0,0,0,0,0,0,0,0,0,0,0,0,0,0,0,0,0,0,0,0,0,0,0,0,0,0,0,0,0,0,0,0,0,0,0,0,0,0,0,0,0,0,0,0,0,0,0,0,0,0,0,0,0,0,0,0,0,0,0,0,0,0,0,0,0,0,0,0,0,0,0,0,0,0,0,0,0,0,0,0,0,0,0,0,0,0,0,0,0,0,0,0,0,0,0,0,0,0,0,0,0,0,0,0,0,0,0,0,0,0,0,0,0,0,0,0,0,0,0,0,0,0,0,0,0,0,0,0,0,0,0,0,0,0,0,0,0,0,0,0,0,0,0,0,0,0,0,0,0,0,0,0,0,0,0,0,0,0,0,0,0,0,0,0,0,0,0,0,0,0,0,0,0,0,0,0,0,0,0,0,0,0,0,0,0,0,0,0,0,0,0,0,0,0,0,0,0,0,0,0,0,0,0,0,0,0,0,0,0,0,0,0,0,0,0,0,0,0,0,0,0,0,0,0,0,0,0,0,0,0,0,0,0,0,0,0,0,0,0,0,0,0,0,0,0,0,0,0,0,0,0,0,0,0,0,0,0,0,0,0,0,0,0,0,0,0,0,0,0,0,0,0,0,0,0,0,0,0,0,0,0,0,0,0,0,0,0,0,0,0,0,0,0,0,0,0,0,0,0,0,0,0,0,0,0,0,0,0,0,0,0,0,0,0,0,0,0,0,0,0,0,0,0,0,0,0,0,0,0,0,0,0,0,0,0,0,0,0,0,0,0,0,0,0,0,0,0,0,0,0,0,0,0,0,0,0,0,0,0,0,0,0,0,0,0,0,0,0,0,0,0,0,0,0,0,0,0,0,0,0,0,0,0,0,0,0,0,0,0,0,0,0,0,0,0,0,0,0,0,0,0,0,0,0,0,0,0,0,0,0,0,0,0,0,0,0,0,0,0,0,0,0,0,0,0,0,0,0,0,0,0,0,0,0,0,0,0,0,0,0,0,0,0,0,0,0,0,0,0,0,0,0,0,0,0,0]}]],[[{"header":{"parameterUnit":"kt","parameterCategory":2,"dx":1,"dy":1,"la1":29.764190673828125,"la2":30.86408042907715,"lo1":-88.46762084960938,"lo2":-86.9344482421875,"nx":47,"ny":34,"refTime":"2022-10-12T00:00:00:Z","depth":"15","parameterNumber":2,"parameterNumberName":"U-component_of_CURRENTS"},"data":[-0.0155,-0.0133,0.0112,0.0523,0.0993,0.1313,0.1452,0.1426,0.1175,0.0737,0.0336,0.0133,-0.0016,-0.0075,0.0112,0.0427,0.0673,0.0833,0.0966,0.0961,0.078,0.0593,0.0438,0.0208,-0.0091,-0.0395,-0.0491,-0.0101,0.0507,0.0545,0.0139,0.0043,0.0171,0.0219,0.0171,-0.0037,-0.0363,-0.0651,-0.0838,-0.0988,-0.1164,-0.1313,-0.1377,-0.1377,-0.1313,-0.118,-0.1041,-0.0208,-0.0427,-0.0406,-0.0112,0.0262,0.0646,0.0838,0.0769,0.0486,0.0182,0.0043,-0.0037,-0.0091,0.0117,0.047,0.0731,0.0892,0.0945,0.0913,0.087,0.0833,0.0769,0.0577,0.032,0.008,-0.023,-0.0571,-0.0721,-0.0352,0.0422,0.0694,0.0363,0.0278,0.0331,0.0331,0.0336,0.0166,-0.0053,-0.0198,-0.0326,-0.0481,-0.0635,-0.0726,-0.0769,-0.0801,-0.0844,-0.0902,-0.0166,-0.0342,-0.0593,-0.0641,-0.0411,-0.016,-0.0016,0.0005,-0.0053,-0.0069,-0.0043,0.0011,0.0219,0.0545,0.0801,0.0945,0.1041,0.1095,0.1089,0.1068,0.1089,0.1073,0.086,0.0513,0.0219,0.0064,-0.0059,-0.031,-0.0491,-0.0331,0.0288,0.0694,0.0481,0.0336,0.0368,0.0464,0.0459,0.0352,0.0283,0.0166,0.0011,-0.0149,-0.0267,-0.0331,-0.0422,-0.0545,-0.0646,-0.0117,-0.0182,-0.0347,-0.0561,-0.0662,-0.0598,-0.0481,-0.0374,-0.024,-0.0069,0.0133,0.0411,0.0715,0.0918,0.1009,0.1062,0.1116,0.1169,0.1223,0.126,0.1292,0.1329,0.1324,0.1233,0.1046,0.0913,0.0844,0.0667,0.0416,0.0107,-0.0096,0.016,0.0486,0.0566,0.0299,0.0272,0.0416,0.0352,0.0352,0.0278,0.0214,0.0123,0.0016,-0.008,-0.0176,-0.0251,-0.0288,-0.0064,-0.0069,-0.0107,-0.0187,-0.0283,-0.032,-0.0256,-0.0101,0.0112,0.0352,0.0593,0.0812,0.0972,0.1052,0.1084,0.1105,0.1143,0.1196,0.126,0.1319,0.1356,0.1404,0.1511,0.1644,0.1709,0.1623,0.1447,0.1271,0.1078,0.0833,0.0513,0.024,0.0117,0.0347,0.0427,0.0497,0.0299,-0.0011,0.0117,0.0091,0.0128,0.0144,0.0133,0.0101,0.0064,0.0037,0.0032,0.0011,0.0032,0.0059,0.0085,0.0117,0.0171,0.0262,0.0384,0.0518,0.0646,0.0763,0.086,0.094,0.1004,0.1052,0.1084,0.1121,0.118,0.1244,0.1308,0.1351,0.1388,0.1479,0.1639,0.1794,0.1826,0.1709,0.1516,0.1335,0.1207,0.102,0.0817,0.0625,0.031,0.0363,0.0443,0.032,0.04,0.0166,-0.0069,0.0027,0.0128,0.024,0.031,0.0342,0.0315,0.0294,0.0064,0.0133,0.0198,0.0251,0.0315,0.0379,0.0448,0.0513,0.0577,0.0635,0.0694,0.0758,0.0833,0.0908,0.0966,0.1014,0.1062,0.1121,0.1196,0.1265,0.134,0.1415,0.15,0.1618,0.1735,0.1794,0.1762,0.1698,0.166,0.1564,0.1372,0.1148,0.0977,0.0806,0.0486,0.0395,0.0427,0.023,0.0256,0.0443,0.0262,0.0117,0.023,0.0384,0.0448,0.0411,0.0331,0.0048,0.0176,0.0262,0.032,0.0368,0.0416,0.0454,0.0497,0.0534,0.0582,0.0635,0.0694,0.0763,0.0817,0.087,0.0924,0.0982,0.1052,0.1137,0.1239,0.1356,0.1474,0.157,0.165,0.1709,0.1735,0.1735,0.1741,0.1773,0.1789,0.1666,0.141,0.1185,0.102,0.0812,0.0486,0.032,0.0331,0.0267,0.008,0.0117,0.0352,0.0352,0.0288,0.0267,0.0224,0.016,-0.0096,0.0091,0.0235,0.0331,0.039,0.0432,0.0464,0.0497,0.0534,0.0582,0.0635,0.0689,0.0731,0.0763,0.0801,0.0854,0.0924,0.1009,0.1116,0.1244,0.1377,0.1495,0.1591,0.1655,0.1692,0.1719,0.1746,0.1778,0.1805,0.1805,0.173,0.1554,0.1335,0.1153,0.1004,0.0785,0.0443,0.0059,-0.0064,0.0085,0.0075,-0.0128,-0.0187,0.0011,0.0085,0.0075,0.0021,-0.0481,-0.023,0.0053,0.0272,0.04,0.0475,0.0523,0.055,0.0566,0.0598,0.0651,0.0705,0.0742,0.0769,0.0785,0.0833,0.0913,0.1009,0.1127,0.1249,0.1356,0.1436,0.1506,0.1575,0.165,0.1719,0.1783,0.1815,0.181,0.1794,0.1746,0.1639,0.1458,0.1271,0.1137,0.1057,0.0934,0.0683,0.0336,-0.0091,-0.0352,-0.039,-0.031,-0.0609,-0.063,-0.023,-0.0155,-0.0069,0.0059,-0.0064,-0.0032,0.023,0.0416,0.0464,0.047,0.0486,0.0534,0.0603,0.0683,0.0721,0.0705,0.0715,0.079,0.0908,0.102,0.1121,0.1201,0.1265,0.1313,0.1367,0.1436,0.1543,0.165,0.1703,0.1719,0.1698,0.1687,0.1682,0.165,0.1575,0.1452,0.1324,0.1233,0.1169,0.1078,0.095,0.079,0.0545,0.0021,-0.0272,-0.0646,-0.0587,-0.0502,-0.0705,0,0,0.0117,-0.0267,-0.0128,0.0235,0.0539,0.0497,0.0326,0.0262,0.0278,0,0,0,0,0,0,0,0,0,0,0,0,0,0.1356,0.1356,0.1388,0.141,0.1431,0.1484,0.1548,0.1591,0.1596,0.1559,0.1484,0.1372,0.1255,0.1121,0.0977,0.0833,0.0721,0.0561,0.0117,-0.0347,-0.0619,-0.0443,-0.0513,0,0,0,0,0,0,0.0384,0.0166,0,0,0,0,0,0,0,0,0,0,0,0,0,0,0,0,0,0,0.1121,0.1105,0.1153,0.1212,0.1276,0.1313,0.1329,0.1329,0.1303,0.1223,0.1137,0.1052,0.0913,0.0763,0.0641,0.0593,0.0539,0.0278,-0.0267,-0.0854,-0.11,0,0,0,0,0,0,0,0,0,0,0,0,0,0,0,0,0,0,0,0,0,0,0,0,0,0,0,0,0.0881,0.0796,0.0908,0.1121,0.1345,0.1249,0.0966,0.0726,0.0796,0.0934,0.0876,0.0737,0.0593,0.0502,0.0518,0.0529,0.0379,0.0069,-0.0262,0,0,0,0,0,0,0,0,0,0,0,0,0,0,0,0,0,0,0,0,0,0,0,0,0,0,0,0,0,0,0,0,0,0,0,0.0529,0.0235,0.0432,0.0753,0.078,0.0742,0.0646,0.0577,0.0598,0.0619,0.055,0.04,0,0,0,0,0,0,0,0,0,0,0,0,0,0,0,0,0,0,0,0,0,0,0,0,0,0,0,0,0,0,0,0,0,0,0,0,0,0,0.0411,0.0763,0.0796,0.0747,0.0651,0.0593,0.0619,0.0673,0.0683,0,0,0,0,0,0,0,0,0,0,0,0,0,0,0,0,0,0,0,0,0,0,0,0,0,0,0,0,0,0,0,0,0,0,0,0,0,0,0,0,0,0.0587,0.0555,0.0518,0.0529,0.0593,0.0667,0,0,0,0,0,0,0,0,0,0,0,0,0,0,0,0,0,0,0,0,0,0,0,0,0,0,0,0,0,0,0,0,0,0,0,0,0,0,0,0,0,0,0.0235,0.0288,0.0406,0.0625,0.0753,0,0,0,0,0,0,0,0,0,0,0,0,0,0,0,0,0,0,0,0,0,0,0,0,0,0,0,0,0,0,0,0,0,0,0,0,0,0,0,0,0,0,0,0,0,0,0.0182,0,0,0,0,0,0,0,0,0,0,0,0,0,0,0,0,0,0,0,0,0,0,0,0,0,0,0,0,0,0,0,0,0,0,0,0,0,0,0,0,0,0,0,0,0,0,0,0,0,0,0,0,0,0,0,0,0,0,0,0,0,0,0,0,0,0,0,0,0,0,0,0,0,0,0,0,0,0,0,0,0,0,0,0,0,0,0,0,0,0,0,0,0,0,0,0,0,0,0,0,0,0,0,0,0,0,0,0,0,0,0,0,0,0,0,0,0,0,0,0,0,0,0,0,0,0,0,0,0,0,0,0,0,0,0,0,0,0,0,0,0,0,0,0,0,0,0,0,0,0,0,0,0,0,0,0,0,0,0,0,0,0,0,0,0,0,0,0,0,0,0,0,0,0,0,0,0,0,0,0,0,0,0,0,0,0,0,0,0,0,0,0,0,0,0,0,0,0,0,0,0,0,0,0,0,0,0,0,0,0,0,0,0,0,0,0,0,0,0,0,0,0,0,0,0,0,0,0,0,0,0,0,0,0,0,0,0,0,0,0,0,0,0,0,0,0,0,0,0,0,0,0,0,0,0,0,0,0,0,0,0,0,0,0,0,0,0,0,0,0,0,0,0,0,0,0,0,0,0,0,0,0,0,0,0,0,0,0,0,0,0,0,0,0,0,0,0,0,0,0,0,0,0,0,0,0,0,0,0,0,0,0,0,0,0,0,0,0,0,0,0,0,0,0,0,0,0,0,0,0,0,0,0,0,0,0,0,0,0,0,0,0,0,0,0,0,0,0,0,0,0,0,0,0,0,0,0,0,0,0,0,0,0,0,0,0,0,0,0,0,0,0,0,0,0,0,0,0,0,0,0,0,0,0,0,0,0,0,0,0,0,0,0,0,0,0,0,0,0,0,0,0,0,0,0,0,0,0,0,0,0,0,0,0,0,0,0,0,0,0,0,0,0,0,0,0,0,0,0,0,0,0,0,0,0,0,0,0,0,0,0,0,0,0,0,0,0,0,0,0,0,0,0,0,0,0,0,0,0,0,0,0,0,0,0,0,0,0,0,0,0,0,0,0,0,0,0,0,0,0,0,0,0,0,0,0,0,0,0,0,0,0,0,0,0,0,0,0,0,0,0,0,0,0,0,0,0,0,0,0,0,0,0,0,0,0,0,0,0,0,0,0,0,0,0,0,0,0,0,0,0,0,0,0,0,0,0,0,0,0,0,0,0,0,0,0,0,0,0,0,0,0,0,0,0,0,0,0,0,0,0,0,0,0,0,0,0,0,0,0,0,0,0,0,0,0,0,0,0,0,0,0,0,0,0,0,0,0,0,0,0,0,0,0,0,0,0,0,0,0,0,0,0,0,0,0,0,0,0,0,0,0,0,0,0,0,0,0,0,0,0,0,0,0,0,0,0,0,0,0,0,0,0,0,0,0,0,0,0,0,0,0,0,0,0,0,0,0,0,0,0,0,0,0,0,0,0,0,0,0,0,0,0,0,0,0,0,0,0,0,0,0,0,0,0,0,0,0,0,0,0,0,0,0,0,0,0,0,0,0,0,0,0,0,0,0,0,0,0,0,0,0,0,0,0]}],[{"header":{"parameterUnit":"kt","parameterCategory":2,"dx":1,"dy":1,"la1":29.764190673828125,"la2":30.86408042907715,"lo1":-88.46762084960938,"lo2":-86.9344482421875,"nx":47,"ny":34,"refTime":"2022-10-12T00:00:00:Z","depth":"15","parameterNumber":3,"parameterNumberName":"V-component_of_CURRENTS"},"data":[0.0801,0.078,0.1057,0.1725,0.2333,0.2328,0.1981,0.1522,0.1271,0.1548,0.1821,0.1858,0.1981,0.1906,0.1666,0.1548,0.1431,0.1281,0.1052,0.1004,0.1233,0.1014,0.0374,0.0427,0.0406,0.0166,-0.0139,-0.0443,-0.0566,-0.0587,-0.04,-0.0422,-0.071,-0.1025,-0.1324,-0.15,-0.1543,-0.1511,-0.1442,-0.1335,-0.1292,-0.1212,-0.1121,-0.1004,-0.0918,-0.0897,-0.0913,0.0977,0.0763,0.0897,0.1335,0.1874,0.2045,0.1911,0.1735,0.1746,0.189,0.1901,0.1959,0.1975,0.1602,0.1313,0.1271,0.126,0.1196,0.1062,0.1057,0.1233,0.1073,0.0662,0.0646,0.0667,0.0448,-0.0096,-0.0518,-0.0545,-0.063,-0.0609,-0.0486,-0.0448,-0.0571,-0.0913,-0.1313,-0.1548,-0.1703,-0.1735,-0.1671,-0.1644,-0.1644,-0.1634,-0.1586,-0.1495,-0.1383,-0.1303,0.1153,0.0956,0.0881,0.1111,0.1527,0.1799,0.1863,0.1869,0.1943,0.1885,0.1826,0.1847,0.1644,0.1201,0.1062,0.1089,0.1148,0.1169,0.1111,0.1036,0.1078,0.1089,0.102,0.0924,0.0812,0.0619,0.0171,-0.0545,-0.0838,-0.0886,-0.0635,-0.0593,-0.0593,-0.0481,-0.0464,-0.0849,-0.1057,-0.1372,-0.1516,-0.1564,-0.1564,-0.1607,-0.166,-0.165,-0.1538,-0.1383,-0.1303,0.1228,0.1164,0.1036,0.1046,0.1287,0.1532,0.1671,0.1741,0.1741,0.1644,0.1548,0.1447,0.1196,0.0972,0.095,0.0998,0.1052,0.11,0.1089,0.1009,0.0972,0.1057,0.1217,0.1196,0.0972,0.0641,0.0374,-0.0112,-0.0614,-0.1057,-0.0844,-0.0555,-0.0683,-0.0822,-0.0694,-0.071,-0.0614,-0.0924,-0.1057,-0.1185,-0.1196,-0.1207,-0.1281,-0.1319,-0.1281,-0.1196,-0.1143,0.1249,0.1239,0.1207,0.1169,0.1217,0.1313,0.1393,0.1431,0.1399,0.1303,0.1201,0.11,0.0988,0.0929,0.0934,0.095,0.0982,0.1014,0.1014,0.095,0.0897,0.095,0.1127,0.1217,0.1084,0.0747,0.0497,0.0262,-0.0064,-0.0598,-0.0908,-0.0598,-0.0587,-0.086,-0.11,-0.0913,-0.1025,-0.0886,-0.0785,-0.0886,-0.0902,-0.0918,-0.0945,-0.1014,-0.1068,-0.1036,-0.1014,0.1249,0.1244,0.1249,0.1249,0.1249,0.1239,0.1228,0.1207,0.1164,0.11,0.1036,0.0982,0.0956,0.095,0.094,0.0924,0.0929,0.0945,0.094,0.0886,0.0838,0.0849,0.094,0.1046,0.1025,0.0854,0.0673,0.0539,0.0331,-0.0112,-0.0502,-0.0582,-0.0497,-0.0587,-0.0908,-0.1052,-0.1292,-0.1148,-0.1164,-0.0988,-0.0881,-0.0833,-0.0801,-0.0817,-0.0838,-0.0817,-0.0801,0.1212,0.1228,0.1239,0.1244,0.1233,0.1207,0.1175,0.1143,0.1105,0.1062,0.102,0.0988,0.0972,0.0956,0.0934,0.0897,0.0886,0.0886,0.087,0.0822,0.078,0.0769,0.0801,0.087,0.0913,0.0881,0.0822,0.0737,0.0577,0.0267,-0.0139,-0.0368,-0.0336,-0.0416,-0.0555,-0.0833,-0.0977,-0.1191,-0.1212,-0.1148,-0.134,-0.118,-0.0924,-0.0721,-0.0614,-0.0577,-0.0523,0.1132,0.1191,0.1239,0.1255,0.1249,0.1223,0.1196,0.1169,0.1137,0.1095,0.1046,0.1004,0.0972,0.094,0.0908,0.0865,0.0844,0.0828,0.0796,0.0737,0.0673,0.0651,0.0689,0.0753,0.0822,0.086,0.0854,0.078,0.0651,0.0502,0.0171,-0.0085,-0.0208,-0.024,-0.0299,-0.0443,-0.0683,-0.0849,-0.0934,-0.1249,-0.1426,-0.1404,-0.1308,-0.0945,-0.0646,-0.0497,-0.0374,0.1025,0.1137,0.1244,0.1292,0.1303,0.1281,0.126,0.1223,0.1175,0.1121,0.1062,0.1009,0.0966,0.0918,0.0876,0.0822,0.079,0.0753,0.0689,0.0598,0.0523,0.0513,0.0571,0.0662,0.0747,0.0806,0.0817,0.0737,0.0625,0.0561,0.0411,0.0176,-0.0027,-0.0112,-0.0112,-0.0128,-0.0219,-0.0416,-0.0694,-0.0961,-0.1223,-0.1607,-0.15,-0.1041,-0.0918,-0.0635,-0.0432,0.0929,0.0998,0.1137,0.1276,0.1329,0.1319,0.1303,0.1271,0.1212,0.1137,0.1057,0.0998,0.0956,0.0913,0.0854,0.0758,0.0689,0.0625,0.0529,0.0432,0.0374,0.0395,0.0464,0.055,0.063,0.0694,0.0715,0.0673,0.0603,0.0571,0.0502,0.0352,0.0171,0.0027,-0.0027,0.0016,0.008,0.0,-0.016,-0.0491,-0.094,-0.1404,-0.173,-0.166,-0.1046,-0.0545,-0.0438,0.0422,0.055,0.0865,0.1078,0.1212,0.1276,0.134,0.1308,0.1244,0.1132,0.102,0.095,0.0966,0.094,0.0828,0.0651,0.0555,0.0464,0.0368,0.0299,0.0283,0.0315,0.0363,0.0406,0.0464,0.0534,0.0582,0.0593,0.0577,0.0555,0.0523,0.0422,0.0299,0.0166,0.0043,0.0037,0.0155,0.0235,0.0144,-0.0139,-0.0358,-0.0513,-0.1223,-0.1543,-0.1319,-0.0876,-0.0689,0,0,0.0598,0.0598,0.078,0.095,0.086,0.0742,0.0897,0.0865,0.0961,0,0,0,0,0,0,0,0,0,0,0,0,0,0.0358,0.0406,0.047,0.0502,0.0497,0.047,0.047,0.0411,0.0347,0.0246,0.0128,0.0085,0.0187,0.032,0.0267,0.0037,-0.0096,-0.0091,-0.0214,-0.0699,-0.1062,-0.1281,-0.0726,0,0,0,0,0,0,0.0091,0.0374,0,0,0,0,0,0,0,0,0,0,0,0,0,0,0,0,0,0,0.039,0.04,0.039,0.0352,0.0395,0.0395,0.0368,0.0288,0.0198,0.0144,0.0214,0.04,0.0384,0.0166,-0.0021,0.0027,0.0171,0.0043,-0.0288,-0.0651,-0.0534,0,0,0,0,0,0,0,0,0,0,0,0,0,0,0,0,0,0,0,0,0,0,0,0,0,0,0,0,0.0368,0.0438,0.0513,0.0513,0.0352,0.0251,0.032,0.0432,0.0299,0.0406,0.0497,0.0315,0.0085,0.0027,0.016,0.0304,0.0299,0.0123,0.0101,0,0,0,0,0,0,0,0,0,0,0,0,0,0,0,0,0,0,0,0,0,0,0,0,0,0,0,0,0,0,0,0,0,0,0,0.0641,0.0678,0.0619,0.0507,0.0384,0.0203,0.0091,0.0112,0.0283,0.0438,0.0464,0.032,0,0,0,0,0,0,0,0,0,0,0,0,0,0,0,0,0,0,0,0,0,0,0,0,0,0,0,0,0,0,0,0,0,0,0,0,0,0,0.0625,0.032,0.024,0.0182,0.0149,0.023,0.04,0.0507,0.0443,0,0,0,0,0,0,0,0,0,0,0,0,0,0,0,0,0,0,0,0,0,0,0,0,0,0,0,0,0,0,0,0,0,0,0,0,0,0,0,0,0,0.0176,0.0171,0.0208,0.0315,0.0432,0.0432,0,0,0,0,0,0,0,0,0,0,0,0,0,0,0,0,0,0,0,0,0,0,0,0,0,0,0,0,0,0,0,0,0,0,0,0,0,0,0,0,0,0,0.0144,0.0198,0.0278,0.0384,0.0416,0,0,0,0,0,0,0,0,0,0,0,0,0,0,0,0,0,0,0,0,0,0,0,0,0,0,0,0,0,0,0,0,0,0,0,0,0,0,0,0,0,0,0,0,0,0,0.0427,0,0,0,0,0,0,0,0,0,0,0,0,0,0,0,0,0,0,0,0,0,0,0,0,0,0,0,0,0,0,0,0,0,0,0,0,0,0,0,0,0,0,0,0,0,0,0,0,0,0,0,0,0,0,0,0,0,0,0,0,0,0,0,0,0,0,0,0,0,0,0,0,0,0,0,0,0,0,0,0,0,0,0,0,0,0,0,0,0,0,0,0,0,0,0,0,0,0,0,0,0,0,0,0,0,0,0,0,0,0,0,0,0,0,0,0,0,0,0,0,0,0,0,0,0,0,0,0,0,0,0,0,0,0,0,0,0,0,0,0,0,0,0,0,0,0,0,0,0,0,0,0,0,0,0,0,0,0,0,0,0,0,0,0,0,0,0,0,0,0,0,0,0,0,0,0,0,0,0,0,0,0,0,0,0,0,0,0,0,0,0,0,0,0,0,0,0,0,0,0,0,0,0,0,0,0,0,0,0,0,0,0,0,0,0,0,0,0,0,0,0,0,0,0,0,0,0,0,0,0,0,0,0,0,0,0,0,0,0,0,0,0,0,0,0,0,0,0,0,0,0,0,0,0,0,0,0,0,0,0,0,0,0,0,0,0,0,0,0,0,0,0,0,0,0,0,0,0,0,0,0,0,0,0,0,0,0,0,0,0,0,0,0,0,0,0,0,0,0,0,0,0,0,0,0,0,0,0,0,0,0,0,0,0,0,0,0,0,0,0,0,0,0,0,0,0,0,0,0,0,0,0,0,0,0,0,0,0,0,0,0,0,0,0,0,0,0,0,0,0,0,0,0,0,0,0,0,0,0,0,0,0,0,0,0,0,0,0,0,0,0,0,0,0,0,0,0,0,0,0,0,0,0,0,0,0,0,0,0,0,0,0,0,0,0,0,0,0,0,0,0,0,0,0,0,0,0,0,0,0,0,0,0,0,0,0,0,0,0,0,0,0,0,0,0,0,0,0,0,0,0,0,0,0,0,0,0,0,0,0,0,0,0,0,0,0,0,0,0,0,0,0,0,0,0,0,0,0,0,0,0,0,0,0,0,0,0,0,0,0,0,0,0,0,0,0,0,0,0,0,0,0,0,0,0,0,0,0,0,0,0,0,0,0,0,0,0,0,0,0,0,0,0,0,0,0,0,0,0,0,0,0,0,0,0,0,0,0,0,0,0,0,0,0,0,0,0,0,0,0,0,0,0,0,0,0,0,0,0,0,0,0,0,0,0,0,0,0,0,0,0,0,0,0,0,0,0,0,0,0,0,0,0,0,0,0,0,0,0,0,0,0,0,0,0,0,0,0,0,0,0,0,0,0,0,0,0,0,0,0,0,0,0,0,0,0,0,0,0,0,0,0,0,0,0,0,0,0,0,0,0,0,0,0,0,0,0,0,0,0,0,0,0,0,0,0,0,0,0,0,0,0,0,0,0,0,0,0,0,0,0,0,0,0,0,0,0,0,0,0,0,0,0,0,0,0,0,0,0,0,0,0,0,0,0,0,0,0,0,0,0,0,0,0,0,0,0,0,0,0,0,0,0,0,0,0,0,0,0,0,0,0,0,0,0,0,0,0,0,0,0,0,0,0,0]}]],[[{"header":{"parameterUnit":"kt","parameterCategory":2,"dx":1,"dy":1,"la1":29.764190673828125,"la2":30.86408042907715,"lo1":-88.46762084960938,"lo2":-86.9344482421875,"nx":47,"ny":34,"refTime":"2022-10-12T00:00:00:Z","depth":"20","parameterNumber":2,"parameterNumberName":"U-component_of_CURRENTS"},"data":[-0.0133,-0.0101,0.016,0.0566,0.1041,0.1351,0.1495,0.1458,0.1196,0.0763,0.0368,0.016,0.0011,-0.0043,0.0149,0.0459,0.0699,0.0854,0.0977,0.0966,0.0785,0.0603,0.0416,0.0187,-0.0085,-0.0379,-0.0432,0.0043,0.0454,0.0128,-0.0053,-0.0027,-0.023,-0.0384,-0.0464,-0.0694,-0.0854,-0.0993,-0.1009,-0.1127,-0.1143,-0.1297,-0.1372,-0.1372,-0.1308,-0.1169,-0.103,-0.0192,-0.04,-0.0368,-0.0064,0.0304,0.0683,0.087,0.0796,0.0513,0.0208,0.0075,-0.0005,-0.0053,0.016,0.0502,0.0758,0.0913,0.0956,0.0918,0.0876,0.0844,0.078,0.0566,0.0304,0.0085,-0.0219,-0.0566,-0.071,-0.0262,0.0326,0.0374,0.016,0.0144,0.0085,0.0171,0.0246,0.0117,-0.0171,-0.0438,-0.0513,-0.0534,-0.0651,-0.0721,-0.0774,-0.0801,-0.0838,-0.0897,-0.0155,-0.0326,-0.0571,-0.0603,-0.0374,-0.0128,0.0016,0.0032,-0.0016,-0.0032,-0.0011,0.0043,0.0262,0.0582,0.0822,0.0966,0.1057,0.1105,0.1095,0.1068,0.1095,0.1078,0.086,0.0513,0.024,0.0096,-0.0027,-0.0294,-0.0491,-0.0299,0.016,0.0336,0.0235,0.0251,0.0331,0.0507,0.0481,0.0374,0.0235,0.0144,0.0027,-0.0128,-0.0246,-0.032,-0.0411,-0.0529,-0.0625,-0.0107,-0.0166,-0.0331,-0.0545,-0.0635,-0.0566,-0.0448,-0.0342,-0.0208,-0.0043,0.0166,0.0443,0.0742,0.094,0.1025,0.1078,0.1127,0.118,0.1228,0.126,0.1292,0.1329,0.1324,0.1239,0.1062,0.094,0.0886,0.0769,0.0497,0.0091,-0.0117,0.0192,0.0235,0.0246,0.0267,0.0374,0.0438,0.0384,0.0395,0.032,0.0251,0.0144,0.0037,-0.0059,-0.0155,-0.023,-0.0262,-0.0048,-0.0053,-0.0091,-0.0171,-0.0267,-0.0299,-0.0224,-0.0069,0.0144,0.0379,0.0614,0.0828,0.0988,0.1068,0.1095,0.1116,0.1148,0.1201,0.1265,0.1319,0.1351,0.1399,0.1511,0.1644,0.1714,0.1639,0.1468,0.1292,0.11,0.0812,0.0448,0.0224,0.031,0.0267,0.0101,0.0256,0.0235,0.0011,0.0133,0.0117,0.0149,0.0171,0.0155,0.0123,0.008,0.0053,0.0053,0.0021,0.0048,0.0075,0.0101,0.0133,0.0187,0.0278,0.04,0.0534,0.0662,0.0774,0.0876,0.0956,0.102,0.1062,0.1089,0.1132,0.1185,0.1249,0.1308,0.1345,0.1383,0.1474,0.1639,0.1794,0.1831,0.1719,0.1516,0.1329,0.1164,0.0972,0.0801,0.0614,0.0443,0.0283,0.0005,-0.0272,-0.0149,0.0059,-0.0075,0.0048,0.0182,0.0283,0.0331,0.0358,0.0331,0.0315,0.0075,0.0149,0.0208,0.0267,0.0331,0.0395,0.0464,0.0529,0.0593,0.0651,0.0705,0.0774,0.0844,0.0913,0.0972,0.102,0.1068,0.1127,0.1196,0.1265,0.1329,0.1399,0.149,0.1607,0.173,0.1794,0.1762,0.1692,0.1644,0.1548,0.1345,0.1121,0.0956,0.079,0.0539,0.031,-0.0016,-0.032,-0.0481,-0.055,-0.0336,0.0176,0.0272,0.0406,0.0459,0.0427,0.0347,0.0064,0.0187,0.0272,0.0336,0.0384,0.0432,0.047,0.0513,0.055,0.0593,0.0641,0.0699,0.0758,0.0806,0.0854,0.0908,0.0966,0.1036,0.1116,0.1207,0.1313,0.1426,0.1532,0.1623,0.1687,0.1719,0.1719,0.173,0.1757,0.1762,0.1628,0.1372,0.1148,0.0993,0.0801,0.0497,0.0198,-0.0214,-0.0464,-0.0758,-0.0796,-0.0502,-0.0112,0.0214,0.0278,0.024,0.0176,-0.0091,0.0096,0.024,0.0342,0.04,0.0443,0.0475,0.0502,0.0539,0.0582,0.063,0.0683,0,0,0,0,0,0.0977,0.1068,0.1175,0.1292,0.1404,0.149,0.1554,0.1612,0.1671,0.1709,0.1741,0.1773,0.1778,0.1687,0.1506,0.1287,0.1116,0.0982,0.078,0.0432,0.0075,-0.016,-0.0646,-0.1169,-0.1506,-0.1169,-0.0491,-0.0064,0.008,0.0037,0,0,0,0,0.04,0.0475,0.0518,0,0,0,0,0,0,0,0,0,0,0,0,0,0,0,0,0,0.1538,0.1586,0.1666,0.1741,0.1762,0.1751,0.1709,0.1591,0.141,0.1228,0.1111,0.1041,0.0929,0.0678,0.031,-0.0085,-0.0262,-0.0715,-0.1468,-0.1751,-0.1196,-0.0288,-0.0128,0,0,0,0,0,0,0,0,0,0,0,0,0,0,0,0,0,0,0,0,0,0,0,0,0,0,0.1575,0.1586,0.1612,0.1634,0.1634,0.1602,0.1522,0.1404,0.1287,0.1201,0.1148,0.1068,0.0945,0.0785,0.0518,0.0091,-0.0486,-0.1201,-0.1831,-0.1682,-0.1127,0,0,0,0,0,0,0,0,0,0,0,0,0,0,0,0,0,0,0,0,0,0,0,0,0,0,0,0,0.134,0.1404,0.1479,0.1522,0.1527,0.149,0.141,0.1308,0.1212,0.11,0.0966,0.0822,0.0705,0.055,0.0091,-0.047,-0.1201,-0.1975,-0.2141,0,0,0,0,0,0,0,0,0,0,0,0,0,0,0,0,0,0,0,0,0,0,0,0,0,0,0,0,0,0.1148,0.1223,0.126,0.1255,0.1255,0.1244,0.1164,0.1084,0.102,0.0897,0.0742,0.0619,0.0582,0.0539,0.0272,-0.0358,-0.0865,-0.1116,0,0,0,0,0,0,0,0,0,0,0,0,0,0,0,0,0,0,0,0,0,0,0,0,0,0,0,0,0,0,0,0,0,0,0,0,0,0.0881,0.0854,0.0721,0.0571,0.0491,0.0518,0.0534,0.0384,0.0069,-0.0192,0,0,0,0,0,0,0,0,0,0,0,0,0,0,0,0,0,0,0,0,0,0,0,0,0,0,0,0,0,0,0,0,0,0,0,0,0,0,0.0726,0.0753,0.0726,0.063,0.0561,0.0593,0.0619,0.0555,0.0416,0,0,0,0,0,0,0,0,0,0,0,0,0,0,0,0,0,0,0,0,0,0,0,0,0,0,0,0,0,0,0,0,0,0,0,0,0,0,0,0,0,0.0726,0.0625,0.0566,0.0609,0.0678,0.0689,0,0,0,0,0,0,0,0,0,0,0,0,0,0,0,0,0,0,0,0,0,0,0,0,0,0,0,0,0,0,0,0,0,0,0,0,0,0,0,0,0,0,0,0,0.0513,0.0582,0.0657,0,0,0,0,0,0,0,0,0,0,0,0,0,0,0,0,0,0,0,0,0,0,0,0,0,0,0,0,0,0,0,0,0,0,0,0,0,0,0,0,0,0,0,0,0,0.0609,0.0731,0,0,0,0,0,0,0,0,0,0,0,0,0,0,0,0,0,0,0,0,0,0,0,0,0,0,0,0,0,0,0,0,0,0,0,0,0,0,0,0,0,0,0,0,0,0,0,0,0,0,0,0,0,0,0,0,0,0,0,0,0,0,0,0,0,0,0,0,0,0,0,0,0,0,0,0,0,0,0,0,0,0,0,0,0,0,0,0,0,0,0,0,0,0,0,0,0,0,0,0,0,0,0,0,0,0,0,0,0,0,0,0,0,0,0,0,0,0,0,0,0,0,0,0,0,0,0,0,0,0,0,0,0,0,0,0,0,0,0,0,0,0,0,0,0,0,0,0,0,0,0,0,0,0,0,0,0,0,0,0,0,0,0,0,0,0,0,0,0,0,0,0,0,0,0,0,0,0,0,0,0,0,0,0,0,0,0,0,0,0,0,0,0,0,0,0,0,0,0,0,0,0,0,0,0,0,0,0,0,0,0,0,0,0,0,0,0,0,0,0,0,0,0,0,0,0,0,0,0,0,0,0,0,0,0,0,0,0,0,0,0,0,0,0,0,0,0,0,0,0,0,0,0,0,0,0,0,0,0,0,0,0,0,0,0,0,0,0,0,0,0,0,0,0,0,0,0,0,0,0,0,0,0,0,0,0,0,0,0,0,0,0,0,0,0,0,0,0,0,0,0,0,0,0,0,0,0,0,0,0,0,0,0,0,0,0,0,0,0,0,0,0,0,0,0,0,0,0,0,0,0,0,0,0,0,0,0,0,0,0,0,0,0,0,0,0,0,0,0,0,0,0,0,0,0,0,0,0,0,0,0,0,0,0,0,0,0,0,0,0,0,0,0,0,0,0,0,0,0,0,0,0,0,0,0,0,0,0,0,0,0,0,0,0,0,0,0,0,0,0,0,0,0,0,0,0,0,0,0,0,0,0,0,0,0,0,0,0,0,0,0,0,0,0,0,0,0,0,0,0,0,0,0,0,0,0,0,0,0,0,0,0,0,0,0,0,0,0,0,0,0,0,0,0,0,0,0,0,0,0,0,0,0,0,0,0,0,0,0,0,0,0,0,0,0,0,0,0,0,0,0,0,0,0,0,0,0,0,0,0,0,0,0,0,0,0,0,0,0,0,0,0,0,0,0,0,0,0,0,0,0,0,0,0,0,0,0,0,0,0,0,0,0,0,0,0,0,0,0,0,0,0,0,0,0,0,0,0,0,0,0,0,0,0,0,0,0,0,0,0,0,0,0,0,0,0,0,0,0,0,0,0,0,0,0,0,0,0,0,0,0,0,0,0,0,0,0,0,0,0,0,0,0,0,0,0,0,0,0,0,0,0,0,0,0,0,0,0,0,0,0,0,0,0,0,0,0,0,0,0,0,0,0,0,0,0,0,0,0,0,0,0,0,0,0,0,0,0,0,0,0,0,0,0,0,0,0,0,0,0,0,0,0,0,0,0,0,0,0,0,0,0,0,0,0,0,0,0,0,0,0,0,0,0,0,0,0,0,0,0,0,0,0,0,0,0,0,0,0,0,0,0,0,0,0,0,0,0,0,0,0,0,0,0,0,0,0,0,0,0,0,0,0,0,0,0,0,0,0,0,0,0,0,0,0,0,0,0,0,0,0,0,0,0,0,0,0,0,0,0,0,0,0,0,0,0,0,0,0,0,0,0,0,0,0,0,0,0,0,0,0,0]}],[{"header":{"parameterUnit":"kt","parameterCategory":2,"dx":1,"dy":1,"la1":29.764190673828125,"la2":30.86408042907715,"lo1":-88.46762084960938,"lo2":-86.9344482421875,"nx":47,"ny":34,"refTime":"2022-10-12T00:00:00:Z","depth":"20","parameterNumber":3,"parameterNumberName":"V-component_of_CURRENTS"},"data":[0.079,0.0742,0.0993,0.1682,0.229,0.2296,0.1911,0.1479,0.1249,0.1532,0.1805,0.1847,0.1975,0.1895,0.166,0.1538,0.142,0.1276,0.1052,0.0998,0.1239,0.102,0.0395,0.0448,0.0422,0.0182,-0.0128,-0.0406,-0.0657,-0.0998,-0.0812,-0.1004,-0.1287,-0.1586,-0.1815,-0.1981,-0.2029,-0.2061,-0.1863,-0.1709,-0.1372,-0.1329,-0.1175,-0.1041,-0.095,-0.0924,-0.0934,0.0966,0.0742,0.0854,0.1297,0.1842,0.2013,0.1847,0.1698,0.173,0.1879,0.189,0.1954,0.1965,0.1591,0.1308,0.1265,0.1249,0.1185,0.1057,0.1057,0.1233,0.1078,0.0678,0.0673,0.0694,0.0475,-0.0075,-0.0459,-0.0534,-0.0726,-0.1073,-0.1004,-0.0993,-0.095,-0.1276,-0.1612,-0.1778,-0.1911,-0.2029,-0.204,-0.1895,-0.1815,-0.1703,-0.1639,-0.1532,-0.1404,-0.1319,0.1143,0.0945,0.086,0.1073,0.1495,0.1773,0.1831,0.1847,0.1933,0.1874,0.1821,0.1842,0.1623,0.1185,0.1046,0.1073,0.1127,0.1153,0.11,0.1036,0.1073,0.1089,0.1025,0.0945,0.0849,0.0657,0.0203,-0.0448,-0.0635,-0.0758,-0.0721,-0.1025,-0.1217,-0.0838,-0.0619,-0.1046,-0.1271,-0.1596,-0.1698,-0.1725,-0.166,-0.1644,-0.1698,-0.1671,-0.1548,-0.1393,-0.1308,0.1217,0.1153,0.1025,0.1036,0.1265,0.1511,0.165,0.1719,0.1725,0.1634,0.1532,0.1426,0.1175,0.095,0.0929,0.0972,0.1025,0.1078,0.1073,0.0998,0.0966,0.1052,0.1212,0.1201,0.0988,0.0662,0.04,-0.0032,-0.0224,-0.063,-0.0673,-0.0817,-0.1025,-0.1324,-0.1009,-0.0758,-0.0625,-0.0924,-0.1046,-0.1169,-0.1207,-0.1212,-0.1292,-0.1324,-0.1287,-0.1201,-0.1148,0.1233,0.1223,0.1196,0.1159,0.1207,0.1303,0.1377,0.141,0.1377,0.1287,0.118,0.1073,0.0966,0.0908,0.0908,0.0924,0.0956,0.0993,0.0993,0.0934,0.0886,0.0945,0.1116,0.1212,0.1084,0.0747,0.0502,0.0288,0.0198,-0.0187,-0.055,-0.0561,-0.0726,-0.0972,-0.1463,-0.118,-0.118,-0.0982,-0.079,-0.0886,-0.0897,-0.0918,-0.095,-0.102,-0.1068,-0.1041,-0.102,0.1223,0.1223,0.1228,0.1228,0.1233,0.1217,0.1207,0.1185,0.1137,0.1078,0.1014,0.0961,0.0934,0.0924,0.0918,0.0897,0.0902,0.0918,0.0918,0.087,0.0828,0.0844,0.0934,0.1041,0.102,0.0849,0.0667,0.0545,0.0358,0.0043,-0.023,-0.0534,-0.0481,-0.0657,-0.0993,-0.1271,-0.1639,-0.142,-0.1356,-0.1009,-0.0854,-0.0801,-0.079,-0.0812,-0.0838,-0.0817,-0.0812,0.118,0.1191,0.1212,0.1217,0.1207,0.118,0.1153,0.1121,0.1084,0.1041,0.0998,0.0966,0.0945,0.0924,0.0902,0.087,0.086,0.086,0.0849,0.0806,0.0763,0.0753,0.0796,0.0865,0.0902,0.0876,0.0812,0.0731,0.0582,0.0294,-0.008,-0.0326,-0.031,-0.04,-0.0609,-0.0934,-0.1271,-0.1292,-0.1548,-0.1452,-0.1516,-0.1143,-0.0854,-0.071,-0.0614,-0.0577,-0.0529,0.1105,0.1159,0.1201,0.1217,0.1212,0.1191,0.1164,0.1137,0.1105,0.1057,0.1004,0.0961,0.0924,0.0892,0.086,0.0822,0.0801,0.079,0.0758,0.0694,0.063,0.0609,0.0651,0.0726,0.0796,0.0838,0.0838,0.0758,0.0635,0.0502,0.0198,-0.0053,-0.0182,-0.0224,-0.0288,-0.0438,-0.0758,-0.0982,-0.1095,-0.141,-0.1986,-0.1703,-0.1447,-0.0854,-0.0646,-0.0497,-0.0384,0.1009,0.11,0.118,0.1228,0.1233,0.1212,0.1185,0.1153,0.1111,0.1062,0.1009,0.0961,0,0,0,0,0,0.071,0.0641,0.0539,0.0459,0.0443,0.0502,0.0582,0.0678,0.0758,0.0774,0.0699,0.0598,0.0534,0.04,0.0187,0.0,-0.0085,-0.0096,-0.0117,-0.0198,-0.047,-0.0812,-0.0929,-0.134,-0.1586,-0.1975,-0.1516,-0.0876,-0.0635,-0.0438,0,0,0,0,0.1271,0.1255,0.1233,0,0,0,0,0,0,0,0,0,0,0,0,0,0,0,0,0,0.0555,0.0598,0.063,0.0614,0.0561,0.0534,0.0475,0.0342,0.0182,0.0053,-0.0005,0.0037,0.0096,0.0016,-0.0117,-0.0486,-0.0892,-0.0956,-0.1666,-0.1634,-0.1116,-0.0534,-0.0432,0,0,0,0,0,0,0,0,0,0,0,0,0,0,0,0,0,0,0,0,0,0,0,0,0,0,0.0523,0.0529,0.0529,0.0518,0.0486,0.04,0.0294,0.0176,0.0069,0.0069,0.0176,0.0246,0.0171,-0.0123,-0.0331,-0.0582,-0.0737,-0.1239,-0.0822,-0.0833,-0.0331,0,0,0,0,0,0,0,0,0,0,0,0,0,0,0,0,0,0,0,0,0,0,0,0,0,0,0,0,0.0464,0.0438,0.0438,0.0384,0.0326,0.0246,0.0149,0.0112,0.0208,0.0331,0.0272,0.0043,-0.008,-0.008,-0.0214,-0.0662,-0.0459,-0.0993,-0.0625,0,0,0,0,0,0,0,0,0,0,0,0,0,0,0,0,0,0,0,0,0,0,0,0,0,0,0,0,0,0.0363,0.0395,0.039,0.0368,0.0315,0.0214,0.0171,0.0235,0.0406,0.039,0.0171,-0.0016,0.0032,0.0176,0.0053,-0.0166,-0.0326,0.0027,0,0,0,0,0,0,0,0,0,0,0,0,0,0,0,0,0,0,0,0,0,0,0,0,0,0,0,0,0,0,0,0,0,0,0,0,0,0.0406,0.0497,0.032,0.0107,0.0053,0.0182,0.0315,0.0315,0.0214,0.0208,0,0,0,0,0,0,0,0,0,0,0,0,0,0,0,0,0,0,0,0,0,0,0,0,0,0,0,0,0,0,0,0,0,0,0,0,0,0,0.0497,0.039,0.0235,0.0139,0.016,0.031,0.0454,0.0486,0.0363,0,0,0,0,0,0,0,0,0,0,0,0,0,0,0,0,0,0,0,0,0,0,0,0,0,0,0,0,0,0,0,0,0,0,0,0,0,0,0,0,0,0.0208,0.0187,0.0272,0.0422,0.0529,0.0464,0,0,0,0,0,0,0,0,0,0,0,0,0,0,0,0,0,0,0,0,0,0,0,0,0,0,0,0,0,0,0,0,0,0,0,0,0,0,0,0,0,0,0,0,0.0342,0.0454,0.0454,0,0,0,0,0,0,0,0,0,0,0,0,0,0,0,0,0,0,0,0,0,0,0,0,0,0,0,0,0,0,0,0,0,0,0,0,0,0,0,0,0,0,0,0,0,0.04,0.0427,0,0,0,0,0,0,0,0,0,0,0,0,0,0,0,0,0,0,0,0,0,0,0,0,0,0,0,0,0,0,0,0,0,0,0,0,0,0,0,0,0,0,0,0,0,0,0,0,0,0,0,0,0,0,0,0,0,0,0,0,0,0,0,0,0,0,0,0,0,0,0,0,0,0,0,0,0,0,0,0,0,0,0,0,0,0,0,0,0,0,0,0,0,0,0,0,0,0,0,0,0,0,0,0,0,0,0,0,0,0,0,0,0,0,0,0,0,0,0,0,0,0,0,0,0,0,0,0,0,0,0,0,0,0,0,0,0,0,0,0,0,0,0,0,0,0,0,0,0,0,0,0,0,0,0,0,0,0,0,0,0,0,0,0,0,0,0,0,0,0,0,0,0,0,0,0,0,0,0,0,0,0,0,0,0,0,0,0,0,0,0,0,0,0,0,0,0,0,0,0,0,0,0,0,0,0,0,0,0,0,0,0,0,0,0,0,0,0,0,0,0,0,0,0,0,0,0,0,0,0,0,0,0,0,0,0,0,0,0,0,0,0,0,0,0,0,0,0,0,0,0,0,0,0,0,0,0,0,0,0,0,0,0,0,0,0,0,0,0,0,0,0,0,0,0,0,0,0,0,0,0,0,0,0,0,0,0,0,0,0,0,0,0,0,0,0,0,0,0,0,0,0,0,0,0,0,0,0,0,0,0,0,0,0,0,0,0,0,0,0,0,0,0,0,0,0,0,0,0,0,0,0,0,0,0,0,0,0,0,0,0,0,0,0,0,0,0,0,0,0,0,0,0,0,0,0,0,0,0,0,0,0,0,0,0,0,0,0,0,0,0,0,0,0,0,0,0,0,0,0,0,0,0,0,0,0,0,0,0,0,0,0,0,0,0,0,0,0,0,0,0,0,0,0,0,0,0,0,0,0,0,0,0,0,0,0,0,0,0,0,0,0,0,0,0,0,0,0,0,0,0,0,0,0,0,0,0,0,0,0,0,0,0,0,0,0,0,0,0,0,0,0,0,0,0,0,0,0,0,0,0,0,0,0,0,0,0,0,0,0,0,0,0,0,0,0,0,0,0,0,0,0,0,0,0,0,0,0,0,0,0,0,0,0,0,0,0,0,0,0,0,0,0,0,0,0,0,0,0,0,0,0,0,0,0,0,0,0,0,0,0,0,0,0,0,0,0,0,0,0,0,0,0,0,0,0,0,0,0,0,0,0,0,0,0,0,0,0,0,0,0,0,0,0,0,0,0,0,0,0,0,0,0,0,0,0,0,0,0,0,0,0,0,0,0,0,0,0,0,0,0,0,0,0,0,0,0,0,0,0,0,0,0,0,0,0,0,0,0,0,0,0,0,0,0,0,0,0,0,0,0,0,0,0,0,0,0,0,0,0,0,0,0,0,0,0,0,0,0,0,0,0,0,0,0,0,0,0,0,0,0,0,0,0,0,0,0,0,0,0,0,0,0,0,0,0,0,0,0,0,0,0,0,0,0,0,0,0,0,0,0,0,0,0,0,0,0,0,0,0,0,0,0,0,0,0,0,0,0,0,0,0,0,0,0,0,0,0,0,0,0,0,0,0,0,0,0,0,0,0,0,0,0,0,0,0,0,0,0,0,0,0,0,0,0,0,0,0,0,0,0,0,0,0,0,0,0,0,0,0,0,0,0,0,0,0,0,0,0,0,0,0]}]],[[{"header":{"parameterUnit":"kt","parameterCategory":2,"dx":1,"dy":1,"la1":29.764190673828125,"la2":30.86408042907715,"lo1":-88.46762084960938,"lo2":-86.9344482421875,"nx":47,"ny":34,"refTime":"2022-10-12T00:00:00:Z","depth":"25","parameterNumber":2,"parameterNumberName":"U-component_of_CURRENTS"},"data":[-0.0112,-0.0166,-0.0235,-0.0416,-0.023,0.0219,0.0662,0.0913,0.0924,0.0582,0.0336,0.0219,0.0053,-0.0011,0.0182,0.0486,0.0721,0.087,0.0977,0.0966,0.079,0.0603,0.039,0.0155,-0.008,-0.031,-0.0363,-0.0219,-0.0363,-0.0694,-0.1185,-0.1223,-0.1191,-0.1468,-0.1676,-0.189,-0.2274,-0.2579,-0.2792,-0.2846,-0.2515,-0.2344,-0.2221,-0.1959,-0.1618,-0.141,-0.1308,-0.0176,-0.0331,-0.0448,-0.0571,-0.0689,-0.0481,-0.0005,0.0374,0.0342,0.0224,0.0187,0.0059,0.0027,0.0235,0.0539,0.0769,0.0924,0.0961,0.0908,0.087,0.086,0.079,0.055,0.0283,0.0091,-0.0198,-0.0534,-0.0603,-0.0278,-0.0267,-0.0635,-0.1153,-0.1148,-0.0977,-0.1084,-0.095,-0.11,-0.149,-0.1879,-0.2013,-0.1837,-0.1666,-0.141,-0.1276,-0.1175,-0.1095,-0.0977,-0.0144,-0.031,-0.0523,-0.0529,-0.0315,-0.0107,0.0037,0.0064,0.0107,0.0112,0.0053,0.0091,0.0326,0.0635,0.0838,0.0966,0.1057,0.11,0.1078,0.1057,0.1089,0.1078,0.0849,0.0502,0.0272,0.0192,0.0064,-0.0176,-0.039,-0.0203,-0.0075,-0.0379,-0.0966,-0.1009,-0.0796,-0.0507,-0.0235,-0.0464,-0.0721,-0.0769,-0.0577,-0.0352,-0.0262,-0.0336,-0.039,-0.0491,-0.0598,-0.0096,-0.0155,-0.032,-0.0518,-0.0571,-0.0422,-0.0251,-0.016,-0.0123,0.0,0.0203,0.0481,0.0769,0.095,0.1025,0.1062,0.1111,0.1169,0.1212,0.1239,0.1276,0.1319,0.1319,0.1233,0.1073,0.0982,0.1025,0.1057,0.0801,0.0192,-0.0043,-0.0005,-0.0128,-0.0651,-0.095,-0.0683,-0.0214,-0.032,-0.0053,-0.0053,-0.0021,0.0101,0.0059,-0.0043,-0.0133,-0.0198,-0.0219,-0.0037,-0.0043,-0.0075,-0.016,-0.0256,-0.0278,-0.0192,-0.0027,0.0182,0.04,0.0625,0.0838,0.0993,0.1068,0.1084,0.1095,0.1127,0.118,0.1239,0.1287,0.1324,0.1377,0.1495,0.1634,0.1709,0.165,0.1511,0.1404,0.1436,0.1116,0.047,0.0219,0.0411,0.024,-0.0347,-0.0998,-0.1025,-0.0913,-0.0374,-0.0112,0.0043,0.0198,0.0208,0.0133,0.0096,0.0069,0.0075,0.0037,0.0053,0.0085,0.0117,0.0144,0.0203,0.0294,0.0416,0.0545,0.0667,0.0774,0.087,0.095,0.1009,0.1041,0.1068,0.1105,0.1153,0.1212,0.126,0.1292,0.1335,0.1442,0.1612,0.1773,0.1821,0.1714,0.1506,0.1324,0.1148,0.0902,0.0747,0.0587,0.0619,0.0315,-0.016,-0.0972,-0.1345,-0.1522,-0.126,-0.0699,-0.0208,0.0064,0.0251,0.0304,0.0326,0.0326,0.0085,0.0155,0.0214,0.0272,0.0336,0.04,0.047,0.0534,0.0593,0.0646,0.0705,0.0763,0,0,0,0,0,0.11,0.1164,0.1223,0.1281,0.134,0.141,0.1532,0.1671,0.1751,0.1735,0.166,0.1554,0.1335,0.11,0.0972,0.0892,0.0747,0.0598,0.0235,-0.0123,-0.0881,-0.1554,-0.1757,-0.1863,-0.1351,-0.0582,0.0032,0.0363,0.0432,0.0374,0.0069,0.0187,0.0272,0.0336,0.039,0.0432,0.0475,0,0,0,0,0,0,0,0,0,0,0,0,0,0,0,0,0.1543,0.1596,0.1623,0.1634,0.165,0.165,0.1532,0.1297,0.1127,0.1025,0.0924,0.0753,0.0497,0.0053,-0.0256,-0.0924,-0.1516,-0.1885,-0.1778,-0.1372,-0.0886,-0.0272,0.0133,0.0192,0,0,0,0,0,0,0,0,0,0,0,0,0,0,0,0,0,0,0,0,0,0,0,0,0,0,0.1602,0.1618,0.165,0.1655,0.1564,0.1377,0.1169,0.102,0.0924,0.0742,0.0379,0.0027,-0.024,-0.0657,-0.1287,-0.1815,-0.1991,-0.1495,-0.1014,-0.0705,-0.0214,0,0,0,0,0,0,0,0,0,0,0,0,0,0,0,0,0,0,0,0,0,0,0,0,0,0,0,0,0,0.1644,0.1602,0.1479,0.1303,0.1132,0.1036,0.0988,0.0886,0.0598,0.0155,-0.0149,-0.0224,-0.0603,-0.1426,-0.2077,-0.2082,-0.1319,-0.0774,0,0,0,0,0,0,0,0,0,0,0,0,0,0,0,0,0,0,0,0,0,0,0,0,0,0,0,0,0,0,0,0,0,0.1313,0.1207,0.1132,0.1084,0.103,0.0924,0.0731,0.032,0.0085,-0.04,-0.1025,-0.1783,-0.2109,-0.2146,0,0,0,0,0,0,0,0,0,0,0,0,0,0,0,0,0,0,0,0,0,0,0,0,0,0,0,0,0,0,0,0,0,0,0,0,0,0.1041,0.0924,0.079,0.0678,0.0497,0.0133,-0.039,-0.1127,-0.1821,-0.2301,0,0,0,0,0,0,0,0,0,0,0,0,0,0,0,0,0,0,0,0,0,0,0,0,0,0,0,0,0,0,0,0,0,0,0,0,0,0,0.0849,0.0689,0.0582,0.0555,0.0529,0.0246,-0.0166,-0.0326,-0.0491,0,0,0,0,0,0,0,0,0,0,0,0,0,0,0,0,0,0,0,0,0,0,0,0,0,0,0,0,0,0,0,0,0,0,0,0,0,0,0,0.0689,0.0545,0.0475,0.0513,0.0529,0.0384,0.0027,-0.0192,0,0,0,0,0,0,0,0,0,0,0,0,0,0,0,0,0,0,0,0,0,0,0,0,0,0,0,0,0,0,0,0,0,0,0,0,0,0,0,0,0,0,0,0,0.0614,0.0555,0.0443,0,0,0,0,0,0,0,0,0,0,0,0,0,0,0,0,0,0,0,0,0,0,0,0,0,0,0,0,0,0,0,0,0,0,0,0,0,0,0,0,0,0,0,0,0,0,0,0,0,0,0,0,0,0,0,0,0,0,0,0,0,0,0,0,0,0,0,0,0,0,0,0,0,0,0,0,0,0,0,0,0,0,0,0,0,0,0,0,0,0,0,0,0,0,0,0,0,0,0,0,0,0,0,0,0,0,0,0,0,0,0,0,0,0,0,0,0,0,0,0,0,0,0,0,0,0,0,0,0,0,0,0,0,0,0,0,0,0,0,0,0,0,0,0,0,0,0,0,0,0,0,0,0,0,0,0,0,0,0,0,0,0,0,0,0,0,0,0,0,0,0,0,0,0,0,0,0,0,0,0,0,0,0,0,0,0,0,0,0,0,0,0,0,0,0,0,0,0,0,0,0,0,0,0,0,0,0,0,0,0,0,0,0,0,0,0,0,0,0,0,0,0,0,0,0,0,0,0,0,0,0,0,0,0,0,0,0,0,0,0,0,0,0,0,0,0,0,0,0,0,0,0,0,0,0,0,0,0,0,0,0,0,0,0,0,0,0,0,0,0,0,0,0,0,0,0,0,0,0,0,0,0,0,0,0,0,0,0,0,0,0,0,0,0,0,0,0,0,0,0,0,0,0,0,0,0,0,0,0,0,0,0,0,0,0,0,0,0,0,0,0,0,0,0,0,0,0,0,0,0,0,0,0,0,0,0,0,0,0,0,0,0,0,0,0,0,0,0,0,0,0,0,0,0,0,0,0,0,0,0,0,0,0,0,0,0,0,0,0,0,0,0,0,0,0,0,0,0,0,0,0,0,0,0,0,0,0,0,0,0,0,0,0,0,0,0,0,0,0,0,0,0,0,0,0,0,0,0,0,0,0,0,0,0,0,0,0,0,0,0,0,0,0,0,0,0,0,0,0,0,0,0,0,0,0,0,0,0,0,0,0,0,0,0,0,0,0,0,0,0,0,0,0,0,0,0,0,0,0,0,0,0,0,0,0,0,0,0,0,0,0,0,0,0,0,0,0,0,0,0,0,0,0,0,0,0,0,0,0,0,0,0,0,0,0,0,0,0,0,0,0,0,0,0,0,0,0,0,0,0,0,0,0,0,0,0,0,0,0,0,0,0,0,0,0,0,0,0,0,0,0,0,0,0,0,0,0,0,0,0,0,0,0,0,0,0,0,0,0,0,0,0,0,0,0,0,0,0,0,0,0,0,0,0,0,0,0,0,0,0,0,0,0,0,0,0,0,0,0,0,0,0,0,0,0,0,0,0,0,0,0,0,0,0,0,0,0,0,0,0,0,0,0,0,0,0,0,0,0,0,0,0,0,0,0,0,0,0,0,0,0,0,0,0,0,0,0,0,0,0,0,0,0,0,0,0,0,0,0,0,0,0,0,0,0,0,0,0,0,0,0,0,0,0,0,0,0,0,0,0,0,0,0,0,0,0,0,0,0,0,0,0,0,0,0,0,0,0,0,0,0,0,0,0,0,0,0,0,0,0,0,0,0,0,0,0,0,0,0,0,0,0,0,0,0,0,0,0,0,0,0,0,0,0,0,0,0,0,0,0,0,0,0,0,0,0,0,0,0,0,0,0,0,0,0,0,0,0,0,0,0,0,0,0,0,0,0,0,0,0,0,0,0,0,0,0,0,0,0,0,0,0,0,0,0,0,0,0,0,0,0,0,0,0,0,0,0,0,0,0,0,0,0,0,0,0,0,0,0,0,0,0,0,0,0,0,0,0,0,0,0,0,0,0,0,0,0,0,0,0,0,0,0,0,0,0,0,0,0,0,0,0,0,0,0,0,0,0,0,0,0,0,0,0,0,0,0,0,0,0,0,0,0,0,0,0,0,0,0,0,0,0,0,0,0,0,0,0,0,0,0,0,0,0,0,0,0,0,0,0,0,0,0,0,0,0,0,0,0,0,0,0,0,0,0,0,0,0,0,0,0,0,0]}],[{"header":{"parameterUnit":"kt","parameterCategory":2,"dx":1,"dy":1,"la1":29.764190673828125,"la2":30.86408042907715,"lo1":-88.46762084960938,"lo2":-86.9344482421875,"nx":47,"ny":34,"refTime":"2022-10-12T00:00:00:Z","depth":"25","parameterNumber":3,"parameterNumberName":"V-component_of_CURRENTS"},"data":[0.0742,0.0288,0.0112,0.0785,0.1436,0.1436,0.1255,0.0849,0.1191,0.1442,0.1612,0.1826,0.1965,0.1853,0.1634,0.1516,0.1404,0.126,0.1041,0.1009,0.1244,0.103,0.0432,0.0481,0.0443,0.0187,0.0053,0.0598,0.079,0.0342,-0.0283,-0.0694,-0.1009,-0.1255,-0.1639,-0.1842,-0.1858,-0.1874,-0.1895,-0.1943,-0.1922,-0.1997,-0.1805,-0.1532,-0.1223,-0.1014,-0.1046,0.095,0.0598,0.0272,0.0427,0.0844,0.103,0.1143,0.1217,0.157,0.1682,0.1821,0.1959,0.1847,0.1548,0.1292,0.1244,0.1233,0.1169,0.1046,0.1062,0.1233,0.1078,0.0694,0.0705,0.0731,0.0518,0.0027,0.0,0.0192,0.0406,-0.0059,-0.0657,-0.0972,-0.1057,-0.1121,-0.1516,-0.1596,-0.166,-0.1644,-0.1767,-0.2018,-0.2045,-0.2034,-0.1885,-0.1698,-0.1559,-0.1447,0.1127,0.0929,0.0715,0.0625,0.0897,0.1127,0.1335,0.1591,0.1687,0.1783,0.1815,0.1831,0.1458,0.1143,0.102,0.1041,0.1089,0.1121,0.1078,0.1025,0.1073,0.1084,0.103,0.0972,0.0897,0.0721,0.0315,0.0123,0.0064,0.0021,0.0117,-0.0395,-0.0913,-0.1175,-0.0886,-0.1009,-0.1196,-0.1415,-0.1452,-0.1623,-0.1794,-0.1837,-0.1927,-0.181,-0.1639,-0.1442,-0.1324,0.1191,0.1137,0.1014,0.1004,0.1132,0.1303,0.1447,0.1559,0.166,0.1607,0.1506,0.1393,0.1132,0.0908,0.0886,0.0918,0.0977,0.103,0.1036,0.0982,0.0961,0.1046,0.1201,0.1207,0.1014,0.071,0.0486,0.0336,0.0464,0.0497,-0.0021,-0.0203,-0.0497,-0.0988,-0.1217,-0.0945,-0.0689,-0.0833,-0.0956,-0.1084,-0.1223,-0.1319,-0.1356,-0.1351,-0.1303,-0.1223,-0.1175,0.1191,0.1196,0.1175,0.1143,0.1191,0.1271,0.134,0.1361,0.1324,0.1249,0.1148,0.1036,0.0929,0.086,0.0854,0.0865,0.0892,0.0934,0.0945,0.0897,0.0865,0.0929,0.11,0.1196,0.1073,0.0747,0.0529,0.0315,0.0598,0.0993,0.0609,-0.04,-0.0523,-0.0379,-0.0822,-0.0956,-0.1313,-0.087,-0.0726,-0.0609,-0.0603,-0.0876,-0.1046,-0.1036,-0.1078,-0.1052,-0.103,0.1159,0.1175,0.1185,0.1196,0.1201,0.1185,0.1169,0.1143,0.1089,0.103,0.0972,0.0918,0.0892,0.0876,0.0865,0.0849,0.0849,0.0865,0.0865,0.0822,0.079,0.0817,0.0918,0.102,0.1004,0.0838,0.0662,0.0545,0.0545,0.0785,0.0534,-0.0235,-0.0448,-0.0609,-0.0363,-0.0635,-0.0881,-0.0902,-0.1308,-0.0844,-0.0459,-0.0395,-0.0534,-0.0737,-0.086,-0.0844,-0.0828,0.1105,0.1121,0.1143,0.1148,0.1148,0.1127,0.11,0.1068,0.103,0.0998,0.0956,0.0929,0,0,0,0,0,0.0822,0.0812,0.0769,0.0726,0.0715,0.0753,0.0822,0.087,0.0849,0.0796,0.0715,0.0603,0.0507,0.0288,-0.0037,-0.0256,-0.0368,-0.0566,-0.0235,-0.0368,-0.0352,-0.0854,-0.0897,-0.1506,-0.0977,-0.0363,-0.0272,-0.0539,-0.0577,-0.0561,0.1062,0.1105,0.1143,0.1153,0.1148,0.1132,0.1116,0,0,0,0,0,0,0,0,0,0,0,0,0,0,0,0,0.0678,0.0742,0.078,0.078,0.0705,0.0587,0.0513,0.039,0.0112,-0.0123,-0.0187,-0.0251,-0.0406,-0.008,0.0011,-0.0368,-0.0411,-0.102,-0.1089,-0.1281,-0.0598,-0.031,-0.0454,-0.0448,0,0,0,0,0,0,0,0,0,0,0,0,0,0,0,0,0,0,0,0,0,0,0,0,0,0,0.0705,0.0625,0.0529,0.0475,0.0384,0.0208,0.0037,-0.0048,-0.0064,-0.0085,-0.0133,0.0,0.0176,-0.008,-0.0609,-0.0641,-0.1223,-0.087,-0.0555,-0.0262,-0.0416,0,0,0,0,0,0,0,0,0,0,0,0,0,0,0,0,0,0,0,0,0,0,0,0,0,0,0,0,0,0.0486,0.0432,0.0326,0.0192,0.0085,0.0037,0.0069,0.0128,0.0112,0.0005,-0.0069,-0.0053,-0.0283,-0.0796,-0.0988,-0.047,0.0048,0.0144,0,0,0,0,0,0,0,0,0,0,0,0,0,0,0,0,0,0,0,0,0,0,0,0,0,0,0,0,0,0,0,0,0,0.0187,0.0096,0.0101,0.0203,0.0278,0.0214,-0.0027,-0.0198,-0.032,-0.0005,-0.0502,-0.0422,-0.0459,0.0347,0,0,0,0,0,0,0,0,0,0,0,0,0,0,0,0,0,0,0,0,0,0,0,0,0,0,0,0,0,0,0,0,0,0,0,0,0,0.0336,0.0283,0.0064,-0.0048,-0.0053,-0.0176,-0.0128,0.0176,0.008,0.0235,0,0,0,0,0,0,0,0,0,0,0,0,0,0,0,0,0,0,0,0,0,0,0,0,0,0,0,0,0,0,0,0,0,0,0,0,0,0,0.0384,0.0176,-0.0005,0.0037,0.0187,0.008,0.0155,0.0491,0.0603,0,0,0,0,0,0,0,0,0,0,0,0,0,0,0,0,0,0,0,0,0,0,0,0,0,0,0,0,0,0,0,0,0,0,0,0,0,0,0,0.0326,0.0128,0.008,0.0208,0.0331,0.0352,0.0427,0.008,0,0,0,0,0,0,0,0,0,0,0,0,0,0,0,0,0,0,0,0,0,0,0,0,0,0,0,0,0,0,0,0,0,0,0,0,0,0,0,0,0,0,0,0,0.0464,0.0507,0.0443,0,0,0,0,0,0,0,0,0,0,0,0,0,0,0,0,0,0,0,0,0,0,0,0,0,0,0,0,0,0,0,0,0,0,0,0,0,0,0,0,0,0,0,0,0,0,0,0,0,0,0,0,0,0,0,0,0,0,0,0,0,0,0,0,0,0,0,0,0,0,0,0,0,0,0,0,0,0,0,0,0,0,0,0,0,0,0,0,0,0,0,0,0,0,0,0,0,0,0,0,0,0,0,0,0,0,0,0,0,0,0,0,0,0,0,0,0,0,0,0,0,0,0,0,0,0,0,0,0,0,0,0,0,0,0,0,0,0,0,0,0,0,0,0,0,0,0,0,0,0,0,0,0,0,0,0,0,0,0,0,0,0,0,0,0,0,0,0,0,0,0,0,0,0,0,0,0,0,0,0,0,0,0,0,0,0,0,0,0,0,0,0,0,0,0,0,0,0,0,0,0,0,0,0,0,0,0,0,0,0,0,0,0,0,0,0,0,0,0,0,0,0,0,0,0,0,0,0,0,0,0,0,0,0,0,0,0,0,0,0,0,0,0,0,0,0,0,0,0,0,0,0,0,0,0,0,0,0,0,0,0,0,0,0,0,0,0,0,0,0,0,0,0,0,0,0,0,0,0,0,0,0,0,0,0,0,0,0,0,0,0,0,0,0,0,0,0,0,0,0,0,0,0,0,0,0,0,0,0,0,0,0,0,0,0,0,0,0,0,0,0,0,0,0,0,0,0,0,0,0,0,0,0,0,0,0,0,0,0,0,0,0,0,0,0,0,0,0,0,0,0,0,0,0,0,0,0,0,0,0,0,0,0,0,0,0,0,0,0,0,0,0,0,0,0,0,0,0,0,0,0,0,0,0,0,0,0,0,0,0,0,0,0,0,0,0,0,0,0,0,0,0,0,0,0,0,0,0,0,0,0,0,0,0,0,0,0,0,0,0,0,0,0,0,0,0,0,0,0,0,0,0,0,0,0,0,0,0,0,0,0,0,0,0,0,0,0,0,0,0,0,0,0,0,0,0,0,0,0,0,0,0,0,0,0,0,0,0,0,0,0,0,0,0,0,0,0,0,0,0,0,0,0,0,0,0,0,0,0,0,0,0,0,0,0,0,0,0,0,0,0,0,0,0,0,0,0,0,0,0,0,0,0,0,0,0,0,0,0,0,0,0,0,0,0,0,0,0,0,0,0,0,0,0,0,0,0,0,0,0,0,0,0,0,0,0,0,0,0,0,0,0,0,0,0,0,0,0,0,0,0,0,0,0,0,0,0,0,0,0,0,0,0,0,0,0,0,0,0,0,0,0,0,0,0,0,0,0,0,0,0,0,0,0,0,0,0,0,0,0,0,0,0,0,0,0,0,0,0,0,0,0,0,0,0,0,0,0,0,0,0,0,0,0,0,0,0,0,0,0,0,0,0,0,0,0,0,0,0,0,0,0,0,0,0,0,0,0,0,0,0,0,0,0,0,0,0,0,0,0,0,0,0,0,0,0,0,0,0,0,0,0,0,0,0,0,0,0,0,0,0,0,0,0,0,0,0,0,0,0,0,0,0,0,0,0,0,0,0,0,0,0,0,0,0,0,0,0,0,0,0,0,0,0,0,0,0,0,0,0,0,0,0,0,0,0,0,0,0,0,0,0,0,0,0,0,0,0,0,0,0,0,0,0,0,0,0,0,0,0,0,0,0,0,0,0,0,0,0,0,0,0,0,0,0,0,0,0,0,0,0,0,0,0,0,0,0,0,0,0,0,0,0,0,0,0,0,0,0,0,0,0,0,0,0,0,0,0,0,0,0,0,0,0,0,0,0,0,0,0,0,0,0,0,0,0,0,0,0,0,0,0,0,0,0,0,0,0,0,0,0,0,0,0,0,0,0,0,0,0,0,0,0,0,0,0,0,0,0,0,0,0,0,0,0,0,0,0,0,0,0,0,0,0,0,0,0,0,0,0,0,0,0,0,0,0,0,0,0,0,0,0,0,0,0,0,0,0,0,0,0,0,0]}]]]